     2              OBSERVATION DATA    GPS                 RINEX VERSION / TYPE
srx/v1.8.1.4 seismo 02/07/17 22:34:01                       PGM / RUN BY / DATE
                                                            COMMENT
sig: 9 8 7 6 5 4 1 0                                        COMMENT
sig: 9 8 7 6 5 4 1 0                                        COMMENT
sig: 9 8 7 6 5 4 1 0                                        COMMENT
sig: 9 8 7 6 5 4 1 0                                        COMMENT
sig: 9 8 7 6 5 4 1 0                                        COMMENT
Original Marker Name: SANO                                  COMMENT
Campaign Name: CSUSB 2002-2003                              COMMENT
4-Character Station Name: SANO                              COMMENT
6-Character Antenna Code: DMRCHT                            COMMENT
Vertical Measurement Point: BCR                             COMMENT
Vertical Offset to Rinex Ref. Point: 0.0348                 COMMENT
Radial Measurement Point: ECF                               COMMENT
Radial Offset to Rinex Ref. Point: 0.1897                   COMMENT
Antenna Height from Field Measurement: 1.4820 m             COMMENT
Additional Antenna Identification Info.:                    COMMENT
Turborogue and Ashtech Choke Ring                           COMMENT
Original XYZ: -2444058.2762 -4692739.6806 3548357.6341      COMMENT
New XYZ position is based on association with SCEC monument COMMENT
E1D0Q5S9+0011. Position of that monument is believed to be  COMMENT
valid to within 1 m horizontally; vertical accuracy         COMMENT
should be no worse than 3-times this value.                 COMMENT
                                                            COMMENT
Revised Rinex header created by UCSD GPS archive for        COMMENT
GSAC on 09-Nov-2004 (2004:314) 22:03:36 GMT                 COMMENT
For assistance contact dagnew@ucsd.edu                      COMMENT
or anderson@python.ucsd.edu                                 COMMENT
                                                            COMMENT
SANO                                                        MARKER NAME
SANO                                                        MARKER NUMBER
DRM CAL STATE SAN BERNARDINO                                OBSERVER / AGENCY
T263 TURBOROGUE SNR-8000 98.12.27                           REC # / TYPE / VERS
329 DORNE-MARGOL. TYPE T                                    ANT # / TYPE
 -2444783.0000 -4693771.0000  3548233.0000                  APPROX POSITION XYZ
        1.4350        0.0000        0.0000                  ANTENNA: DELTA H/E/N
     1     1     0                                          WAVELENGTH FACT L1/2
     5    L1    L2    P1    P2    C1                        # / TYPES OF OBSERV
    30                                                      INTERVAL
  2002     7     1    15    40   30.000000                  TIME OF FIRST OBS
  2002     7     1    23    59   30.000000                  TIME OF LAST OBS
    20                                                      # OF SATELLITES
          01   185   185     0   185   185                  PRN / # OF OBS
          02    84    84     0    84    84                  PRN / # OF OBS
          03   599   599     0   599   599                  PRN / # OF OBS
          06   363   363     0   363   363                  PRN / # OF OBS
          09   118   118     0   118   118                  PRN / # OF OBS
          11   411   411     0   411   411                  PRN / # OF OBS
          13     2     2     0     2     2                  PRN / # OF OBS
          14   744   744     0   744   744                  PRN / # OF OBS
          15   712   712     0   712   712                  PRN / # OF OBS
          17   640   640     0   640   640                  PRN / # OF OBS
          18   781   781     0   781   781                  PRN / # OF OBS
          20   262   262     0   262   262                  PRN / # OF OBS
          21   936   936     0   936   936                  PRN / # OF OBS
          22   376   376     0   376   376                  PRN / # OF OBS
          23   405   405     0   405   405                  PRN / # OF OBS
          25   468   468     0   468   468                  PRN / # OF OBS
          26    19    19     0    19    19                  PRN / # OF OBS
          29   105   105     0   105   105                  PRN / # OF OBS
          30   127   127     0   127   127                  PRN / # OF OBS
                                                            END OF HEADER
 02 07 01 15 40 30.0000000  0  5 06 15 22 23 26
        -1.16359        -0.06157         0.00051  20358605.77057  20358602.42659
        -0.35358         0.77356         0.00051  22332048.63556  22332044.15958
        -0.34558         0.72554         0.00051  24475191.31754  24475183.12658
         0.00459         1.00057         0.00051  20610819.54557  20610816.21559
        -0.70458        -0.11155         0.00051  23006006.65955  23006002.07758
 02 07 01 15 41 00.0000000  0  7 06 15 17 22 23 26 29
    -25712.56849    -20034.92147         0.00041  20353712.86547  20353709.64649
    -64144.77248    -49981.85946         0.00041  22319842.37946  22319837.61748
        -0.19659         0.26056         0.00051  21671474.13756  21671469.31959
    -73245.97748    -57073.65344         0.00041  24461254.77144  24461244.34648
      3583.43949      2793.28947         0.00041  20611501.58747  20611498.20349
    -77147.72748    -60114.60745         0.00041  22991327.41245  22991321.52948
        -0.56958        -0.28156         0.00051  23094130.70056  23094125.74058
 02 07 01 15 41 30.0000000  0  8 06 15 17 18 22 23 26 29
    -49648.65149    -38686.41447         0.00041  20349158.11347  20349154.79949
   -126716.97448    -98739.39046         0.00041  22307935.50746  22307930.49148
    -43746.94249    -34088.09846         0.00041  21663149.06746  21663144.52149
        -0.38758        -0.04956         0.00051  23001046.49856  23001042.43158
   -144684.30348   -112739.78144         0.00041  24447658.73344  24447650.04648
      9074.04649      7071.68747         0.00041  20612546.43247  20612542.85749
   -152575.56048   -118889.48045         0.00041  22976973.94945  22976968.32748
    -52432.79548    -40856.48646         0.00041  23084153.38946  23084147.74648
 02 07 01 15 42 00.0000000  0  8 06 15 17 18 22 23 26 29
    -69605.81849    -54237.45347         0.00041  20345360.43147  20345357.17049
   -185515.01948   -144556.01746         0.00041  22296747.31446  22296741.73248
    -83726.98349    -65241.36546         0.00041  21655541.46446  21655536.38749
    -98231.31848    -76543.57546         0.00041  22982354.63046  22982349.37148
   -212111.31448         0.00041         0.00041         0.00041  24434818.75148
     18673.05649     14551.43647         0.00041  20614372.87647  20614369.45149
   -224078.79348   -174606.23245         0.00041  22963366.50145  22963361.90048
   -100901.74748    -78624.43746         0.00041  23074929.78946  23074924.54048
 02 07 01 15 42 30.0000000  0  8 06 15 17 18 22 23 26 29
    -88286.42749    -68793.76647         0.00041  20341805.60947  20341802.40449
   -243242.91748   -189538.75446         0.00041  22285761.21446  22285756.06448
   -122644.39149    -95566.60546         0.00041  21648135.92446  21648130.88949
   -195332.20748   -152206.55846         0.00041  22963875.87246  22963871.84548
   -278228.82848   -216800.31744         0.00041  24422243.22844  24422237.88948
     29675.46049     23124.73947         0.00041  20616466.61547  20616463.27549
   -294357.83248   -229369.05145         0.00041  22949993.02745  22949987.35748
   -148108.54248   -115408.89846         0.00041  23065945.95546  23065941.78848
 02 07 01 15 43 00.0000000  0  8 06 15 17 18 22 23 26 29
   -106725.24349    -83161.67147         0.00041  20338296.89047  20338293.69249
   -300937.23648   -234495.33546         0.00041  22274782.32846  22274777.47948
   -161535.87849   -125871.65146         0.00041  21640735.23046  21640729.80049
   -292337.28448   -227794.87546         0.00041  22945417.10946  22945412.76748
   -344071.17348   -268106.01944         0.00041  24409718.30844  24409708.62848
     41043.85249     31983.22747         0.00041  20618629.91247  20618626.43149
   -364445.89348   -283983.05045         0.00041  22936656.45145  22936650.54848
   -195086.98848   -152015.42245         0.00041  23057006.44945  23057002.10948
 02 07 01 15 43 30.0000000  0  8 06 15 17 18 22 23 26 29
   -125076.00449    -97460.96247         0.00041  20334804.89747  20334801.73149
   -358753.36848   -279546.83146         0.00041  22263780.07546  22263775.56248
   -200557.29749   -156277.93446         0.00041  21633309.93246  21633304.06749
   -389400.53048   -303428.53246         0.00041  22926946.26246  22926941.76948
   -409791.82748   -319316.91044         0.00041  24397206.79444  24397202.29148
     52621.59249     41004.84647         0.00041  20620833.19647  20620829.76649
   -434494.91848   -338566.63145         0.00041  22923325.52745  22923320.57548
   -241990.28848   -188563.39445         0.00041  23048080.77745  23048076.42048
 02 07 01 15 44 00.0000000  0  8 06 15 17 18 22 23 26 29
   -143352.79549   -111702.61547         0.00041  20331326.90747  20331323.73349
   -416707.23348   -324705.65146         0.00041  22252751.90646  22252747.31348
   -239724.54149   -186797.84846         0.00041  21625855.88246  21625850.95949
   -486535.15848   -379117.79546         0.00041  22908462.02846  22908457.71048
   -475404.41148   -370443.53544         0.00041  24384721.56344  24384715.67348
     64391.88349     50176.50147         0.00041  20623073.13047  20623069.59849
   -504517.28048   -393129.43445         0.00041  22910001.54745  22909995.78948
   -288831.57848   -225063.05546         0.00041  23039168.47646  23039162.94848
 02 07 01 15 44 30.0000000  0  8 06 15 17 18 22 23 26 29
   -161429.10049   -125788.04447         0.00041  20327887.12347  20327883.91649
   -474674.05548   -369874.56946         0.00041  22241721.37746  22241716.56548
   -278913.08849   -217334.35846         0.00041  21618398.62846  21618393.46649
   -583614.10348   -454763.66346         0.00041  22889988.91046  22889984.16948
   -540782.16348   -421387.15344         0.00041  24372279.78844  24372274.93348
     76478.76449     59594.84747         0.00041  20625373.24347  20625369.71249
   -574384.54248   -447571.39345         0.00041  22896705.37045  22896700.15448
   -335483.29548   -261414.99146         0.00041  23030290.80446  23030285.19048
 02 07 01 15 45 00.0000000  0  8 06 15 17 18 22 23 26 29
   -179376.35249   -139772.91147         0.00041  20324471.91747  20324468.70949
   -532726.54148   -415110.23146         0.00041  22230674.12246  22230669.47448
   -318196.25149   -247944.60046         0.00041  21610923.15646  21610918.22349
   -680707.90848   -530421.12946         0.00041  22871512.43446  22871507.55848
   -605995.77748   -472202.93044         0.00041  24359869.94244  24359864.12248
     88808.20049     69202.19947         0.00041  20627719.52847  20627715.99149
   -644166.35348   -501946.76745         0.00041  22883427.37345  22883421.02948
   -382015.92848   -297674.14746         0.00041  23021434.25146  23021430.05848
 02 07 01 15 45 30.0000000  0  8 06 15 17 18 22 23 26 29
   -197133.32249   -153609.50947         0.00041  20321092.85047  20321089.53249
   -590805.14948   -460366.25846         0.00041  22219622.36846  22219616.88248
   -357514.51349   -278582.19146         0.00041  21603441.28746  21603436.52549
   -777754.82548   -606042.05746         0.00041  22853044.10946  22853039.81448
   -670983.79748   -522842.77941         0.00041         0.00041  24347496.88148
    101438.81049     79044.23147         0.00041  20630123.05847  20630119.43549
   -713799.62148   -556206.38745         0.00041  22870175.79745  22870170.90648
   -428367.57948   -333792.28646         0.00041  23012613.13246  23012609.81948
 02 07 01 15 46 00.0000000  0  8 06 15 17 18 22 23 26 29
   -214634.43849   -167246.74347         0.00041  20317762.43047  20317758.99549
   -648846.24148   -505593.04046         0.00041  22208578.04846  22208572.05348
   -396804.49049   -309197.74146         0.00041  21595964.61146  21595960.09849
   -874689.29648   -681575.35746         0.00041  22834598.62346  22834594.17348
   -735680.41748   -573255.71541         0.00041         0.00041  24335185.68148
    114433.34149     89169.83747         0.00041  20632595.71147  20632592.03549
   -783217.14848   -610297.89545         0.00041  22856965.87345  22856961.26348
   -474471.61048   -369717.44346         0.00041  23003841.55546  23003836.94048
 02 07 01 15 46 30.0000000  0  8 06 15 17 18 22 23 26 29
   -231816.17749   -180635.11147         0.00041  20314493.01847  20314489.61649
   -706788.03048   -550742.45146         0.00041  22197551.63746  22197546.23048
   -436004.56149   -339743.23446         0.00041  21588505.19946  21588500.33049
   -971447.60948   -756971.39946         0.00041  22816185.67946  22816182.32048
   -800021.52248   -623391.61144         0.00041  24322949.55444  24322942.70148
    127852.59449     99626.39447         0.00041  20635149.44147  20635145.85249
   -852353.54548   -664170.35146         0.00041  22843809.04446  22843804.74048
   -520263.84948   -405399.68146         0.00041  22995127.33746  22995122.26348
 02 07 01 15 47 00.0000000  0  8 06 15 17 18 22 23 26 29
   -248620.32749   -193729.25747         0.00041  20311295.21347  20311291.87549
   -764573.70148   -595770.21746         0.00041  22186555.99446  22186549.68148
   -475058.05749   -370174.51746         0.00041  21581073.19846  21581068.65549
  -1067970.65848   -832184.11446         0.00041  22797818.74546  22797814.71648
   -863948.59748   -673204.90744         0.00041  24310783.78544  24310776.89948
    141752.20749    110457.25847         0.00041  20637794.33147  20637790.74149
   -921148.78948   -717776.95646         0.00041  22830718.03346  22830713.14848
   -565685.19548   -440792.90246         0.00041  22986483.58446  22986478.79948
 02 07 01 15 47 30.0000000  0  8 06 15 17 18 22 23 26 29
   -265086.75049   -206560.23747         0.00041  20308161.58047  20308158.31649
   -822245.05348   -640708.89946         0.00041  22175581.57446  22175574.79648
   -514007.13849   -400524.43146         0.00041  21573661.29846  21573657.14149
  -1164297.95348   -907244.30246         0.00041  22779488.58746  22779484.00048
   -927501.27248   -722726.41344         0.00041  24298691.42844  24298683.23748
    156089.38149    121629.07947         0.00041  20640522.50747  20640518.96549
   -989641.14348   -771147.57146         0.00041  22817684.96146  22817679.50248
   -610774.62748   -475927.49846         0.00041  22977902.31246  22977899.09548
 02 07 01 15 48 00.0000000  0  8 06 15 17 18 22 23 26 29
   -281255.40749   -219159.19147         0.00041  20305084.81747  20305081.59349
   -879843.69148   -685590.92646         0.00041  22164619.76446  22164614.62948
   -552893.44449   -430825.42346         0.00041  21566261.68346  21566257.15349
  -1260469.10948   -982182.81146         0.00041  22761187.06346  22761182.90348
   -990719.21747         0.00041         0.00041         0.00041  24286650.53447
    170821.40449    133108.57147         0.00041  20643326.03147  20643322.43349
  -1057868.69348   -824311.82945         0.00041  22804700.55745  22804696.24248
   -655571.51348   -510834.13746         0.00041  22969378.99346  22969374.51048
 02 07 01 15 48 30.0000000  0  7 06 15 17 18 23 26 29
   -297207.17649   -231589.13947         0.00041  20302049.37547  20302046.16849
   -937451.92048   -730480.42246         0.00041  22153657.75946  22153652.39548
   -591799.55749   -461141.85946         0.00041  21558857.98146  21558853.32049
  -1356564.24748  -1057062.09646         0.00041  22742899.76946  22742895.93148
    185864.99249    144830.84047         0.00041  20646188.74147  20646185.05449
  -1125910.28748   -877331.18946         0.00041  22791752.91746  22791748.15848
   -700155.43148   -545574.80146         0.00041  22960895.42746  22960890.36948
 02 07 01 15 49 00.0000000  0  7 06 15 17 18 23 26 29
   -312720.36649   -243677.33647         0.00041  20299097.21747  20299093.99849
   -994849.53348   -775205.80246         0.00041  22142735.68646  22142730.16848
   -630505.64049   -491302.43446         0.00041  21551492.35046  21551487.88949
  -1452361.20348  -1131709.03146         0.00041  22724670.24546  22724666.32248
    201439.01749    156966.43747         0.00041  20649152.41447  20649148.81149
  -1193542.62048   -930031.64746         0.00041  22778883.77046  22778878.37048
   -744304.04848   -579976.29546         0.00041  22952493.45646  22952488.64048
 02 07 01 15 49 30.0000000  0  8 06 15 17 18 22 23 26 29
   -327706.20149   -255354.60747         0.00041  20296245.51947  20296242.41449
  -1051949.53748   -819699.29346         0.00041  22131869.58146  22131864.27348
   -668924.80649   -521239.43346         0.00041  21544181.59546  21544176.95349
  -1547770.84548  -1206054.16246         0.00041  22706514.57546  22706511.22448
        -0.58958         0.00051         0.00051         0.00051  24250997.73258
    217629.44449    169582.35247         0.00041  20652233.36547  20652229.80149
  -1260675.24648   -982342.72146         0.00041  22766108.31946  22766103.20248
   -787927.75248   -613968.76646         0.00041  22944192.02646  22944187.33248
 02 07 01 15 50 00.0000000  0  7 06 15 17 18 22 23 29
   -342213.73849   -266659.18247         0.00041  20293484.85447  20293481.66749
  -1108802.68048   -864000.41346         0.00041  22121050.55246  22121045.66148
   -707108.08049   -550992.62346         0.00041  21536915.32446  21536910.58849
  -1642841.89548  -1280135.45446         0.00041  22688423.59846  22688420.44648
    -61405.01748    -47847.02544         0.00041  24239324.01744  24239314.33748
    234384.45749    182638.20047         0.00041  20655421.60847  20655418.09349
   -831074.97848   -647589.94246         0.00041  22935981.82146  22935977.07948
 02 07 01 15 50 30.0000000  0  7 06 15 17 18 22 23 29
   -356345.09649   -277670.63147         0.00041  20290795.73847  20290792.53349
  -1165512.49548   -908189.84846         0.00041  22110259.43046  22110254.54248
   -745159.11849   -580642.77346         0.00041  21529674.51346  21529669.73449
  -1737675.81248  -1354031.96346         0.00041  22670376.82346  22670373.46048
   -122394.37448    -95371.14944         0.00041  24227715.92844  24227708.62748
    251599.17049    196052.25747         0.00041  20658697.58447  20658693.94849
   -873846.78148   -680918.59346         0.00041  22927841.71046  22927837.83948
 02 07 01 15 51 00.0000000  0  7 06 15 17 18 22 23 29
   -370041.02549   -288342.78547         0.00041  20288189.59247  20288186.40749
  -1222021.42648   -952222.76546         0.00041  22099505.70646  22099500.68848
   -783020.38149   -610145.04246         0.00041  21522469.90846  21522465.30849
  -1832212.44948  -1427696.83346         0.00041  22652387.23446  22652383.33948
   -182908.90448   -142525.26345         0.00041  24216201.74945  24216192.31748
    269330.33849    209868.74747         0.00041  20662071.70247  20662068.09149
   -916182.86348   -713907.71946         0.00041  22919785.73346  22919781.37248
 02 07 01 15 51 30.0000000  0  6 06 15 17 18 22 23
   -383299.81949   -298674.31747         0.00041  20285666.57247  20285663.42149
  -1278329.31748   -996099.01446         0.00041  22088790.46146  22088785.62748
   -820692.05249   -639499.58346         0.00041  21515301.26446  21515296.70049
  -1926450.13948  -1501128.73746         0.00041  22634454.09446  22634450.07448
   -242946.77248         0.00041         0.00041         0.00041  24204766.55148
    287576.71549    224086.70047         0.00041  20665543.85547  20665540.29049
 02 07 01 15 52 00.0000000  0  6 06 15 17 18 22 23
   -396182.26949   -308712.59247         0.00041  20283215.13047  20283211.96149
  -1334498.74448  -1039867.37046         0.00041  22078101.77046  22078096.39048
   -858236.82449   -668755.23346         0.00041  21508156.97746  21508152.00949
  -2020449.23048  -1574374.73546         0.00041  22616566.88146  22616562.55248
   -302568.43848   -235766.29745         0.00041  24193429.28045  24193421.97548
    306274.49149    238656.39547         0.00041  20669101.98347  20669098.37749
 02 07 01 15 52 30.0000000  0  6 06 15 17 18 22 23
   -408593.61549   -318383.77147         0.00041  20280853.35947  20280850.14749
  -1390436.50348  -1083455.21746         0.00041  22067457.47046  22067452.24448
   -895561.70849   -697839.54746         0.00041  21501054.57346  21501049.21649
  -2114114.15648  -1647360.34246         0.00041  22598742.89246  22598738.90048
   -361678.89048   -281826.35244         0.00041  24182182.60344  24182174.85748
    325515.74249    253649.57847         0.00041  20672763.26247  20672759.84749
 02 07 01 15 53 00.0000000  0  6 06 15 17 18 22 23
   -420573.54049   -327718.77747         0.00041  20278573.53947  20278570.31849
  -1446183.76848  -1126894.61946         0.00041  22056849.25546  22056843.58448
   -932708.14349   -726784.81246         0.00041  21493985.47646  21493980.72549
  -2207484.38148  -1720116.31746         0.00041  22580975.22246  22580971.43848
   -420317.58748   -327518.75845         0.00041  24171020.59945  24171016.40248
    345257.83749    269033.02747         0.00041  20676520.26847  20676516.81049
 02 07 01 15 53 30.0000000  0  7 06 15 17 18 21 22 23
   -432109.12249   -336707.54447         0.00041  20276378.45247  20276375.25649
  -1501728.87648  -1170176.49546         0.00041  22046279.00846  22046273.59548
   -969664.74849   -755582.15546         0.00041  21486952.94846  21486948.39649
  -2300546.47448  -1792632.18046         0.00041  22563266.26446  22563262.19248
        -0.90358         0.00051         0.00051         0.00051  25339320.76558
   -478471.10748   -372833.13944         0.00041  24159955.31344  24159949.45348
    365511.10749    284814.79547         0.00041  20680374.42047  20680370.81449
 02 07 01 15 54 00.0000000  0  7 06 15 17 18 21 22 23
   -443207.65049   -345355.74747         0.00041  20274266.48447  20274263.30749
  -1557080.60448  -1213307.68946         0.00041  22035745.98746  22035740.06348
  -1006440.68049   -784238.71146         0.00041  21479954.68346  21479950.04449
  -2393306.61848  -1864912.76246         0.00041  22545613.52046  22545609.64348
    -97431.97148         0.00041         0.00041         0.00041  25320779.60248
   -536146.47748   -417774.95444         0.00041  24148979.52644  24148972.50448
    386265.50549    300987.04847         0.00041  20684323.77647  20684320.17249
 02 07 01 15 54 30.0000000  0  7 06 15 17 18 21 22 23
   -453966.65749   -353739.39247         0.00041  20272219.01147  20272215.80349
  -1612338.24648  -1256365.56046         0.00041  22025230.94146  22025225.01748
  -1043135.09549   -812831.75246         0.00041  21472971.63546  21472967.25749
  -2485862.47448  -1937034.15546         0.00041  22528001.21246  22527997.22748
   -194849.94848         0.00041         0.00041         0.00041  25302240.23948
   -593440.97148   -462419.93044         0.00041  24138077.77544  24138069.58448
    407420.46249    317471.42447         0.00041  20688349.31347  20688345.83549
 02 07 01 15 55 00.0000000  0  7 06 15 17 18 21 22 23
   -464340.58949   -361822.97847         0.00041  20270245.05447  20270241.76549
  -1667457.58248  -1299315.67146         0.00041  22014742.18146  22014736.22848
  -1079704.34449   -841327.26146         0.00041  21466012.65846  21466008.21149
  -2578167.79348  -2008960.33246         0.00041  22510436.45246  22510432.82848
   -292209.34248         0.00041         0.00041         0.00041  25283712.48848
   -650308.79148   -506732.46044         0.00041  24127254.30844  24127248.49748
    429018.81749    334301.30647         0.00041  20692459.49547  20692455.96849
 02 07 01 15 55 30.0000000  0  6 06 15 17 18 22 23
   -474368.19049   -369636.69647         0.00041  20268336.98047  20268333.81149
  -1722478.77948  -1342189.30346         0.00041  22004271.59246  22004266.38348
  -1116188.68349   -869756.60946         0.00041  21459070.00346  21459065.72449
  -2670260.71748  -2080721.00546         0.00041  22492912.30446  22492908.45248
   -706788.26748   -550742.38244         0.00041  24116506.07244  24116500.87348
    451019.10849    351444.38547         0.00041  20696646.07047  20696642.45449
 02 07 01 15 56 00.0000000  0  6 06 15 17 18 22 23
   -484062.85949   -377190.98947         0.00041  20266492.02147  20266488.83249
  -1777417.06748  -1384998.33346         0.00041  21993816.86846  21993811.85448
  -1152603.12249   -898131.49146         0.00041  21452140.76646  21452136.02249
  -2762154.31448  -2152326.35446         0.00041  22475425.48046  22475421.83548
   -762892.67348   -594460.05344         0.00041  24105833.00344  24105823.81948
    473405.09249    368888.00147         0.00041  20700905.89247  20700902.39849
 02 07 01 15 56 30.0000000  0  6 06 15 17 18 22 23
   -493344.15349   -384423.16947         0.00041  20264725.68947  20264722.43149
  -1832193.30748  -1427681.09046         0.00041  21983393.58346  21983388.57948
  -1188869.00849   -926390.61646         0.00041  21445239.58046  21445234.68349
  -2853767.55248  -2223713.24846         0.00041  22457991.23446  22457987.81548
   -818541.22348   -637822.50944         0.00041  24095244.50244  24095233.82948
    496254.20049    386692.49447         0.00041  20705254.01647  20705250.40649
 02 07 01 15 57 00.0000000  0  6 06 15 17 18 22 23
   -502209.42149   -391331.17647         0.00041  20263038.88047  20263035.71049
  -1886806.14848  -1470236.52946         0.00041  21973000.93846  21972996.05448
  -1224985.21649   -954533.11046         0.00041  21438366.90346  21438361.98149
  -2945097.32948  -2294879.26046         0.00041  22440611.21146  22440607.32448
   -873731.12848   -680827.61244         0.00041  24084741.34044  24084731.65948
    519566.21949    404857.69447         0.00041  20709689.95147  20709686.50749
 02 07 01 15 57 30.0000000  0  6 06 15 17 18 22 23
   -510551.01549   -397831.12947         0.00041  20261451.58647  20261448.42549
  -1941149.58148  -1512582.04246         0.00041  21962660.06346  21962654.62348
  -1260845.61049   -982476.26746         0.00041  21431542.60646  21431538.01549
  -3036035.26948  -2365739.94646         0.00041  22423306.76846  22423302.59748
   -928354.27448   -723392.04645         0.00041  24074342.24245  24074337.17348
    543446.10849    423465.39347         0.00041  20714234.17747  20714230.65249
 02 07 01 15 58 00.0000000  0  7 06 15 17 18 21 22 23
   -518351.61949   -403909.53047         0.00041  20259967.09947  20259963.87849
  -1995207.96048  -1554705.44046         0.00041  21952372.67146  21952367.42748
  -1296434.66149  -1010207.98446         0.00041  21424770.33146  21424765.71449
  -3126563.63148  -2436281.48046         0.00041  22406080.65646  22406076.34248
        -0.92058         0.00051         0.00051         0.00051  25172813.91058
   -982393.34648   -765498.62145         0.00041  24064057.94945  24064052.77848
    567908.34149    442526.86647         0.00041  20718889.45447  20718885.78849
 02 07 01 15 58 30.0000000  0  7 06 15 17 18 21 22 23
   -525668.62249   -409611.09947         0.00041  20258574.72147  20258571.54349
  -2049039.88748  -1596652.37246         0.00041  21942129.26446  21942123.63548
  -1331811.49549  -1037774.33646         0.00041  21418038.17946  21418033.67549
  -3216739.53448  -2506548.37546         0.00041  22388920.08546  22388916.27348
    -96578.28448         0.00041         0.00041         0.00041  25154435.60148
  -1035905.32348         0.00041         0.00041         0.00041  24053871.46148
    592892.71249    461995.20047         0.00041  20723643.80347  20723640.26749
 02 07 01 15 59 00.0000000  0  6 06 15 17 18 22 23
   -532595.17549   -415008.42047         0.00041  20257256.73247  20257253.51249
  -2102739.81148  -1638496.45746         0.00041  21931909.96546  21931904.87548
  -1367070.60949  -1065248.96246         0.00041  21411328.50946  21411324.00249
  -3306655.35448  -2576612.60646         0.00041  22371809.54446  22371805.62448
  -1088983.15848   -848554.18244         0.00041  24043782.07644  24043771.65148
    618303.12049    481795.51447         0.00041  20728479.06847  20728475.58849
 02 07 01 15 59 30.0000000  0  6 06 15 17 18 22 23
   -539059.67849   -420045.69947         0.00041  20256026.53847  20256023.19949
  -2156237.30848  -1680182.80446         0.00041  21921730.76046  21921724.79648
  -1402141.98149  -1092577.29146         0.00041  21404654.66746  21404650.27549
  -3396238.78448  -2646417.82646         0.00041  22354762.14946  22354758.36648
  -1141554.97148   -889519.19444         0.00041  24033775.63144  24033768.33248
    644208.47149    501981.49747         0.00041  20733408.55547  20733405.22449
 02 07 01 16 00 00.0000000  0  7 06 15 17 18 21 22 23
   -545044.79449   -424709.42947         0.00041  20254887.60847  20254884.24549
  -2209516.92548  -1721699.37246         0.00041  21911591.23646  21911585.87448
  -1437010.10249  -1119747.24446         0.00041  21398019.92246  21398014.94949
  -3485472.48249  -2715950.53146         0.00041  22337781.77946  22337777.91549
        -0.36958         0.00051         0.00051         0.00051  25099421.36358
  -1193603.48348   -930076.50344         0.00041  24023867.54844  24023863.69648
    670622.94749    522564.19947         0.00041  20738435.17847  20738431.78749
 02 07 01 16 00 30.0000000  0  7 06 15 17 18 21 22 23
   -550636.44849   -429066.56847         0.00041  20253823.52147  20253820.34649
  -2262665.92948  -1763114.16646         0.00041  21901476.98346  21901472.00348
  -1471762.27849  -1146826.85246         0.00041  21391406.46346  21391402.21549
  -3574441.67249  -2785277.12546         0.00041  22320851.29246  22320848.13649
    -96144.99148         0.00041         0.00041         0.00041  25081126.11348
  -1245214.21848   -970292.62844         0.00041  24014047.47544  24014041.44848
    697457.84449    543474.50547         0.00041  20743541.73847  20743538.30749
 02 07 01 16 01 00.0000000  0  7 06 15 17 18 21 22 23
   -555848.57049   -433127.96647         0.00041  20252831.73147  20252828.46249
  -2315699.40449  -1804438.93046         0.00041  21891385.72846  21891380.38549
  -1506414.00349  -1173828.18446         0.00041  21384812.59546  21384808.46249
  -3663159.63949  -2854407.95646         0.00041  22303969.11246  22303965.86349
   -192232.25548         0.00041         0.00041         0.00041  25062843.75948
  -1296400.88748  -1010178.30344         0.00041  24004310.62544  24004300.44848
    724696.61049    564699.51447         0.00041  20748725.20847  20748721.78249
 02 07 01 16 01 30.0000000  0  7 06 15 17 18 21 22 23
   -560657.32549   -436875.05247         0.00041  20251916.56547  20251913.39049
  -2368594.85749  -1845656.15146         0.00041  21881319.46646  21881314.71449
  -1540942.88449  -1200733.79446         0.00041  21378241.86346  21378237.53649
  -3751601.80349  -2923323.88546         0.00041  22287138.80846  22287135.24549
   -288237.84548         0.00041         0.00041         0.00041  25044573.15648
  -1347139.43448  -1049714.78844         0.00041  23994657.12944  23994645.95948
    752360.00649    586255.40247         0.00041  20753989.43447  20753985.90849
 02 07 01 16 02 00.0000000  0  7 06 15 17 18 21 22 23
   -565022.67749   -440276.63147         0.00041  20251085.98147  20251082.80249
  -2421313.40949  -1886735.52146         0.00041  21871287.57746  21871282.67949
  -1575310.38949  -1227513.66346         0.00041  21371701.93746  21371697.48349
  -3839727.67949  -2991993.35246         0.00041  22270368.30946  22270364.78149
   -384122.06348   -299314.38941         0.00041         0.00041  25026325.61448
  -1397389.59348  -1088870.73044         0.00041  23985089.46644  23985083.10148
    780485.23749    608171.16247         0.00041  20759341.30147  20759337.90649
 02 07 01 16 02 30.0000000  0  7 06 15 17 18 21 22 23
   -568908.43049   -443304.49647         0.00041  20250346.56347  20250343.41549
  -2473820.39449  -1927650.03146         0.00041  21861295.51146  21861290.78649
  -1609481.67049  -1254140.63046         0.00041  21365199.33346  21365195.05449
  -3927500.57349  -3060387.77346         0.00041  22253666.64646  22253662.90649
   -479847.76048         0.00041         0.00041         0.00041  25008109.41548
  -1447114.93848  -1127617.66544         0.00041  23975625.95544  23975620.83848
    809105.67349    630472.79447         0.00041  20764787.60447  20764784.21249
 02 07 01 16 03 00.0000000  0  7 06 15 17 18 21 22 23
   -572341.58949   -445979.69047         0.00041  20249693.25947  20249690.12249
  -2526144.28349  -1968421.86946         0.00041  21851338.75346  21851333.75249
  -1643485.34549  -1280636.99446         0.00041  21358728.81046  21358724.25349
  -4014947.25549  -3128528.00546         0.00041  22237025.51946  22237022.19249
   -575441.59748         0.00041         0.00041         0.00041  24989917.83248
  -1496342.39048  -1165976.65844         0.00041  23966260.91444  23966252.72348
    838191.43549    653137.01347         0.00041  20770322.58147  20770319.01949
 02 07 01 16 03 30.0000000  0  7 06 15 17 18 21 22 23
   -575326.10949   -448305.29347         0.00041  20249125.30947  20249122.13249
  -2578290.09648  -2009054.94546         0.00041  21841415.67946  21841410.56848
  -1677326.92349  -1307007.05346         0.00041  21352289.24746  21352284.36849
  -4102070.87849  -3196416.49146         0.00041  22220446.69046  22220442.95849
   -670907.01248   -522783.03241         0.00041         0.00041  24971751.38748
  -1545075.76048  -1203950.64644         0.00041  23956986.90944  23956978.47048
    867735.72049    676158.52747         0.00041  20775944.64747  20775941.21549
 02 07 01 16 04 00.0000000  0  7 06 15 17 18 21 22 23
   -577864.94749   -450283.61147         0.00041  20248642.24047  20248639.05949
  -2630262.21048  -2049552.67046         0.00041  21831526.67546  21831520.75448
  -1711010.65949  -1333254.11246         0.00041  21345879.40546  21345874.38249
  -4188873.95349  -3264055.21146         0.00041  22203928.48746  22203925.08549
   -766246.72848   -597073.78541         0.00041         0.00041  24953607.93148
  -1593317.76148  -1241541.75144         0.00041  23947804.97744  23947799.35848
    897732.72649    699532.80847         0.00041  20781652.99347  20781649.32349
 02 07 01 16 04 30.0000000  0  7 06 15 17 18 21 22 23
   -579914.49849   -451880.67047         0.00041  20248252.29547  20248249.10449
  -2682018.28748  -2089882.06046         0.00041  21821677.79446  21821671.87248
  -1744494.47049  -1359345.38746         0.00041  21339507.59046  21339502.74049
  -4275312.25449  -3331409.68246         0.00041  22187479.65946  22187476.16149
   -861416.48548         0.00041         0.00041         0.00041  24935497.90048
  -1641024.76148  -1278716.02044         0.00041  23938727.78444  23938721.19148
    928222.96949    723291.42847         0.00041  20787454.89747  20787451.38049
 02 07 01 16 05 00.0000000  0  7 06 15 17 18 21 22 23
   -581510.52449   -453124.33447         0.00041  20247948.51647  20247945.33049
  -2733595.23749  -2130071.87246         0.00041  21811862.74246  21811857.07149
  -1777815.42649  -1385309.75546         0.00041  21333166.90946  21333162.41749
  -4361421.04949  -3398507.40146         0.00041  22171093.89246  22171090.24149
   -956451.44948   -745285.22144         0.00041  24917424.55244  24917414.12648
  -1688232.22248  -1315501.05144         0.00041  23929745.27544  23929737.08448
    959167.98949    747404.42147         0.00041  20793343.70047  20793340.24249
 02 07 01 16 05 30.0000000  0  7 06 15 17 18 21 22 23
   -582686.51949   -454040.69947         0.00041  20247724.67547  20247721.45549
  -2785027.68349  -2170149.08246         0.00041  21802075.38546  21802069.98749
  -1811008.44449  -1411174.43446         0.00041  21326850.51846  21326845.81349
  -4447233.10249  -3465373.89746         0.00041  22154764.31446  22154760.77949
  -1051384.39148   -819258.96744         0.00041  24899358.88844  24899348.46348
  -1734973.38548  -1351922.59844         0.00041  23920846.50944  23920841.45948
    990531.48149    771843.49747         0.00041  20799311.95447  20799308.48049
 02 07 01 16 06 00.0000000  0  7 06 15 17 18 21 22 23
   -583403.85749   -454599.67247         0.00041  20247588.17547  20247584.99549
  -2836278.22949  -2210084.54746         0.00041  21792321.88146  21792317.26049
  -1844036.14249  -1436910.29446         0.00041  21320565.46646  21320560.36049
  -4532708.99549  -3531978.44546         0.00041  22138497.97846  22138494.64249
  -1146177.00248         0.00041         0.00041         0.00041  24881310.43048
  -1781209.62448  -1387950.80844         0.00041  23912049.92144  23912043.81948
   1022349.03949    796636.39747         0.00041  20805366.68147  20805363.20049
 02 07 01 16 06 30.0000000  0  7 06 15 17 18 21 22 23
   -583616.84949   -454765.64947         0.00041  20247547.73547  20247544.57149
  -2887302.68549  -2249843.84646         0.00041  21782612.72346  21782607.40649
  -1876854.29949  -1462482.88146         0.00041  21314320.32746  21314315.31349
  -4617802.84949  -3598285.30146         0.00041  22122305.13146  22122302.04749
  -1240782.91848   -966842.26044         0.00041  24863317.09944  24863307.91548
  -1826894.91748  -1423549.70044         0.00041  23903358.18344  23903350.99048
   1054663.49149    821816.48147         0.00041  20811516.11147  20811512.54849
 02 07 01 16 07 00.0000000  0  7 06 15 17 18 21 22 23
   -583501.50349   -454675.77547         0.00041  20247569.68647  20247566.36049
  -2938277.99949  -2289564.85946         0.00041  21772912.44246  21772907.34549
  -1909640.24349  -1488030.36246         0.00041  21308081.38446  21308076.67049
  -4702689.97449  -3664431.07446         0.00041  22106152.56546  22106149.00549
  -1335377.43148  -1040552.25244         0.00041  24845317.54544  24845308.11348
  -1872205.33448  -1458856.50145         0.00041  23894736.42545  23894729.01848
   1087296.05449    847244.44347         0.00041  20817725.68747  20817722.15249
 02 07 01 16 07 30.0000000  0  7 06 15 17 18 21 22 23
   -582996.75149   -454282.46847         0.00041  20247665.75047  20247662.53849
  -2989144.51549  -2329201.08446         0.00041  21763233.02446  21763227.92449
  -1942334.26449  -1513506.21646         0.00041  21301860.02246  21301854.99049
  -4787308.75249  -3730367.74646         0.00041  22090050.28146  22090046.25949
  -1429898.89248  -1114205.32644         0.00041  24827331.52944  24827320.36048
  -1917079.54848  -1493823.42945         0.00041  23886196.06645  23886189.51348
   1120304.90349    872965.61347         0.00041  20824007.01547  20824003.49049
 02 07 01 16 08 00.0000000  0  7 06 15 17 18 21 22 23
   -581968.55949   -453481.28847         0.00041  20247861.48447  20247858.39649
  -3039769.50149  -2368649.10846         0.00041  21753599.08546  21753593.98549
  -1974803.52249  -1538806.93546         0.00041  21295681.05746  21295676.15549
  -4871524.55049  -3795990.41546         0.00041  22074024.14446  22074020.47449
  -1524213.48748         0.00041         0.00041         0.00041  24809372.90848
  -1961383.44248  -1528345.92344         0.00041  23877765.28644  23877758.25748
   1153821.30149    899082.27847         0.00041  20830385.10347  20830381.73449
 02 07 01 16 08 30.0000000  0  7 06 15 17 18 21 22 23
   -580495.67849   -452333.60247         0.00041  20248141.66847  20248138.52249
  -3090232.51049  -2407970.91346         0.00041  21743996.45546  21743991.25649
  -2007128.22249  -1563995.01246         0.00041  21289530.09346  21289525.39649
  -4955415.73349  -3861360.13346         0.00041  22058059.72646  22058056.32949
  -1618399.52148  -1261088.98944         0.00041  24791459.37144  24791449.93948
  -2005195.71148  -1562485.33944         0.00041  23869429.23744  23869420.54948
   1187763.62149    925530.83047         0.00041  20836844.16147  20836840.43449
 02 07 01 16 09 00.0000000  0  7 06 15 17 18 21 22 23
   -578636.98549   -450885.27947         0.00041  20248495.36147  20248492.19149
  -3140593.61549  -2447213.30946         0.00041  21734412.61946  21734407.89649
  -2039368.35749  -1589117.18846         0.00041  21283394.75046  21283390.23249
  -5039040.30049  -3926522.10046         0.00041  22042146.66846  22042143.15849
  -1712514.92648  -1334425.66744         0.00041  24773549.29744  24773540.60948
  -2048574.93948  -1596287.24845         0.00041  23861173.22045  23861165.80648
   1222070.24749    952263.25647         0.00041  20843372.32647  20843368.77649
 02 07 01 16 09 30.0000000  0  7 06 15 17 18 21 22 23
   -576341.58449   -449096.66347         0.00041  20248932.19647  20248928.98949
  -3190803.20149  -2486337.63946         0.00041  21724858.03846  21724852.80049
  -2071474.42349  -1614134.89446         0.00041  21277285.05046  21277280.45349
  -5122347.05349  -3991436.41546         0.00041  22026294.01546  22026290.87749
  -1806508.32748         0.00041         0.00041         0.00041  24755653.86848
  -2091470.42948  -1629712.25345         0.00041  23853011.67245  23853004.08448
   1256788.98349    979316.80747         0.00041  20849979.28647  20849975.71749
 02 07 01 16 10 00.0000000  0  7 06 15 17 18 21 22 23
   -573562.92649   -446931.48247         0.00041  20249460.96147  20249457.65149
  -3240815.60649  -2525308.32846         0.00041  21715341.55946  21715335.64549
  -2103401.10149  -1639012.81346         0.00041  21271209.29046  21271205.29949
  -5205288.82049  -4056066.32346         0.00041  22010510.46646  22010507.05049
  -1900332.40648  -1480776.93744         0.00041  24737810.25644  24737799.83148
  -2133835.37848  -1662723.85445         0.00041  23844950.13645  23844943.15848
   1291963.60349   1006725.59547         0.00041  20856672.83647  20856669.15749
 02 07 01 16 10 30.0000000  0  7 06 15 17 18 21 22 23
   -570224.83949   -444330.38447         0.00041  20250096.23147  20250092.97649
  -3290555.90349  -2564066.97946         0.00041  21705876.27446  21705871.07549
  -2135073.45149  -1663692.55446         0.00041  21265182.72646  21265178.37249
  -5287788.88349  -4120352.04446         0.00041  21994810.88146  21994807.39749
  -1993910.72848  -1553695.15244         0.00041  24719999.16444  24719992.26648
  -2175593.70648  -1695262.77045         0.00041  23837003.87245  23836996.53548
   1327667.45549   1034546.77047         0.00041  20863466.96347  20863463.26749
 02 07 01 16 11 00.0000000  0  7 06 15 17 18 21 22 23
   -566307.47449   -441277.90147         0.00041  20250841.61547  20250838.38649
  -3340005.36349  -2602599.00146         0.00041  21696466.29046  21696461.08649
  -2166472.76049  -1688159.53846         0.00041  21259207.56346  21259202.89949
  -5369826.80349  -4184277.65246         0.00041  21979200.23946  21979196.75349
  -2087222.96648  -1626405.92744         0.00041  24702246.31444  24702236.88248
  -2216725.29448  -1727313.32045         0.00041  23829178.24745  23829169.06448
   1363917.37049   1062793.44847         0.00041  20870365.13947  20870361.32749
 02 07 01 16 11 30.0000000  0  7 06 15 17 18 21 22 23
   -561955.15949   -437886.49747         0.00041  20251669.84647  20251666.49349
  -3389309.29649  -2641017.62446         0.00041  21687083.73846  21687078.48849
  -2197744.49049  -1712527.10946         0.00041  21253256.82546  21253251.97949
  -5451546.22249  -4247955.08446         0.00041  21963649.81246  21963646.31649
  -2180413.04548  -1699021.56144         0.00041  24684511.98744  24684501.81148
  -2257374.55848  -1758988.02345         0.00041  23821443.74445  23821432.57448
   1400566.20449   1091350.97347         0.00041  20877339.20847  20877335.63049
 02 07 01 16 12 00.0000000  0  7 06 15 17 18 21 22 23
   -557311.90449   -434268.38847         0.00041  20252553.59947  20252550.17149
  -3438612.51149  -2679435.69746         0.00041  21677702.16946  21677696.29149
  -2229033.73149  -1736908.32446         0.00041  21247302.46046  21247298.08449
  -5533090.46749  -4311496.02146         0.00041  21948131.87146  21948128.21449
  -2273624.28148  -1771653.67344         0.00041  24666774.40444  24666764.22748
  -2297684.95148  -1790398.63245         0.00041  23813772.40445  23813761.73148
   1437467.47149   1120105.20647         0.00041  20884361.11747  20884357.69749
 02 07 01 16 12 30.0000000  0  7 06 15 17 18 21 22 23
   -552229.70249   -430308.24547         0.00041  20253520.54847  20253517.36349
  -3487768.06749  -2717738.70546         0.00041  21668347.51446  21668342.61749
  -2260193.64949  -1761188.76146         0.00041  21241372.87446  21241368.50849
  -5614310.94449  -4374784.66246         0.00041  21932675.91746  21932672.28349
  -2366707.50848  -1844185.99244         0.00041  24649061.38044  24649050.70748
  -2337508.75048  -1821430.13545         0.00041  23806194.36145  23806183.68848
   1474766.06649   1149169.04247         0.00041  20891458.76447  20891455.20049
 02 07 01 16 13 00.0000000  0  7 06 15 17 18 21 22 23
   -546711.93749   -426008.70347         0.00041  20254570.63047  20254567.34849
  -3536780.64749  -2755930.30346         0.00041  21659020.76646  21659015.66449
  -2291228.96949  -1785372.11246         0.00041  21235467.09546  21235462.51049
  -5695210.31949  -4437823.09246         0.00041  21917281.21946  21917277.58949
  -2459666.32448  -1916621.40344         0.00041  24631373.19044  24631361.77248
  -2376849.28448  -1852085.05445         0.00041  23798708.28045  23798698.10348
   1512455.71449   1178537.59347         0.00041  20898631.09747  20898627.32749
 02 07 01 16 13 30.0000000  0  7 06 15 17 18 21 22 23
   -540758.95949   -421370.03347         0.00041  20255703.38947  20255700.19849
  -3585651.50049  -2794011.46546         0.00041  21649721.53646  21649715.61549
  -2322140.99649  -1809459.39246         0.00041  21229584.88346  21229580.27349
  -5775788.76649  -4500611.44746         0.00041  21901948.06646  21901944.47749
  -2552500.39348  -1988959.56644         0.00041  24613706.70944  24613695.04348
  -2415706.88448  -1882363.68045         0.00041  23791312.77545  23791303.59248
   1550533.30249   1208208.43847         0.00041  20905877.02347  20905873.17749
 02 07 01 16 14 00.0000000  0  7 06 15 17 18 21 22 23
   -534330.28849   -416360.69147         0.00041  20256926.71947  20256923.53549
  -3634341.10949  -2831951.40246         0.00041  21640455.83046  21640450.48849
  -2352890.39349  -1833419.95046         0.00041  21223733.35946  21223728.97249
  -5856004.89949  -4563117.48746         0.00041  21886683.45146  21886679.68649
  -2645168.28848  -2061168.23144         0.00041  24596072.05544  24596061.87848
  -2454040.81548  -1912234.26945         0.00041  23784016.79445  23784008.35448
   1589036.65849   1238211.04947         0.00041  20913203.65547  20913200.09349
 02 07 01 16 14 30.0000000  0  7 06 15 17 18 21 22 23
   -527398.34749   -410959.19047         0.00041  20258245.93847  20258242.70349
  -3682822.77649  -2869729.30246         0.00041  21631229.85046  21631225.07349
  -2383450.31749  -1857232.86546         0.00041  21217918.01046  21217913.62949
  -5935830.30149  -4625319.06146         0.00041  21871492.88146  21871488.98049
  -2737642.17448  -2133225.71744         0.00041  24578473.28944  24578465.41848
  -2491823.43648  -1941675.23845         0.00041  23776827.92945  23776817.25648
   1627990.65449   1268564.80847         0.00041  20920616.76247  20920613.18849
 02 07 01 16 15 00.0000000  0  7 06 15 17 18 21 22 23
   -519995.32349   -405190.61047         0.00041  20259654.69547  20259651.48349
  -3731129.45549  -2907370.84546         0.00041  21622037.33446  21622032.48549
  -2413854.23449  -1880924.21546         0.00041  21212132.53146  21212127.98049
  -6015296.81249  -4687240.97146         0.00041  21856370.74546  21856367.33849
  -2829953.45248  -2205156.48444         0.00041  24560907.20544  24560900.22448
  -2529086.93148  -1970711.63845         0.00041  23769737.95845  23769726.29248
   1667360.15149   1299242.33547         0.00041  20928108.44847  20928104.87249
 02 07 01 16 15 30.0000000  0  7 06 15 17 18 21 22 23
   -512094.54249   -399034.16647         0.00041  20261158.25247  20261155.11849
  -3779235.69749  -2944856.20446         0.00041  21612883.23946  21612877.90949
  -2444076.61449  -1904474.11346         0.00041  21206381.37246  21206376.86549
  -6094377.14449  -4748861.96846         0.00041  21841322.30846  21841319.12549
  -2922074.83948  -2276939.24344         0.00041  24543378.32644  24543370.13548
  -2565804.80148  -1999322.97245         0.00041  23762749.10145  23762739.42148
   1707168.88849   1330262.12647         0.00041  20935683.47347  20935680.09149
 02 07 01 16 16 00.0000000  0  7 06 15 17 18 21 22 23
   -503734.14949   -392519.58447         0.00041  20262749.11847  20262745.96049
  -3827180.47749  -2982215.75146         0.00041  21603759.25946  21603754.46149
  -2474156.50649  -1927912.98346         0.00041  21200657.58946  21200652.80549
  -6173108.69349  -4810211.18546         0.00041  21826340.25646  21826337.00449
  -3014044.33748  -2348603.68844         0.00041  24525875.40144  24525868.61548
  -2602015.00748  -2027538.68345         0.00041  23755859.33645  23755849.40848
   1747375.94149   1361592.29247         0.00041  20943334.87247  20943331.42349
 02 07 01 16 16 30.0000000  0  7 06 15 17 18 21 22 23
   -494878.82249   -385619.34247         0.00041  20264434.17947  20264430.99849
  -3874929.23749  -3019422.54846         0.00041  21594673.09346  21594668.36349
  -2504059.39449  -1951213.92846         0.00041  21194967.12146  21194962.35649
  -6251455.50549  -4871260.61046         0.00041  21811431.38746  21811427.86649
  -3105825.67848  -2420121.48544         0.00041  24508412.25944  24508402.33148
  -2637682.22848  -2055331.29645         0.00041  23749071.31745  23749061.63748
   1788014.03549   1393258.33447         0.00041  20951067.87747  20951064.50149
 02 07 01 16 17 00.0000000  0  7 06 15 17 18 21 22 23
   -485538.42849   -378341.12447         0.00041  20266211.59547  20266208.38149
  -3922492.62749  -3056484.90446         0.00041  21585622.22246  21585617.16949
  -2533796.37149  -1974385.59046         0.00041  21189308.24446  21189303.67749
  -6329427.13249  -4932017.68546         0.00041  21796593.53046  21796589.90549
  -3197428.38048  -2491500.08544         0.00041  24490979.40644  24490970.22248
  -2672816.32748  -2082708.48345         0.00041  23742384.37845  23742376.18748
   1829070.30049   1425250.22147         0.00041  20958880.66847  20958877.01049
 02 07 01 16 17 30.0000000  0  7 06 15 17 18 21 22 23
   -475739.74749   -370705.79947         0.00041  20268076.32047  20268073.13749
  -3969898.52449  -3093424.54446         0.00041  21576600.70146  21576596.24149
  -2563395.11649  -1997449.53646         0.00041  21183675.90346  21183671.21949
  -6407049.56749  -4992502.66546         0.00041  21781822.55746  21781819.27849
  -3288878.18448  -2562759.54245         0.00041  24473576.42845  24473568.62748
  -2707444.08648  -2109691.14245         0.00041  23735794.34345  23735787.05448
   1870515.17249   1457544.91647         0.00041  20966767.51347  20966763.95249
 02 07 01 16 18 00.0000000  0  7 06 15 17 18 21 22 23
   -465473.46249   -362706.10747         0.00041  20270029.96947  20270026.78549
  -4017138.30949  -3130234.74246         0.00041  21567611.63846  21567606.92849
  -2592847.19849  -2020399.20146         0.00041  21178071.16446  21178066.63849
  -6484312.86349  -5052707.79946         0.00041  21767120.20446  21767116.98049
  -3380164.78648  -2633891.82044         0.00041  24456206.95244  24456196.77548
  -2741556.13548  -2136271.94244         0.00041  23729302.50944  23729295.60648
   1912355.32049   1490147.61547         0.00041  20974729.32447  20974725.87949
 02 07 01 16 18 30.0000000  0  7 06 15 17 18 21 22 23
   -454745.10649   -354346.36047         0.00041  20272071.43647  20272068.24449
  -4064218.30849  -3166920.43146         0.00041  21558652.48446  21558647.92649
  -2622159.12549  -2043239.65146         0.00041  21172493.29246  21172488.72549
  -6561221.82049  -5112636.82246         0.00041  21752484.65446  21752481.37849
  -3471293.82948  -2704901.30044         0.00041  24438863.27944  24438856.10348
  -2775158.09348  -2162455.25344         0.00041  23722909.78244  23722901.09448
   1954582.43249   1523051.84347         0.00041  20982764.97247  20982761.29249
 02 07 01 16 19 00.0000000  0  7 06 15 17 18 21 22 23
   -443532.45649   -345609.24347         0.00041  20274205.17547  20274201.83549
  -4111117.02849  -3203464.86846         0.00041  21549728.08546  21549723.13449
  -2651309.49449  -2065954.21046         0.00041  21166946.02346  21166941.62149
  -6637753.46049  -5172271.83246         0.00041  21737920.97146  21737917.49549
  -3562242.27548  -2775770.07544         0.00041  24421556.55044  24421547.86248
  -2808227.60648  -2188223.68744         0.00041  23716616.01344  23716609.38548
   1997216.08149   1556272.84947         0.00041  20990878.06947  20990874.32249
 02 07 01 16 19 30.0000000  0  7 06 15 17 18 21 22 23
   -431844.59449   -336501.82747         0.00041  20276429.22747  20276425.93549
  -4157844.25849  -3239875.68046         0.00041  21540836.02046  21540831.11049
  -2680307.94949  -2088550.39846         0.00041  21161427.76846  21161423.35449
  -6713916.12149  -5231619.32246         0.00041  21723427.78246  21723424.26249
  -3653017.92948  -2846504.20145         0.00041  24404283.64445  24404274.21248
  -2840773.66748  -2213584.21145         0.00041  23710422.96745  23710417.09948
   2040244.50749   1589801.47547         0.00041  20999066.02247  20999062.38749
 02 07 01 16 20 00.0000000  0  7 06 15 17 18 21 22 23
   -419669.82549   -327014.99947         0.00041  20278746.24647  20278742.89949
  -4204389.24749  -3276144.48746         0.00041  21531978.94746  21531974.09849
  -2709143.93049  -2111019.98546         0.00041  21155940.60646  21155935.71549
  -6789697.64449  -5290669.81546         0.00041  21709007.07946  21709003.80649
  -3743608.75048  -2917094.30545         0.00041  24387045.76345  24387035.33848
  -2872784.76248  -2238527.90045         0.00041  23704329.42345  23704325.80848
   2083676.57549   1623644.63147         0.00041  21007330.84047  21007327.30749
 02 07 01 16 20 30.0000000  0  7 06 15 17 18 21 22 23
   -406993.52149   -317137.36847         0.00041  20281158.40547  20281155.17249
  -4250737.95349  -3312260.33846         0.00041  21523159.02146  21523154.32549
  -2737803.70049  -2133352.26546         0.00041  21150486.98346  21150481.97349
  -6865082.86549  -5349411.50946         0.00041  21694662.04146  21694658.87849
  -3833999.73848  -2987528.67245         0.00041  24369844.03545  24369834.35448
  -2904246.41948  -2263043.42945         0.00041  23698342.36145  23698338.75348
   2127524.17349   1657811.57747         0.00041  21015674.84247  21015671.24549
 02 07 01 16 21 00.0000000  0  7 06 15 17 18 21 22 23
   -393813.02449   -306866.85947         0.00041  20283666.61947  20283663.40349
  -4296888.50649  -3348221.79446         0.00041  21514376.86046  21514371.96549
  -2766285.32949  -2155545.73346         0.00041  21145066.99546  21145062.33249
  -6940068.12049  -5407841.54246         0.00041  21680392.38746  21680389.21749
  -3924187.27448  -3057804.53945         0.00041  24352682.89645  24352671.72648
  -2935155.85248  -2287128.64844         0.00041  23692461.81744  23692455.52448
   2171787.29549   1692302.30447         0.00041  21024097.94247  21024094.20649
 02 07 01 16 21 30.0000000  0  7 06 15 17 18 21 22 23
   -380151.28349   -296221.35447         0.00041  20286266.37947  20286263.18249
  -4342864.75549  -3384047.43046         0.00041  21505627.91146  21505623.00449
  -2794612.59849  -2177618.91746         0.00041  21139676.30846  21139671.90449
  -7014676.09249  -5465977.59246         0.00041  21666194.80746  21666191.46949
  -4014193.31148  -3127938.95744         0.00041  24335552.75244  24335543.81648
  -2965536.10748  -2310801.52944         0.00041  23686677.00544  23686673.78148
   2216440.00049   1727096.60147         0.00041  21032595.28547  21032591.56749
 02 07 01 16 22 00.0000000  0  7 06 15 17 18 21 22 23
   -366017.51149   -285208.03747         0.00041  20288955.94547  20288952.75849
  -4388676.37349  -3419744.77846         0.00041  21496910.00546  21496905.37149
  -2822795.51249  -2199579.61846         0.00041  21134313.47446  21134308.89249
  -7088915.31049  -5523826.30446         0.00041  21652067.59746  21652064.37849
  -4104026.79048  -3197938.91244         0.00041  24318456.93444  24318449.92048
  -2995396.47248  -2334069.37344         0.00041  23680999.59844  23680991.77548
   2261470.57449   1762185.34747         0.00041  21041164.22947  21041160.72349
 02 07 01 16 22 30.0000000  0  8 06 15 17 18 21 22 23 29
   -351416.34949   -273830.52447         0.00041  20291734.41747  20291731.25449
  -4434328.62549  -3455317.94146         0.00041  21488222.79546  21488218.14349
  -2850839.21449  -2221431.83946         0.00041  21128976.86346  21128972.45849
  -7162789.59149  -5581390.64346         0.00041  21638010.00146  21638006.90049
  -4193691.78348  -3267807.55044         0.00041  24301394.01144  24301387.12448
  -3024741.56548  -2356935.70241         0.00041         0.00041  23675408.13648
   2306871.89549   1797562.98447         0.00041  21049803.66547  21049800.08549
        -0.64658         0.33556         0.00051  22585937.77156  22585933.59558
 02 07 01 16 23 00.0000000  0  8 06 15 17 18 21 22 23 29
   -336294.86149   -262047.56147         0.00041  20294611.95947  20294608.74849
  -4479769.18749  -3490726.15446         0.00041  21479575.95646  21479571.18249
  -2878691.62149  -2243135.00646         0.00041  21123676.68446  21123672.31949
  -7236245.21849  -5638628.76146         0.00041  21624031.76346  21624028.79349
  -4283134.16248  -3337502.75044         0.00041  24284373.87544  24284367.12748
  -3053518.47348         0.00041         0.00041         0.00041  23669931.58448
   2352694.04249   1833268.53547         0.00041  21058523.33747  21058519.74549
    -12091.09848     -9420.79146         0.00041  22583637.06346  22583632.94448
 02 07 01 16 23 30.0000000  0  8 06 15 17 18 21 22 23 29
   -320672.28049   -249874.13947         0.00041  20297584.99747  20297581.73049
  -4525017.95249  -3525984.91246         0.00041  21470965.51646  21470960.51749
  -2906372.65049  -2264704.62846         0.00041  21118409.32246  21118404.61349
  -7309300.85949  -5695555.19646         0.00041  21610130.06346  21610126.54449
  -4372372.65648  -3407039.03745         0.00041  24267393.98345  24267385.29648
  -3081746.49948  -2401356.39745         0.00041  23664564.15745  23664560.77648
   2398915.25949   1869285.05047         0.00041  21067318.94647  21067315.31849
    -23639.74448    -18419.69246         0.00041  22581439.19346  22581435.02348
 02 07 01 16 24 00.0000000  0  8 06 15 17 18 21 22 23 29
   -304564.60249   -237322.72047         0.00041  20300650.03847  20300646.82049
  -4570091.48949  -3561107.13146         0.00041  21462388.08946  21462383.12649
  -2933898.95149  -2286153.68946         0.00041  21113171.15146  21113166.48449
  -7381971.72749  -5752181.80646         0.00041  21596300.93846  21596297.41049
  -4461422.74348  -3476428.54345         0.00041  24250447.11445  24250439.79748
  -3109441.69948  -2422940.23046         0.00041  23659295.21246  23659290.52648
   2445516.89049   1905597.99447         0.00041  21076187.07847  21076183.28549
    -34662.40448    -27008.75046         0.00041  22579341.22446  22579337.33548
 02 07 01 16 24 30.0000000  0  8 06 15 17 18 21 22 23 29
   -287986.54049   -224404.76747         0.00041  20303804.83347  20303801.55549
  -4615004.93949  -3596104.60246         0.00041  21453841.30446  21453836.48349
  -2961285.78049  -2307494.06046         0.00041  21107959.45646  21107955.12149
  -7454271.78849  -5808519.48046         0.00041  21582542.63646  21582539.29849
  -4550297.95748  -3545681.76444         0.00041  24233534.79144  24233526.60048
  -3136618.65748  -2444113.44144         0.00041  23654122.10044  23654119.03748
   2492481.63649   1942193.88647         0.00041  21085124.32647  21085120.60649
    -45172.99148    -35198.78846         0.00041  22577340.77546  22577337.71248
 02 07 01 16 25 00.0000000  0  8 06 15 17 18 21 22 23 29
   -270955.00849   -211133.46447         0.00041  20307045.84847  20307042.62149
  -4659775.92249  -3630991.05546         0.00041  21445322.03746  21445316.70749
  -2988550.67849  -2328739.42346         0.00041  21102771.22946  21102766.84149
  -7526217.23849  -5864580.83646         0.00041  21568851.67346  21568848.52149
  -4639014.45848  -3614811.33144         0.00041  24216652.17544  24216643.73548
  -3163294.53448  -2464899.91841         0.00041         0.00041  23649042.04848
   2539789.88449   1979057.43947         0.00041  21094126.74147  21094123.01249
    -55188.35948    -43002.94246         0.00041  22575435.62546  22575431.94248
 02 07 01 16 25 30.0000000  0  8 06 15 17 18 21 22 23 29
   -253452.84849   -197495.43947         0.00041  20310376.40347  20310373.24749
  -4704387.89249  -3665753.60646         0.00041  21436832.40046  21436827.14249
  -3015677.26249  -2349877.01246         0.00041  21097608.86046  21097604.68449
  -7597790.46549  -5920352.14446         0.00041  21555231.32946  21555228.12349
  -4727554.27848  -3683803.21844         0.00041  24199804.92544  24199794.99748
  -3189452.38448  -2485282.67944         0.00041  23644073.39844  23644063.71848
   2587456.12549   2016199.94947         0.00041  21103197.17647  21103193.62549
    -64690.69248    -50407.33446         0.00041  22573627.53246  22573623.17048
 02 07 01 16 26 00.0000000  0  8 06 15 17 18 21 22 23 29
   -235467.65849   -183481.02247         0.00041  20313798.75447  20313795.54149
  -4748828.81449  -3700382.87646         0.00041  21428375.58246  21428370.38749
  -3042653.47049  -2370897.42446         0.00041  21092475.96146  21092471.54249
  -7668978.15349  -5975823.03546         0.00041  21541684.83546  21541681.64049
  -4815904.37048  -3752647.30544         0.00041  24182992.70444  24182983.02348
  -3215079.57448  -2505251.92544         0.00041  23639192.88844  23639187.46448
   2635490.14549   2053629.04247         0.00041  21112337.83047  21112334.10549
    -73667.18948    -57401.98846         0.00041  22571918.99346  22571915.00948
 02 07 01 16 26 30.0000000  0  8 06 15 17 18 21 22 23 29
   -216999.93449   -169090.60547         0.00041  20317313.40547  20317309.90449
  -4793099.68549  -3734879.63646         0.00041  21419951.64046  21419945.93349
  -3069480.31149  -2391801.44846         0.00041  21087370.61946  21087366.51149
  -7739780.21149  -6030993.42946         0.00041  21528212.10746  21528208.91249
  -4904064.06848  -3821342.96044         0.00041  24166214.92744  24166207.04948
  -3240176.90048  -2524808.27944         0.00041  23634418.38344  23634412.52348
   2683888.85349   2091342.30947         0.00041  21121547.79347  21121544.01949
    -82118.00848    -63987.02246         0.00041  22570310.51646  22570307.00148
 02 07 01 16 27 00.0000000  0  8 06 15 17 18 21 22 23 29
   -198047.89249   -154322.79647         0.00041  20320919.72247  20320916.37149
  -4837198.99049  -3769242.70746         0.00041  21411559.30046  21411553.95749
  -3096156.88149  -2412588.37746         0.00041  21082294.61346  21082289.94349
  -7810193.96549  -6085861.25846         0.00041  21514812.79546  21514809.65549
  -4992030.88648  -3889888.37944         0.00041  24149473.03844  24149466.47448
  -3264742.56848  -2543950.32945         0.00041  23629744.94645  23629737.17448
   2732651.57849   2129339.22447         0.00041  21130827.14847  21130823.29849
    -90041.07848    -70160.82846         0.00041  22568802.90046  22568799.49548
 02 07 01 16 27 30.0000000  0  8 06 15 17 18 21 22 23 29
   -178618.87049   -139183.31847         0.00041  20324616.91447  20324613.72149
  -4881134.65549  -3803478.27246         0.00041  21403198.67246  21403193.57649
  -3122690.73249  -2433264.10446         0.00041  21077245.29346  21077240.54949
  -7880226.17949  -6140431.78346         0.00041  21501486.12446  21501482.85449
  -5079811.74648  -3958288.90544         0.00041  24132771.08244  24132762.89148
  -3288784.23148  -2562684.07145         0.00041  23625168.78045  23625162.09648
   2781768.17349   2167611.88447         0.00041  21140173.84747  21140170.08549
    -97443.04048    -75928.57546         0.00041  22567394.20046  22567390.78048
 02 07 01 16 28 00.0000000  0  8 06 15 17 18 21 22 23 29
   -158741.53649   -123694.50747         0.00041  20328399.50447  20328396.29849
  -4924935.94249  -3837609.12346         0.00041  21394863.21146  21394858.64949
  -3149111.16149  -2453851.44346         0.00041  21072217.43346  21072213.00749
  -7949904.84549  -6194726.81346         0.00041  21488226.32846  21488222.83749
  -5167434.52548  -4026566.26944         0.00041  24116096.88544  24116087.70148
  -3312330.30048  -2581031.63045         0.00041  23620688.76145  23620681.49848
   2831207.47949   2206136.00647         0.00041  21149581.57347  21149578.11449
   -104352.50448    -81312.55646         0.00041  22566079.87246  22566075.60948
 02 07 01 16 28 30.0000000  0  8 06 15 17 18 21 22 23 29
   -138389.67449   -107835.93547         0.00041  20332272.32947  20332269.01749
  -4968576.81549  -3871614.97846         0.00041  21386558.52446  21386554.00049
  -3175392.33349  -2474330.27046         0.00041  21067216.10746  21067211.78249
  -8019202.86349  -6248725.23146         0.00041  21475039.44446  21475036.16349
  -5254871.65448  -4094698.93344         0.00041  24099457.68344  24099449.49248
  -3335354.83248  -2598972.76945         0.00041  23616307.34845  23616299.89648
   2880993.38249   2244930.20147         0.00041  21159055.50247  21159051.85249
   -110742.47448    -86291.74046         0.00041  22564864.60646  22564859.90148
 02 07 01 16 29 00.0000000  0  8 06 15 17 18 21 22 23 29
   -117537.45749    -91587.47747         0.00041  20336240.39647  20336236.98649
  -5012031.87249  -3905476.04346         0.00041  21378289.41046  21378284.65349
  -3201508.76049  -2494680.72046         0.00041  21062246.82646  21062241.95149
  -8088093.69749  -6302406.36746         0.00041  21461930.05346  21461926.75949
  -5342096.92848  -4162666.54544         0.00041  24082862.10044  24082851.42748
  -3357831.99948  -2616487.41445         0.00041  23612029.72345  23612022.42548
   2931149.03849   2284012.51147         0.00041  21168599.88647  21168596.08749
   -116587.04648    -90845.93646         0.00041  22563751.31746  22563747.64748
 02 07 01 16 29 30.0000000  0  8 06 15 17 18 21 22 23 29
    -96216.37249    -74973.66747         0.00041  20340297.56847  20340294.29449
  -5055332.98249  -3939217.15246         0.00041  21370049.49746  21370044.79549
  -3227492.55949  -2514927.82846         0.00041  21057301.98746  21057297.38349
  -8156608.12249  -6355794.19646         0.00041  21448891.90746  21448888.65749
  -5429140.50548  -4230492.54744         0.00041  24066294.62744  24066286.43648
  -3379793.53948  -2633600.27945         0.00041  23607849.39045  23607843.12548
   2981640.49749   2323356.49047         0.00041  21178208.17447  21178204.66149
   -121917.08148    -94999.18946         0.00041  22562737.42446  22562733.52248
 02 07 01 16 30 00.0000000  0  8 06 15 17 18 21 22 23 29
    -74398.28249    -57972.58047         0.00041  20344449.57947  20344446.26049
  -5098452.55449  -3972816.80046         0.00041  21361844.04846  21361839.53949
  -3253316.12849  -2535050.07846         0.00041  21052387.71846  21052383.37949
  -8224717.39049  -6408866.31746         0.00041  21435931.33946  21435928.02649
  -5515973.83248  -4298154.74844         0.00041  24049772.71144  24049763.03048
  -3401211.68948  -2650289.68644         0.00041  23603773.66444  23603766.87848
   3032493.18149   2362981.94547         0.00041  21187885.05547  21187881.68849
   -126704.44248    -98729.59446         0.00041  22561826.72946  22561822.60348
 02 07 01 16 30 30.0000000  0  8 06 15 17 18 21 22 23 29
    -52107.52949    -40603.18647         0.00041  20348691.43047  20348688.13149
  -5141415.07449  -4006294.07246         0.00041  21353668.88846  21353663.88049
  -3279004.02249  -2555066.60846         0.00041  21047499.56946  21047495.14049
  -8292445.23649  -6461641.23246         0.00041  21423042.79046  21423039.63649
  -5602620.34848  -4365671.39044         0.00041  24033283.01944  24033274.57948
  -3422110.75248  -2666574.69444         0.00041  23599797.05944  23599789.78648
   3083680.36049   2402868.04347         0.00041  21197625.68947  21197622.17449
   -130973.14248   -102055.85246         0.00041  22561014.23446  22561009.97148
 02 07 01 16 31 00.0000000  0  8 06 15 17 18 21 22 23 29
    -29327.60849    -22852.62447         0.00041  20353026.34247  20353023.12249
  -5184204.37149  -4039636.36446         0.00041  21345526.22846  21345521.24149
  -3304540.16249  -2574964.87946         0.00041  21042640.44546  21042635.75049
  -8359774.46749  -6514105.53346         0.00041  21410230.86246  21410227.66149
  -5689062.88448  -4433029.07444         0.00041  24016834.02144  24016824.58948
  -3442474.33448  -2682442.42545         0.00041  23595922.35845  23595915.35048
   3135215.96149   2443025.63547         0.00041  21207432.63047  21207428.96149
   -134706.02348   -104964.58346         0.00041  22560303.08046  22560299.90148
 02 07 01 16 31 30.0000000  0  8 06 15 17 18 21 22 23 29
     -6053.57349     -4717.03447         0.00041  20357455.35447  20357451.96549
  -5226815.77149  -4072840.03246         0.00041  21337417.49846  21337412.61849
  -3329919.76449  -2594741.19046         0.00041  21037810.79046  21037806.19149
  -8426699.24049  -6566254.67746         0.00041  21397495.45746  21397492.43349
  -5775294.77548  -4500222.63845         0.00041  24000424.82745  24000415.39548
  -3462297.67248  -2697889.17045         0.00041  23592151.01645  23592143.18048
   3187102.54349   2483456.71447         0.00041  21217306.36847  21217302.45649
   -137898.07248   -107451.89046         0.00041  22559696.04646  22559692.57048
 02 07 01 16 32 00.0000000  0  8 06 15 17 18 21 22 23 29
     17714.35549     13803.40747         0.00041  20361978.21047  20361974.96249
  -5269249.82749  -4105905.50746         0.00041  21329342.61546  21329337.60549
  -3355143.34349  -2614395.91446         0.00041  21033011.14846  21033006.40549
  -8493219.00749  -6618088.23146         0.00041  21384837.27546  21384833.94449
  -5861316.09648  -4567252.08845         0.00041  23984055.13445  23984046.94348
  -3481581.14048  -2712915.25445         0.00041  23588482.17845  23588473.49048
   3239337.54649   2524159.29547         0.00041  21227246.22047  21227242.63949
   -140548.86048   -109517.43646         0.00041  22559191.91746  22559188.04648
 02 07 01 16 32 30.0000000  0  8 06 15 17 18 21 22 23 29
     42015.68049     32739.48147         0.00041  20366602.65547  20366599.46549
  -5311467.17149  -4138802.11846         0.00041  21321308.93546  21321303.51049
  -3380171.66449  -2633898.49246         0.00041  21028248.03546  21028243.42449
  -8559293.20749  -6669574.59446         0.00041  21372263.29146  21372260.10349
  -5947086.19448  -4634085.80845         0.00041  23967733.07445  23967724.63548
  -3500285.14748  -2727489.81145         0.00041  23584923.30645  23584914.37048
   3291958.12949   2565162.33347         0.00041  21237259.57647  21237256.05149
   -142618.56248   -111130.18746         0.00041  22558798.16746  22558794.03148
 02 07 01 16 33 00.0000000  0  8 06 15 17 18 21 22 23 29
     66899.43549     52129.39547         0.00041  20371337.79947  20371334.61549
  -5353418.91849  -4171491.77346         0.00041  21313325.56146  21313320.33849
  -3404955.91049  -2653210.88346         0.00041  21023531.78546  21023527.12949
  -8624872.39249  -6720675.23146         0.00041  21359784.24646  21359781.11149
  -6032554.98548  -4700684.76544         0.00041  23951469.03644  23951459.35648
  -3518360.99948  -2741574.87945         0.00041  23581480.50245  23581474.53548
   3345010.82149   2606502.07747         0.00041  21247355.41047  21247351.76549
   -144057.69448   -112251.58246         0.00041  22558523.82646  22558520.76748
 02 07 01 16 33 30.0000000  0  8 06 15 17 18 21 22 23 29
     92253.50349     71885.78647         0.00041  20376162.47047  20376159.17449
  -5395217.35749  -4204061.96546         0.00041  21305371.33246  21305366.31049
  -3429608.60249  -2672420.76646         0.00041  21018840.40646  21018835.91649
  -8690067.89849  -6771476.89746         0.00041  21347377.62646  21347374.58449
  -6117833.66148  -4767135.53945         0.00041  23935242.41345  23935231.73948
  -3535921.02748  -2755258.03445         0.00041  23578139.65445  23578133.31148
   3398381.13149   2648089.31147         0.00041  21257511.51847  21257507.77949
   -144978.40548   -112969.00546         0.00041  22558349.32646  22558345.11148
 02 07 01 16 34 00.0000000  0  8 06 15 17 18 21 22 23 29
    118015.95449     91960.40247         0.00041  20381064.90847  20381061.67649
  -5436924.66949  -4236561.14546         0.00041  21297434.68946  21297429.70249
  -3454191.84649  -2691576.53346         0.00041  21014162.35446  21014157.89149
  -8754940.64249  -6822027.05846         0.00041  21335032.98146  21335029.78749
  -6202983.01148  -4833485.58845         0.00041  23919035.73545  23919028.08148
  -3553027.17248  -2768587.52745         0.00041  23574886.38645  23574877.94648
   3452004.60849   2689873.82047         0.00041  21267715.68047  21267711.86249
   -145442.15948   -113330.35346         0.00041  22558260.74046  22558256.33148
 02 07 01 16 34 30.0000000  0  8 06 15 17 18 21 22 23 29
    144333.49049    112467.55247         0.00041  20386072.94347  20386069.68649
  -5478394.19649  -4268875.04346         0.00041  21289543.44046  21289538.44049
  -3478559.09249  -2710563.99246         0.00041  21009525.41346  21009520.80649
  -8819343.35749  -6872210.97046         0.00041  21322777.66046  21322774.51349
  -6287855.59448  -4899619.94145         0.00041  23902885.18545  23902876.99448
  -3569532.98948  -2781449.20345         0.00041  23571745.97445  23571736.79048
   3506025.60749   2731968.08647         0.00041  21277995.73447  21277991.79449
   -145301.87648   -113221.01846         0.00041  22558286.84446  22558283.28248
 02 07 01 16 35 00.0000000  0  8 06 15 17 18 21 22 23 29
    171123.08049    133342.53547         0.00041  20391170.80247  20391167.59449
  -5519709.40449  -4301068.69046         0.00041  21281681.37046  21281676.28949
  -3502793.56749  -2729447.99046         0.00041  21004913.55246  21004909.28049
  -8883358.35449  -6922092.76146         0.00041  21310595.86746  21310592.68549
  -6372533.77248  -4965602.82445         0.00041  23886772.42145  23886764.92248
  -3585521.81948  -2793908.01145         0.00041  23568703.16345  23568693.48348
   3560358.59649   2774305.46047         0.00041  21288334.94347  21288330.84449
   -144640.43348   -112705.60046         0.00041  22558412.86746  22558409.42248
 02 07 01 16 35 30.0000000  0  8 06 15 17 18 21 22 23 29
    198337.54949    154548.59347         0.00041  20396349.60047  20396346.38649
  -5560917.30149  -4333178.72546         0.00041  21273839.72646  21273834.66149
  -3526942.51449  -2748265.34246         0.00041  21000318.19646  21000313.95549
  -8947031.99749  -6971708.56846         0.00041  21298479.13846  21298475.91149
  -6457063.20348  -5031469.78945         0.00041  23870684.11345  23870678.89648
  -3601040.85148  -2806000.73845         0.00041  23565749.74245  23565741.05448
   3614954.30149   2816847.54747         0.00041  21298723.88747  21298719.86649
   -143504.37448   -111820.33746         0.00041  22558628.99546  22558625.41448
 02 07 01 16 36 00.0000000  0  8 06 15 17 18 21 22 23 29
    225995.36549    176100.12047         0.00041  20401612.74447  20401609.33349
  -5601999.39049  -4365190.72446         0.00041  21266021.85046  21266016.86849
  -3550987.65449  -2767001.80746         0.00041  20995742.60346  20995738.44449
  -9010345.02849  -7021043.37646         0.00041  21286431.00746  21286428.02849
  -6541424.68348  -5097205.89545         0.00041  23854633.01245  23854624.57348
  -3616071.78848  -2817713.16145         0.00041  23562889.60345  23562881.41148
   3669828.71449   2859606.80847         0.00041  21309166.09547  21309162.27849
   -141875.18448   -110550.82846         0.00041  22558939.81846  22558935.33448
 02 07 01 16 36 30.0000000  0  8 06 15 17 18 21 22 23 29
    254131.83949    198024.62047         0.00041  20406967.17347  20406963.63349
  -5642920.64549  -4397077.39846         0.00041  21258234.84246  21258230.07349
  -3574893.63649  -2785629.83946         0.00041  20991193.50146  20991189.13449
  -9073261.24749  -7070068.98046         0.00041  21274458.47246  21274455.37249
  -6625582.42648  -5162783.25945         0.00041  23838617.65545  23838610.86748
  -3630579.63348  -2829017.97245         0.00041  23560126.25345  23560120.48548
   3725014.85349   2902608.97947         0.00041  21319667.70847  21319664.23049
   -139717.16948   -108869.25346         0.00041  22559349.79346  22559346.14748
 02 07 01 16 37 00.0000000  0  8 06 15 17 18 21 22 23 29
    282750.76749    220325.06147         0.00041  20412413.02347  20412409.67349
  -5683676.88449  -4428835.48846         0.00041  21250479.30946  21250474.47249
  -3598656.65849  -2804146.47446         0.00041  20986671.64246  20986667.19949
  -9135775.94649  -7118781.71246         0.00041  21262562.30246  21262558.98449
  -6709530.64248  -5228197.31745         0.00041  23822643.85445  23822635.41448
  -3644560.54748  -2839912.20345         0.00041  23557467.18045  23557459.75948
   3780514.37749   2945855.34547         0.00041  21330229.01147  21330225.27549
   -137026.33448   -106772.48646         0.00041  22559861.35246  22559858.33748
 02 07 01 16 37 30.0000000  0  8 06 15 17 18 21 22 23 29
    311802.34249    242962.62547         0.00041  20417941.45947  20417938.12649
  -5724318.29349  -4460504.10446         0.00041  21242745.72446  21242740.63949
  -3622326.59149  -2822590.57346         0.00041  20982167.32646  20982162.98649
  -9197938.42449  -7167219.98946         0.00041  21250733.07946  21250729.68849
  -6793318.65748  -5293486.57245         0.00041  23806697.96845  23806690.48348
  -3658064.67348  -2850434.91945         0.00041  23554897.04945  23554889.80348
   3836275.17449   2989305.29847         0.00041  21340840.24247  21340836.15449
   -133852.11448   -104299.05246         0.00041  22560465.87946  22560462.19048
 02 07 01 16 38 00.0000000  0  8 06 15 17 18 21 22 23 29
    341282.81149    265934.39347         0.00041  20423551.39047  20423548.17449
  -5764848.70749  -4492086.22646         0.00041  21235032.54346  21235028.07349
  -3645907.35849  -2840965.18846         0.00041  20977680.14746  20977675.65949
  -9259751.62949  -7215386.10246         0.00041  21238970.35246  21238967.25549
  -6876949.56048  -5358653.40245         0.00041  23790784.12545  23790777.21948
  -3671096.02148  -2860589.21445         0.00041  23552419.18645  23552410.25048
   3892291.08849   3032954.04047         0.00041  21351499.77347  21351495.65249
   -130197.83148   -101451.55946         0.00041  22561161.40046  22561157.47048
 02 07 01 16 38 30.0000000  0  8 06 15 17 18 21 22 23 29
    371251.74749    289286.78347         0.00041  20429254.21247  20429250.93549
  -5805208.31049  -4523535.24446         0.00041  21227352.34146  21227347.81849
  -3669339.27449  -2859223.81546         0.00041  20973221.11846  20973216.54349
  -9321155.15049  -7263232.98246         0.00041  21227285.98046  21227282.48849
  -6960362.50748  -5423650.39945         0.00041  23774910.89145  23774903.68048
  -3683595.14348  -2870328.79445         0.00041  23550037.04945  23550031.55748
   3948619.47649   3076846.27347         0.00041  21362218.35447  21362214.43249
   -126003.83648    -98183.51446         0.00041  22561959.13446  22561955.78248
 02 07 01 16 39 00.0000000  0  8 06 15 17 18 21 22 23 29
    401746.56549    313048.95247         0.00041  20435057.32847  20435054.04249
  -5845359.68249  -4554822.00546         0.00041  21219711.57946  21219707.05149
  -3692584.86249  -2877337.25946         0.00041  20968797.56846  20968793.02249
  -9382110.44849  -7310730.59546         0.00041  21215686.34246  21215683.25149
  -7043519.15348  -5488447.68245         0.00041  23759088.16845  23759078.98448
  -3695524.83548  -2879624.66245         0.00041  23547769.05745  23547761.70548
   4005295.55749   3121009.43847         0.00041  21373003.65347  21372999.66149
   -121232.30248    -94465.42346         0.00041  22562867.00546  22562863.88948
 02 07 01 16 39 30.0000000  0  8 06 15 17 18 21 22 23 29
    432763.07449    337217.63447         0.00041  20440959.53847  20440956.26349
  -5885306.68249  -4585949.51846         0.00041  21212110.16346  21212105.50849
  -3715648.17749  -2895308.66746         0.00041  20964408.74546  20964404.42349
  -9442621.24449  -7357881.83846         0.00041  21204171.55446  21204168.22949
  -7126422.06948  -5553047.26545         0.00041  23743311.37945  23743303.67048
  -3706889.54248  -2888480.27445         0.00041  23545607.82645  23545599.38748
   4062312.92649   3165438.54347         0.00041  21383853.62347  21383849.70549
   -115887.24648    -90300.43046         0.00041  22563883.91446  22563880.80148
 02 07 01 16 40 00.0000000  0  8 06 15 17 18 21 22 23 29
    464299.62749    361791.54647         0.00041  20446960.87047  20446957.35849
  -5925051.14849  -4616919.21146         0.00041  21204547.19446  21204542.53249
  -3738530.99049  -2913139.42046         0.00041  20960054.38346  20960050.07849
  -9502688.24149  -7404687.26746         0.00041  21192740.82946  21192737.68249
  -7209071.51548  -5617449.34745         0.00041  23727582.88745  23727575.57848
  -3717691.24348  -2896897.18645         0.00041  23543550.40745  23543543.82748
   4119667.57249   3210130.45847         0.00041  21394767.84947  21394763.82149
   -109970.14748    -85689.69346         0.00041  22565010.26946  22565006.77548
 02 07 01 16 40 30.0000000  0  8 06 15 17 18 21 22 23 29
    496319.44949    386742.03547         0.00041  20453053.97947  20453050.55549
  -5964629.73249  -4647759.64746         0.00041  21197015.72946  21197011.18049
  -3761269.91149  -2930858.05546         0.00041  20955727.18346  20955723.01049
  -9562347.61149  -7451175.06346         0.00041  21181388.49446  21181385.33049
  -7291503.93848  -5681682.30545         0.00041  23711895.08345  23711889.21748
  -3727966.89148  -2904904.17645         0.00041  23541596.79845  23541589.65348
   4177320.50849   3255054.80646         0.00041  21405738.87446  21405735.02149
   -103517.41048    -80661.58746         0.00041  22566237.97546  22566234.66948
 02 07 01 16 41 00.0000000  0  8 06 15 17 18 21 22 23 29
    528801.50049    412052.70147         0.00041  20459235.18447  20459231.95649
  -6004063.17149  -4678486.97946         0.00041  21189511.75046  21189507.11549
  -3783885.95949  -2948480.94546         0.00041  20951423.59246  20951419.29649
  -9621619.53549  -7497360.95646         0.00041  21170109.05446  21170105.94149
  -7373739.63448  -5745761.97845         0.00041  23696247.63545  23696240.66748
  -3737737.68748  -2912517.80545         0.00041  23539735.23345  23539730.31748
   4235248.77749   3300193.70147         0.00041  21416762.16347  21416758.44449
    -96549.85348    -75232.32446         0.00041  22567564.27446  22567560.61348
 02 07 01 16 41 30.0000000  0  8 06 15 17 18 21 22 23 29
    561836.80949    437794.47547         0.00041  20465521.61747  20465518.22349
  -6043260.17949  -4709030.08546         0.00041  21182052.74346  21182047.94349
  -3806287.55349  -2965936.72946         0.00041  20947160.87746  20947156.50149
  -9680411.78549  -7543173.07746         0.00041  21158921.18146  21158917.97249
  -7455686.22648  -5809616.40245         0.00041  23680654.18545  23680645.00148
  -3746912.89448  -2919667.31645         0.00041  23537990.53045  23537983.92648
   4293541.20049   3345616.35146         0.00041  21427854.93146  21427851.26849
    -88976.24648    -69330.80446         0.00041  22569005.39646  22569002.18848
 02 07 01 16 42 00.0000000  0  8 06 15 17 18 21 22 23 29
    595384.18649    463935.26347         0.00041  20471905.50547  20471901.97249
  -6082262.00349  -4739421.10246         0.00041  21174630.96646  21174626.27549
  -3828515.97549  -2983257.57146         0.00041  20942930.71046  20942926.36049
  -9738765.01449  -7588643.10546         0.00041  21147817.18946  21147814.18949
  -7537383.74748  -5873276.71345         0.00041  23665107.42445  23665098.73748
  -3755533.93348  -2926385.02745         0.00041  23536350.23345  23536342.55348
   4352154.35949   3391288.92446         0.00041  21439008.73746  21439005.03249
    -80837.45148    -62988.87646         0.00041  22570554.14246  22570550.44048
 02 07 01 16 42 30.0000000  0  8 06 15 17 18 21 22 23 29
    629322.96149    490381.03947         0.00041  20478363.85647  20478360.42549
  -6121188.98849  -4769753.79846         0.00041  21167223.35046  21167218.69449
  -3850691.70749  -3000537.35546         0.00041  20938710.82646  20938706.48449
  -9796799.06349  -7633864.41846         0.00041  21136773.86146  21136770.72349
  -7618950.89148  -5936835.45145         0.00041  23649584.68745  23649578.93548
  -3763721.74948  -2932765.15145         0.00041  23534789.86545  23534784.21748
   4410965.57549   3437115.82747         0.00041  21450200.16347  21450196.39149
    -72253.80148    -56300.31846         0.00041  22572187.67446  22572184.04648
 02 07 01 16 43 00.0000000  0  8 06 15 17 18 21 22 23 29
    663766.17549    517219.88247         0.00041  20484918.19647  20484914.85149
  -6159927.90549  -4799939.94546         0.00041  21159851.63346  21159846.77449
  -3872701.38749  -3017687.74646         0.00041  20934522.83546  20934518.10849
  -9854399.92349  -7678748.18446         0.00041  21125812.13946  21125809.19149
  -7700274.53148  -6000204.44645         0.00041  23634109.48045  23634102.01348
  -3771363.60748  -2938719.86745         0.00041  23533337.49945  23533329.30848
   4470085.76049   3483183.49047         0.00041  21461450.47047  21461446.66449
    -63112.17248    -49176.97246         0.00041  22573927.13246  22573923.87148
 02 07 01 16 43 30.0000000  0  8 06 15 17 18 21 22 23 29
    698744.04949    544475.34247         0.00041  20491574.25047  20491570.87649
  -6198448.11749  -4829955.67446         0.00041  21152521.20546  21152516.73249
  -3894514.56249  -3034685.01746         0.00041  20930371.93646  20930367.17149
  -9911536.72949  -7723270.35046         0.00041  21114939.59446  21114936.47449
  -7781323.30148  -6063359.24745         0.00041  23618685.49145  23618678.40048
  -3778429.45748  -2944225.73445         0.00041  23531991.88445  23531985.42248
   4529542.93449   3529513.73846         0.00041  21472764.80846  21472760.84149
    -53382.13448    -41595.12846         0.00041  22575778.79746  22575775.19348
 02 07 01 16 44 00.0000000  0  8 06 15 17 18 21 22 23 29
    734219.50949    572118.53247         0.00041  20498325.12947  20498321.68249
  -6236786.43049  -4859829.66346         0.00041  21145225.83746  21145221.16249
  -3916168.08849  -3051557.88746         0.00041  20926251.29546  20926246.66049
  -9968245.70749  -7767459.14646         0.00041  21104148.17946  21104145.33049
  -7862132.64348  -6126327.47945         0.00041  23603308.08745  23603302.18348
  -3784956.53248  -2949311.79945         0.00041  23530750.12845  23530744.11248
   4589297.97649   3576076.09246         0.00041  21484135.91746  21484131.84849
    -43100.52048    -33583.47846         0.00041  22577735.59346  22577732.20348
 02 07 01 16 44 30.0000000  0  8 06 15 17 18 21 22 23 29
    770175.50949    600136.16847         0.00041  20505167.40047  20505164.03849
  -6274959.63749  -4889574.99846         0.00041  21137961.72746  21137956.94249
  -3937678.53049  -3068319.26346         0.00041  20922158.22946  20922153.33749
 -10024542.74349  -7811326.94347         0.00041  21093435.51347  21093432.41249
  -7942718.47348  -6189121.56145         0.00041  23587974.15045  23587966.64048
  -3790962.29548  -2953991.63645         0.00041  23529606.89645  23529600.29448
   4649331.95749   3622855.79646         0.00041  21495559.71246  21495555.92049
    -32284.22648    -25155.19646         0.00041  22579793.22146  22579789.96248
 02 07 01 16 45 00.0000000  0  8 06 15 17 18 21 22 23 29
    806587.13649    628508.83547         0.00041  20512096.20747  20512092.71149
  -6312992.07549  -4919210.65046         0.00041  21130724.38846  21130719.40649
  -3959070.50649  -3084988.32846         0.00041  20918087.33446  20918082.60849
 -10080452.12449  -7854892.67547         0.00041  21082796.35347  21082793.24949
  -8023104.74448  -6251760.11045         0.00041  23572676.86245  23572669.46548
  -3796471.81348  -2958284.76745         0.00041  23528559.23645  23528552.09048
   4709617.87149   3669831.81746         0.00041  21507031.89746  21507028.02349
    -20957.69148    -16329.32046         0.00041  22581949.21546  22581944.87748
 02 07 01 16 45 30.0000000  0  8 06 15 17 18 21 22 23 29
    843486.92849    657261.89447         0.00041  20519117.93347  20519114.42649
  -6350851.05649  -4948711.14146         0.00041  21123520.04346  21123515.15349
  -3980311.10249  -3101539.43346         0.00041  20914045.44846  20914040.64249
 -10135940.51549  -7898130.36147         0.00041  21072236.93247  21072233.80549
  -8103257.78548  -6314216.93645         0.00041  23557423.30945  23557416.63648
  -3801452.86548  -2962166.11545         0.00041  23527611.70145  23527604.61548
   4770186.38049   3717028.04446         0.00041  21518557.51446  21518553.88949
     -9088.41748     -7080.53646         0.00041  22584208.08446  22584203.95748
 02 07 01 16 46 00.0000000  0  8 06 15 17 18 21 22 23 29
    880909.45549    686422.27847         0.00041  20526239.54747  20526235.99749
  -6388501.68449  -4978049.27346         0.00041  21116355.42946  21116350.60849
  -4001365.57749  -3117945.50846         0.00041  20910038.82546  20910033.97449
 -10190972.56149  -7941012.45447         0.00041  21061764.51347  21061761.57149
  -8183141.85548  -6376464.17645         0.00041  23542222.63445  23542213.94648
  -3805871.31248  -2965609.07045         0.00041  23526770.74145  23526764.17448
   4831070.01649   3764469.82346         0.00041  21530143.57746  21530139.64449
      3358.45448      2618.31946         0.00041  22586576.13946  22586572.51848
 02 07 01 16 46 30.0000000  0  8 06 15 17 18 21 22 23 29
    918857.65049    715992.27047         0.00041  20533460.86147  20533457.18149
  -6425940.55549  -5007222.40146         0.00041  21109231.06046  21109226.22049
  -4022230.36149  -3134203.77347         0.00041  20906068.42847  20906063.65649
 -10245544.33949  -7983535.89947         0.00041  21051380.26847  21051377.23249
  -8262752.82548  -6438498.61045         0.00041  23527073.02845  23527065.60848
  -3809724.25748  -2968611.36545         0.00041  23526037.02245  23526030.42948
   4892269.79249   3812157.94346         0.00041  21541789.44646  21541785.58849
     16386.00648     12769.66246         0.00041  22589054.98846  22589051.59548
 02 07 01 16 47 00.0000000  0  8 06 15 17 18 21 22 23 29
    957366.17449    745998.88447         0.00041  20540788.72147  20540785.13549
  -6463132.53649  -5036203.15046         0.00041  21102153.78246  21102148.80549
  -4042870.53149  -3150287.01247         0.00041  20902140.67347  20902136.11649
 -10299620.36449  -8025673.03947         0.00041  21041089.68947  21041086.49549
  -8342054.97448  -6500292.39145         0.00041  23511983.97445  23511975.78348
  -3812977.48648  -2971146.34245         0.00041  23525417.92545  23525411.35648
   4953818.54149   3860117.98846         0.00041  21553501.91146  21553497.92449
     30029.19348     23400.72246         0.00041  22591650.83846  22591647.52948
 02 07 01 16 47 30.0000000  0  8 06 15 17 18 21 22 23 29
    996404.87249    776418.61947         0.00041  20548217.75547  20548214.05149
  -6500107.36849  -5065014.68946         0.00041  21095117.87046  21095112.71049
  -4063315.69249  -3166218.29747         0.00041  20898250.01947  20898245.47549
 -10353229.89949  -8067446.68447         0.00041  21030888.14447  21030884.95649
  -8421077.39148  -6561868.20345         0.00041  23496945.58945  23496936.90248
  -3815661.42948  -2973237.74545         0.00041  23524907.37145  23524900.41648
   5015684.01649   3908324.83446         0.00041  21565274.26646  21565270.30849
     44257.94848     34488.06146         0.00041  22594359.65046  22594355.54848
 02 07 01 16 48 00.0000000  0  8 06 15 17 18 21 22 23 29
   1035873.42349    807173.30247         0.00041  20555728.12047  20555724.82249
  -6536964.62549  -5093734.61646         0.00041  21088104.10746  21088098.98049
  -4083665.40049  -3182075.20546         0.00041  20894377.55446  20894373.20449
 -10406472.21749  -8108934.18647         0.00041  21020756.70747  21020753.82049
  -8499918.50148  -6623302.74045         0.00041  23481941.47745  23481934.22448
  -3817876.57548  -2974963.85245         0.00041  23524487.29945  23524478.85948
   5077764.22649   3956699.00646         0.00041  21577087.76046  21577083.85749
     58972.30048     45953.78846         0.00041  22597158.65646  22597155.44148
 02 07 01 16 48 30.0000000  0  8 06 15 17 18 21 22 23 29
   1075743.49249    838240.85547         0.00041  20563315.03347  20563311.67649
  -6573732.33549  -5122384.76246         0.00041  21081107.28246  21081102.21549
  -4103947.78349  -3197879.65246         0.00041  20890517.69846  20890513.54849
 -10459374.80949  -8150156.96247         0.00041  21010689.62447  21010686.57649
  -8578605.93848  -6684617.54145         0.00041  23466968.62245  23466960.18248
  -3819651.66748  -2976347.04845         0.00041  23524150.38945  23524140.70948
   5140028.67949   4005216.74546         0.00041  21588936.18246  21588932.55349
     74143.94248     57775.84446         0.00041  22600046.33246  22600042.36748
 02 07 01 16 49 00.0000000  0  8 06 15 17 18 21 22 23 29
   1116002.98449    869611.86147         0.00041  20570976.50347  20570972.95949
  -6610421.99949  -5150974.09346         0.00041  21074125.32646  21074120.40249
  -4124174.31049  -3213640.57546         0.00041  20886668.93946  20886664.51949
 -10511949.22149  -8191124.02147         0.00041  21000684.79447  21000681.80549
  -8657150.87448  -6745821.29945         0.00041  23452020.54145  23452013.04548
  -3820999.13848  -2977397.04945         0.00041  23523892.10545  23523883.66648
   5202463.33849   4053867.11046         0.00041  21600817.54546  21600813.58349
     89760.89248     69944.88546         0.00041  22603018.17446  22603014.51748
 02 07 01 16 49 30.0000000  0  8 06 15 17 18 21 22 23 29
   1156624.15349    901264.68947         0.00041  20578706.48547  20578702.95549
  -6647060.75449  -5179523.75546         0.00041  21067152.92946  21067148.32349
  -4144372.24449  -3229379.22246         0.00041  20882825.38046  20882820.89849
 -10564222.27249  -8231856.25647         0.00041  20990737.66247  20990734.59049
  -8735579.37948  -6806934.33845         0.00041  23437097.57045  23437089.13048
  -3821946.99448  -2978135.64545         0.00041  23523713.09945  23523704.41148
   5265038.85949   4102627.23846         0.00041  21612725.16646  21612721.28049
    105795.66248     82439.50946         0.00041  22606069.09646  22606065.67248
 02 07 01 16 50 00.0000000  0  8 06 15 17 18 21 22 23 29
   1197807.50449    933355.57847         0.00041  20586543.34447  20586539.96649
  -6683447.59449  -5207877.12146         0.00041  21060228.91846  21060224.30349
  -4164340.28349  -3244938.72946         0.00041  20879025.64746  20879021.25649
 -10615992.12249  -8272196.38747         0.00041  20980885.96447  20980882.91049
  -8813689.68448  -6867799.40945         0.00041  23422231.95545  23422224.78248
  -3822294.98548  -2978406.84145         0.00041  23523645.00845  23523639.15448
   5327953.84049   4151651.87446         0.00041  21624697.70846  21624693.46349
    122449.13048     95416.24746         0.00041  22609237.77846  22609234.83348
 02 07 01 16 50 30.0000000  0  8 06 15 17 18 21 22 23 29
   1239515.85749    965855.55747         0.00041  20594480.39547  20594476.70749
  -6719618.99949  -5236062.61546         0.00041  21053345.70246  21053341.10449
  -4184115.20249  -3260347.75347         0.00041  20875262.62747  20875258.27549
 -10667295.08649  -8312172.70747         0.00041  20971123.44647  20971120.54149
  -8891517.25348  -6928444.21345         0.00041  23407424.87645  23407414.45148
  -3822080.55348  -2978239.78245         0.00041  23523685.37145  23523679.15048
   5391169.43449   4200910.75446         0.00041  21636727.35946  21636723.20049
    139684.06848    108846.06046         0.00041  22612517.77646  22612514.50148
 02 07 01 16 51 00.0000000  0  8 06 15 17 18 21 22 23 29
   1281730.84349    998750.31547         0.00041  20602513.52847  20602509.83849
  -6755592.72749  -5264094.07946         0.00041  21046500.21446  21046495.60949
  -4203714.55149  -3275619.96947         0.00041  20871532.81947  20871528.55349
 -10718148.71049  -8351798.89547         0.00041  20961446.28347  20961443.41749
  -8969079.60448  -6988882.32546         0.00041  23392662.89146  23392655.16148
  -3821322.43948  -2977649.05545         0.00041  23523829.45745  23523823.47948
   5454665.58049   4250388.24846         0.00041  21648810.00146  21648806.10849
    157482.30548    122714.82146         0.00041  22615904.88546  22615901.18748
 02 07 01 16 51 30.0000000  0  8 06 15 17 18 21 22 23 29
   1324481.09549   1032062.16147         0.00041  20610648.65647  20610645.09749
  -6791339.77749  -5291948.91146         0.00041  21039697.83246  21039693.13749
  -4223109.11149  -3290732.61047         0.00041  20867842.24647  20867837.89049
 -10768523.64649  -8391052.07847         0.00041  20951860.09347  20951857.10349
  -9046346.89248  -7049090.53245         0.00041  23377959.17945  23377951.84848
  -3819992.30848  -2976612.61645         0.00041  23524083.06845  23524076.56548
   5518468.93949   4300105.13046         0.00041  21660951.19946  21660947.54749
    175872.61048    137044.92346         0.00041  22619405.02446  22619401.03948
 02 07 01 16 52 00.0000000  0  8 06 15 17 18 21 22 23 29
   1367802.52249   1065819.07947         0.00041  20618892.50247  20618888.85849
  -6826823.20249  -5319598.32146         0.00041  21032945.53346  21032940.76749
  -4242262.33149  -3305657.19447         0.00041  20864197.42647  20864193.05549
 -10818383.03449  -8429903.54147         0.00041  20942372.55047  20942369.44249
  -9123282.07448  -7109039.95745         0.00041  23363318.14245  23363311.72248
  -3818054.64748  -2975102.77045         0.00041  23524452.55745  23524445.12348
   5582613.71849   4350088.05446         0.00041  21673157.61446  21673153.89549
    194891.09348    151864.51946         0.00041  22623023.27346  22623019.92848
 02 07 01 16 52 30.0000000  0  8 06 15 17 18 21 22 23 29
   1411652.64449   1099987.96647         0.00041  20627236.74947  20627233.22749
  -6862084.96449  -5347075.00446         0.00041  21026235.42646  21026230.72349
  -4261216.17749  -3320426.42546         0.00041  20860590.67446  20860586.28949
 -10867768.63949  -8468385.82147         0.00041  20932974.55647  20932971.48349
  -9199926.16748  -7168762.59146         0.00041  23348734.27846  23348726.97948
  -3815552.33948  -2973152.92545         0.00041  23524929.73645  23524921.29748
   5647055.52149   4400302.42146         0.00041  21685420.69146  21685416.64649
    214495.23348    167140.47046         0.00041  22626753.96946  22626750.68448
 02 07 01 16 53 00.0000000  0  8 06 15 17 18 21 22 23 29
   1455968.39249   1134519.68447         0.00041  20635669.91847  20635666.36149
  -6897187.28349  -5374427.44346         0.00041  21019555.65246  21019550.97849
  -4280032.61749  -3335088.58446         0.00041  20857009.88046  20857005.53649
 -10916742.34749  -8506547.14447         0.00041  20923655.17947  20923652.01749
  -9276340.60148  -7228306.23245         0.00041  23334192.28745  23334185.35548
  -3812548.59648  -2970812.36745         0.00041  23525500.28345  23525493.12648
   5711729.68449   4450697.85446         0.00041  21697727.64746  21697723.82749
    234622.30248    182823.89346         0.00041  22630584.32446  22630580.83548
 02 07 01 16 53 30.0000000  0  8 06 15 17 18 21 22 23 29
   1500721.73349   1169392.37947         0.00041  20644186.28847  20644182.80649
  -6932157.59549  -5401677.02446         0.00041  21012900.63146  21012896.06349
  -4298739.06549  -3349665.04046         0.00041  20853450.28846  20853445.84849
 -10965331.55949  -8544408.85647         0.00041  20914409.05747  20914406.03549
  -9352552.30948  -7287691.92545         0.00041  23319688.88645  23319682.86248
  -3809071.87448  -2968103.25145         0.00041  23526161.39945  23526155.53348
   5776606.56449   4501251.24746         0.00041  21710073.38946  21710069.52649
    255244.36248    198893.03046         0.00041  22634509.01646  22634504.70648
 02 07 01 16 54 00.0000000  0  8 06 15 17 18 21 22 23 29
   1545898.98749   1204595.39647         0.00041  20652783.29347  20652779.85849
  -6967008.87649  -5428833.85146         0.00041  21006268.75846  21006264.12849
  -4317348.64949  -3364166.01547         0.00041  20849908.90247  20849904.66749
 -11013548.87049  -8581980.78047         0.00041  20905233.36947  20905230.58849
  -9428574.35248  -7346929.83645         0.00041  23305223.66545  23305217.11148
  -3805136.36248  -2965036.63045         0.00041  23526910.99745  23526904.02648
   5841670.56749   4551950.44846         0.00041  21722454.99146  21722450.87149
    276347.51748    215337.03846         0.00041  22638524.01446  22638520.72348
 02 07 01 16 54 30.0000000  0  8 06 15 17 18 21 22 23 29
   1591531.53349   1240153.18647         0.00041  20661466.85447  20661463.31749
  -7001708.95049  -5455872.85646         0.00041  20999665.36546  20999660.85249
  -4335829.00749  -3378566.29647         0.00041  20846392.25647  20846387.85549
 -11061362.01449  -8619237.76647         0.00041  20896134.93947  20896131.78249
  -9504374.03148  -7405994.45345         0.00041  23290798.48645  23290792.51648
  -3800711.01348  -2961588.32345         0.00041  23527753.85845  23527746.44848
   5906951.35949   4602818.57346         0.00041  21734877.45146  21734873.28049
    297963.63648    232180.76646         0.00041  22642637.41646  22642634.29448
 02 07 01 16 55 00.0000000  0  8 06 15 17 18 21 22 23 29
   1637649.41749   1276089.16247         0.00041  20670242.88947  20670239.41849
  -7036226.97349  -5482770.00246         0.00041  20993096.69646  20993092.37649
  -4354149.29349  -3392841.84547         0.00041  20842905.89547  20842901.73049
 -11108740.15649  -8656155.79047         0.00041  20887119.11247  20887116.07149
  -9579919.31148  -7464860.87045         0.00041  23276422.06145  23276416.53248
  -3795766.07748  -2957735.15345         0.00041  23528694.70545  23528686.82448
   5972477.58849   4653877.94846         0.00041  21747346.75946  21747342.78749
    320122.70648    249447.56446         0.00041  22646853.81946  22646850.77748
 02 07 01 16 55 30.0000000  0  8 06 15 17 18 21 22 23 29
   1684275.56849   1312421.18847         0.00041  20679115.57347  20679112.02949
  -7070539.11549  -5509506.71946         0.00041  20986567.31746  20986562.95849
  -4372285.65249  -3406974.07347         0.00041  20839454.72747  20839450.36549
 -11155659.26149  -8692716.12047         0.00041  20878190.76947  20878187.75349
  -9655185.76748  -7523509.99546         0.00041  23262101.86846  23262093.67748
  -3790279.01748  -2953459.53245         0.00041  23529738.60445  23529730.16548
   6038270.63249   4705145.23546         0.00041  21759866.47546  21759862.83049
    342847.73748    267155.36846         0.00041  22651178.26446  22651175.01748
 02 07 01 16 56 00.0000000  0  8 06 15 17 18 21 22 23 29
   1731433.12449   1349167.29747         0.00041  20688089.41147  20688085.73349
  -7104621.25949  -5536064.21846         0.00041  20980081.83246  20980077.47849
  -4390213.98149  -3420944.20147         0.00041  20836043.34647  20836038.89049
 -11202095.37649  -8728900.09347         0.00041  20869354.18747  20869351.35049
  -9730149.48448  -7581923.23145         0.00041  23247835.45145  23247827.83148
  -3784226.81048  -2948743.50344         0.00041  23530890.92844  23530881.74448
   6104352.36749   4756637.47346         0.00041  21772442.00746  21772437.70349
    366162.06748    285322.36246         0.00041  22655615.22546  22655611.78348
 02 07 01 16 56 30.0000000  0  8 06 15 17 18 21 22 23 29
   1779095.85549   1386307.04947         0.00041  20697159.51147  20697155.52049
  -7138498.78249  -5562462.27246         0.00041  20973635.23346  20973630.75149
  -4407959.54449  -3434771.90947         0.00041  20832666.44547  20832662.05349
 -11248073.68949  -8764727.33547         0.00041  20860604.87447  20860602.00049
  -9804835.52048  -7640120.09845         0.00041  23233622.48445  23233616.06748
  -3777636.11148  -2943607.60545         0.00041  23532141.80645  23532137.00148
   6170694.78249   4808332.83446         0.00041  21785066.23146  21785062.12749
    390039.82248    303928.39946         0.00041  22660158.90646  22660155.57648
 02 07 01 16 57 00.0000000  0  8 06 15 17 18 21 22 23 29
   1827200.99449   1423791.53247         0.00041  20706313.73547  20706309.79449
  -7172233.37449  -5588748.95146         0.00041  20967216.13346  20967211.38749
  -4425584.21649  -3448505.41947         0.00041  20829312.58847  20829308.20249
 -11293656.05949  -8800246.05447         0.00041  20851930.76547  20851927.58749
  -9879305.06448  -7698148.25946         0.00041  23219452.41046  23219445.76448
  -3770570.03548  -2938101.77345         0.00041  23533484.57545  23533481.56948
   6237233.55949   4860181.20646         0.00041  21797727.91746  21797724.04849
    414418.13648    322924.48246         0.00041  22664798.15246  22664794.99148
 02 07 01 16 57 30.0000000  0  8 06 15 17 18 21 22 23 29
   1875729.75349   1461606.11147         0.00041  20715548.18947  20715544.49849
  -7205842.85449  -5614938.13946         0.00041  20960820.36546  20960815.61949
  -4443105.91749  -3462158.68847         0.00041  20825978.16647  20825973.81549
 -11338860.42349  -8835470.22247         0.00041  20843328.57147  20843325.36849
  -9953575.07448  -7756020.94746         0.00041  23205319.02346  23205311.80548
  -3763047.93348  -2932240.69644         0.00041  23534920.22344  23534912.60048
   6303948.27649   4912166.67646         0.00041  21810423.34746  21810419.65049
    439278.41348    342296.11546         0.00041  22669528.93846  22669525.52148
 02 07 01 16 58 00.0000000  0  8 06 15 17 18 21 22 23 29
   1924725.43149   1499784.52247         0.00041  20724871.99647  20724868.14549
  -7239283.21049  -5640995.53946         0.00041  20954456.73946  20954452.14249
  -4460480.21049  -3475697.09747         0.00041  20822671.98647  20822667.73449
 -11383642.40349  -8870365.25547         0.00041  20834807.11147  20834804.05949
 -10027601.06448  -7813703.48146         0.00041  23191231.53146  23191224.90448
  -3755026.69148  -2925990.33645         0.00041  23536446.66245  23536438.92948
   6370880.78249   4964321.84846         0.00041  21823160.27946  21823156.55449
    464663.65748    362076.80746         0.00041  22674359.65446  22674356.03548
 02 07 01 16 58 30.0000000  0  8 06 15 17 18 21 22 23 29
   1974223.96249   1538354.76447         0.00041  20734291.24847  20734287.47449
  -7272517.20049  -5666892.13446         0.00041  20948132.55446  20948127.90149
  -4477670.21849  -3489091.90747         0.00041  20819400.91047  20819396.73449
 -11427965.26349  -8904902.53447         0.00041  20826372.85647  20826369.70649
 -10101345.37448  -7871166.52046         0.00041  23177198.56446  23177191.97548
  -3746470.73648  -2919323.35545         0.00041  23538075.19745  23538067.89148
   6438065.65549   5016673.67446         0.00041  21835945.26046  21835941.28849
    490610.54748    382295.15446         0.00041  22679297.44246  22679293.98648
 02 07 01 16 59 00.0000000  0  8 06 15 17 18 21 22 23 29
   2024192.89449   1577291.55547         0.00041  20743800.10547  20743796.21049
  -7305576.38249  -5692652.51246         0.00041  20941841.46046  20941836.82349
  -4494707.32749  -3502367.57447         0.00041  20816158.67947  20816154.67449
 -11471860.37549  -8939106.50247         0.00041  20818019.77547  20818016.77949
 -10174839.00248  -7928434.23746         0.00041  23163212.50546  23163206.01948
  -3737413.02748  -2912265.40045         0.00041  23539800.11745  23539791.18148
   6505468.97149   5069195.70946         0.00041  21848771.88346  21848767.94449
    517086.35048    402925.64546         0.00041  22684335.55046  22684332.15148
 02 07 01 16 59 30.0000000  0  8 06 15 17 18 21 22 23 29
   2074616.37749   1616582.54747         0.00041  20753395.40347  20753391.65849
  -7338475.93049  -5718288.50546         0.00041  20935581.22346  20935576.25849
  -4511606.42549  -3515535.70247         0.00041  20812943.11047  20812938.97749
 -11515342.66349  -8972988.78947         0.00041  20809745.27047  20809742.33849
 -10248096.92148  -7985518.27146         0.00041  23149273.34046  23149265.69648
  -3727869.77148  -2904829.12345         0.00041  23541613.53445  23541606.87548
   6573073.19649   5121874.30146         0.00041  21861636.58746  21861632.58249
    544075.20348    423955.90746         0.00041  22689471.32846  22689467.22748
 02 07 01 17 00 00.0000000  0  8 06 15 17 18 21 22 23 29
   2125470.25549   1656208.90247         0.00041  20763072.33247  20763068.76849
  -7371238.92249  -5743818.09046         0.00041  20929346.41446  20929341.58349
  -4528390.52649  -3528614.22047         0.00041  20809749.22747  20809745.05649
 -11558435.48449  -9006567.58947         0.00041  20801544.84147  20801541.93549
 -10321142.28748  -8042436.68146         0.00041  23135372.15946  23135365.73848
  -3717865.47148  -2897033.56845         0.00041  23543520.45345  23543510.52448
   6640852.83849   5174689.57946         0.00041  21874534.82946  21874530.73649
    571553.01048    445367.16946         0.00041  22694700.49246  22694696.33548
 02 07 01 17 00 30.0000000  0  8 06 15 17 18 21 22 23 29
   2176799.62749   1696205.77347         0.00041  20772840.24347  20772836.68749
  -7403818.90049  -5769205.06646         0.00041  20923146.37746  20923141.72549
  -4545013.45349  -3541567.15146         0.00041  20806585.78046  20806581.62049
 -11601092.59749  -9039806.88047         0.00041  20793427.46847  20793424.30949
 -10393928.06048  -8099152.81746         0.00041  23121521.52746  23121515.63348
  -3707355.43248  -2888843.94945         0.00041  23545518.04545  23545510.57148
   6708851.84949   5227675.79446         0.00041  21887474.30246  21887470.32249
    599565.10448    467194.76846         0.00041  22700030.80946  22700027.07148
 02 07 01 17 01 00.0000000  0  8 06 15 17 18 21 22 23 29
   2228634.76949   1736596.75347         0.00041  20782704.20847  20782700.50849
  -7436184.64349  -5794425.10846         0.00041  20916987.30846  20916982.82049
  -4561443.67949  -3554369.92646         0.00041  20803459.18746  20803455.00349
 -11643282.71349  -9072682.28047         0.00041  20785398.87547  20785395.82249
 -10466422.24248  -8155641.74046         0.00041  23107727.38946  23107720.12448
  -3696309.71148  -2880236.92845         0.00041  23547618.43445  23547613.17548
   6777099.02749   5280855.38446         0.00041  21900461.15146  21900457.41849
    628141.82548    489462.33546         0.00041  22705469.21546  22705465.15748
 02 07 01 17 01 30.0000000  0  8 06 15 17 18 21 22 23 29
   2281015.01049   1777412.48047         0.00041  20792672.22947  20792668.16849
  -7468295.68749  -5819446.68746         0.00041  20910876.82646  20910872.36049
  -4577640.98549  -3566991.20846         0.00041  20800377.02446  20800372.70649
 -11684965.79349  -9105162.58847         0.00041  20777467.07147  20777464.06949
 -10538584.03548  -8211871.64246         0.00041  23093995.41946  23093987.98448
  -3684689.35148  -2871182.08845         0.00041  23549833.14245  23549824.20748
   6845632.48049   5334258.04646         0.00041  21913502.82246  21913498.76949
    657322.63048    512200.61546         0.00041  22711022.46846  22711018.19948
 02 07 01 17 02 00.0000000  0  8 06 15 17 18 21 22 23 29
   2333941.04249   1818653.50147         0.00041  20802743.55247  20802739.69249
  -7500149.87349  -5844268.11546         0.00041  20904815.46246  20904810.72649
  -4593603.21149  -3579429.30946         0.00041  20797339.63846  20797335.10249
 -11726140.05849  -9137246.41447         0.00041  20769631.81347  20769628.88449
 -10610411.35448  -8267840.92446         0.00041  23080325.29846  23080320.15548
  -3672494.19548  -2861679.37945         0.00041  23552152.85845  23552143.67448
   6914451.56649   5387883.27046         0.00041  21926598.50046  21926594.75549
    687108.27748    535410.18646         0.00041  22716689.67846  22716685.69348
 02 07 01 17 02 30.0000000  0  8 06 15 17 18 21 22 23 29
   2387304.31049   1860235.22647         0.00041  20812898.00947  20812894.30049
  -7531854.91449  -5868973.32846         0.00041  20898782.08546  20898777.39449
  -4609437.58549  -3591767.78547         0.00041  20794326.68447  20794322.05049
 -11766912.85949  -9169017.41747         0.00041  20761873.01247  20761869.92449
 -10682011.32348  -8323633.03446         0.00041  23066700.43146  23066695.08848
  -3659833.06148  -2851813.58145         0.00041  23554562.57145  23554553.38848
   6983446.46349   5441645.49746         0.00041  21939728.18446  21939724.18549
    717390.14548    559006.42946         0.00041  22722452.33246  22722448.65448
 02 07 01 17 03 00.0000000  0  8 06 15 17 18 21 22 23 29
   2441042.05149   1902108.74247         0.00041  20823124.31447  20823120.31449
  -7563472.03249  -5893610.03046         0.00041  20892765.55646  20892760.94449
  -4625205.76249  -3604054.68047         0.00041  20791325.80647  20791321.60349
 -11807346.15849  -9200523.87447         0.00041  20754178.73747  20754175.68849
 -10753445.17648  -8379295.70946         0.00041  23053107.72046  23053100.86448
  -3646769.07248  -2841633.88145         0.00041  23557047.74245  23557040.35048
   7052553.07049   5495494.76746         0.00041  21952878.57846  21952874.73649
    748105.81548    582940.70046         0.00041  22728297.06846  22728293.25548
 02 07 01 17 03 30.0000000  0  8 06 15 17 18 21 22 23 29
   2495186.46249   1944299.14447         0.00041  20833427.52347  20833423.56749
  -7594967.86949  -5918152.22346         0.00041  20886772.06346  20886767.41249
  -4640874.33949  -3616263.95547         0.00041  20788344.17247  20788340.09349
 -11847406.92149  -9231740.04447         0.00041  20746555.34247  20746552.23349
 -10824679.18748  -8434802.67346         0.00041  23039552.10646  23039544.90848
  -3633270.32948  -2831115.41245         0.00041  23559615.17145  23559609.78048
   7121802.33049   5549455.19746         0.00041  21966056.41346  21966052.48849
    779287.27348    607237.92346         0.00041  22734231.48846  22734227.23548
 02 07 01 17 04 00.0000000  0  8 06 15 17 18 21 22 23 29
   2549718.58349   1986791.65547         0.00041  20843804.77147  20843800.65649
  -7626360.15249  -5942613.72746         0.00041  20880798.32346  20880793.82949
  -4656460.80349  -3628409.24747         0.00041  20785378.04847  20785374.15649
 -11887112.93749  -9262679.78447         0.00041  20738999.68347  20738996.65149
 -10895731.31648  -8490167.91146         0.00041  23026031.44946  23026024.96548
  -3619356.37648  -2820273.40145         0.00041  23562263.07145  23562257.40948
   7191174.12449   5603511.10746         0.00041  21979257.44846  21979253.37849
    810915.72348    631883.44046         0.00041  22740249.40246  22740245.63448
 02 07 01 17 04 30.0000000  0  7 06 15 17 18 21 22 23
   2604697.11749   2029632.02347         0.00041  20854266.99647  20854262.96549
  -7657589.23449  -5966948.05746         0.00041  20874855.59846  20874850.94249
  -4671905.40649  -3640444.00047         0.00041  20782438.95947  20782435.16649
 -11926404.61249  -9293296.66447         0.00041  20731522.81447  20731519.78549
 -10966541.10748  -8545344.30846         0.00041  23012556.86546  23012550.56048
  -3604968.90748  -2809062.42045         0.00041  23565003.13645  23564995.80748
   7260725.90549   5657707.26846         0.00041  21992492.75646  21992488.50349
 02 07 01 17 05 00.0000000  0  7 06 15 17 18 21 22 23
   2660261.60249   2072928.97447         0.00041  20864840.55347  20864836.52849
  -7688513.98949  -5991045.25146         0.00041  20868970.69046  20868966.18549
  -4687067.13749  -3652258.33147         0.00041  20779553.99347  20779549.86249
 -11965141.59549  -9323481.31647         0.00041  20724151.25147  20724148.13749
 -11036967.30648  -8600221.79646         0.00041  22999154.47846  22999148.29848
  -3589968.71848  -2797373.99445         0.00041  23567855.73045  23567850.51848
   7330595.93949   5712151.42246         0.00041  22005788.61646  22005784.45249
 02 07 01 17 05 30.0000000  0  7 06 15 17 18 21 22 23
   2716368.60149   2116648.66147         0.00041  20875517.52647  20875513.28849
  -7719176.55149  -6014938.14346         0.00041  20863135.71646  20863131.38249
  -4701988.14749  -3663885.08846         0.00041  20776714.61146  20776710.45049
 -12003365.95149  -9353266.51947         0.00041  20716877.51847  20716874.45949
 -11107052.10448  -8654833.26546         0.00041  22985818.22346  22985811.63048
  -3574399.87948  -2785242.47445         0.00041  23570819.64245  23570812.98248
   7400739.60849   5766808.79546         0.00041  22019136.64246  22019132.37649
 02 07 01 17 06 00.0000000  0  7 06 15 17 18 21 22 23
   2773036.62449   2160805.51147         0.00041  20886301.12747  20886296.95549
  -7749557.06249  -6038611.25446         0.00041  20857354.41046  20857350.14949
  -4716648.50549  -3675308.74447         0.00041  20773924.86847  20773920.59849
 -12041058.39949  -9382637.25147         0.00041  20709704.93747  20709701.87249
 -11176775.56048  -8709163.16046         0.00041  22972551.17146  22972543.40548
  -3558244.05448  -2772653.55045         0.00041  23573892.68045  23573887.34548
   7471174.47349   5821693.06846         0.00041  22032539.55846  22032535.49449
 02 07 01 17 06 30.0000000  0  7 06 15 17 18 21 22 23
   2830297.19749   2205424.08947         0.00041  20897197.33547  20897193.48849
  -7779622.74949  -6062039.04146         0.00041  20851633.02146  20851628.91449
  -4731015.25649  -3686503.61347         0.00041  20771190.91647  20771186.61849
 -12078186.49149  -9411568.22047         0.00041  20702639.64847  20702636.60549
 -11246104.73448  -8763185.84346         0.00041  22959357.17746  22959350.55648
  -3541470.34148  -2759583.16245         0.00041  23577084.10845  23577078.65548
   7541930.70449   5876827.76246         0.00041  22046004.45046  22046000.17849
 02 07 01 17 07 00.0000000  0  7 06 15 17 18 21 22 23
   2887916.81749   2250322.44647         0.00041  20908162.15147  20908158.21649
  -7809605.79349  -6085402.43946         0.00041  20845927.59646  20845923.29049
  -4745320.50849  -3697650.55747         0.00041  20768468.71747  20768464.50249
 -12114982.73149  -9440240.60247         0.00041  20695637.33847  20695634.56049
 -11315270.94448  -8817081.53646         0.00041  22946195.99746  22946188.63748
  -3524312.56448  -2746213.49945         0.00041  23580349.40745  23580343.18248
   7612773.86449   5932030.19346         0.00041  22059485.41646  22059481.29849
 02 07 01 17 07 30.0000000  0  7 06 15 17 18 21 22 23
   2945814.92249   2295437.80147         0.00041  20919179.71147  20919175.69249
  -7839585.10849  -6108762.92646         0.00041  20840222.82046  20840218.32249
  -4759643.41549  -3708811.26047         0.00041  20765743.05147  20765738.95049
 -12151526.56249  -9468716.30047         0.00041  20688683.24647  20688680.35349
 -11384353.94748  -8870912.38246         0.00041  22933049.43546  22933042.51648
  -3506851.68648  -2732607.65645         0.00041  23583672.41345  23583665.75448
   7683622.27249   5987236.71446         0.00041  22072967.44246  22072963.28049
 02 07 01 17 08 00.0000000  0  7 06 15 17 18 21 22 23
   3004176.14849   2340914.03147         0.00041  20930285.66747  20930281.64349
  -7869374.86449  -6131975.70346         0.00041  20834554.07746  20834549.60449
  -4773797.79749  -3719840.64347         0.00041  20763049.57147  20763045.51049
 -12187632.71949  -9496850.95547         0.00041  20681812.53147  20681809.49649
 -11453166.99248  -8924532.88246         0.00041  22919953.92146  22919947.56948
  -3488903.59648  -2718622.16945         0.00041  23587088.23845  23587080.76948
   7754659.50149   6042590.37146         0.00041  22086485.29146  22086481.49049
 02 07 01 17 08 30.0000000  0  8 03 06 15 17 18 21 22 23
        -0.77158         0.00051         0.00051         0.00051  25101468.67458
   3063041.65349   2386783.20547         0.00041  20941487.33947  20941483.40849
  -7898932.38549  -6155007.52146         0.00041  20828929.32046  20828924.80749
  -4787741.02649  -3730705.49447         0.00041  20760396.33947  20760392.23049
 -12223259.09849  -9524611.75847         0.00041  20675032.86447  20675030.15849
 -11521667.73048  -8977910.03446         0.00041  22906919.26746  22906912.47148
  -3470427.57448  -2704225.30445         0.00041  23590604.87545  23590596.43648
   7825925.81249   6098122.52746         0.00041  22100046.56346  22100042.81749
 02 07 01 17 09 00.0000000  0  7 06 15 17 18 21 22 23
   3122353.55149   2433000.21847         0.00041  20952774.06947  20952769.98949
  -7928314.07349  -6177902.33046         0.00041  20823338.20646  20823333.54349
  -4801529.54549  -3741449.79047         0.00041  20757772.33047  20757768.29449
 -12258462.04049  -9552042.60747         0.00041  20668334.03847  20668331.35049
 -11589912.48448  -9031087.71346         0.00041  22893932.55146  22893925.64048
  -3451481.77048  -2689462.39245         0.00041  23594210.18645  23594201.74748
   7897362.40349   6153787.37046         0.00041  22113640.74246  22113636.69749
 02 07 01 17 09 30.0000000  0  8 03 06 15 17 18 21 22 23
        -0.48458         0.00051         0.00051         0.00051  25062192.71158
   3182082.50749   2479542.21247         0.00041  20964140.24447  20964136.22849
  -7957547.69249  -6200681.76446         0.00041  20817775.01546  20817770.57649
  -4815190.95449  -3752095.04346         0.00041  20755172.70546  20755168.55449
 -12293269.90249  -9579165.60047         0.00041  20661710.60447  20661707.59149
 -11657928.69348  -9084087.31046         0.00041  22880989.91146  22880982.60048
  -3432096.00748  -2674356.65645         0.00041  23597899.28445  23597890.34848
   7968938.73849   6209561.10346         0.00041  22127261.36846  22127257.36049
 02 07 01 17 10 00.0000000  0  8 03 06 15 17 18 21 22 23
   -103075.71948         0.00041         0.00041         0.00041  25042577.79748
   3242285.76949   2526453.79747         0.00041  20975596.75247  20975592.52049
  -7986574.45749  -6223300.01246         0.00041  20812251.36446  20812247.10449
  -4828666.46549  -3762595.43846         0.00041  20752607.97846  20752604.25149
 -12327624.62549  -9605935.50047         0.00041  20655172.91047  20655169.85949
 -11725657.72448  -9136863.13546         0.00041  22868101.45046  22868094.37048
  -3412213.57548  -2658863.90045         0.00041  23601683.57845  23601673.64948
   8040711.13249   6265487.61246         0.00041  22140919.07846  22140915.03349
 02 07 01 17 10 30.0000000  0  8 03 06 15 17 18 21 22 23
   -206074.07648   -160576.89944         0.00041  25022986.39944  25022977.95948
   3302943.71549   2573719.67846         0.00041  20987139.38946  20987135.25349
  -8015412.39349  -6245771.12547         0.00041  20806763.55547  20806759.41749
  -4841974.24849  -3772965.13646         0.00041  20750075.65546  20750071.88849
 -12361545.01749  -9632366.96147         0.00041  20648718.03847  20648715.13049
 -11793117.91148  -9189429.46646         0.00041  22855264.33846  22855256.95848
  -3391854.35748  -2642999.62745         0.00041  23605559.74845  23605548.33048
   8112659.15449   6321550.96846         0.00041  22154610.72546  22154606.35849
 02 07 01 17 11 00.0000000  0  8 03 06 15 17 18 21 22 23
   -309009.94048   -240786.52344         0.00041  25003397.74944  25003389.55848
   3364039.06849   2621326.39746         0.00041  20998765.23646  20998761.50149
  -8044077.36149  -6268107.45846         0.00041  20801309.01346  20801304.66349
  -4855129.72449  -3783216.14947         0.00041  20747572.38247  20747568.52649
 -12395047.02049  -9658472.39947         0.00041  20642342.93047  20642340.03249
 -11860324.73548  -9241798.38346         0.00041  22842474.78946  22842468.15548
  -3371036.14848  -2626777.68745         0.00041  23609519.06745  23609510.62848
   8184764.46749   6377736.88846         0.00041  22168332.22446  22168327.66349
 02 07 01 17 11 30.0000000  0  8 03 06 15 17 18 21 22 23
   -411863.15348   -320931.74544         0.00041  24983825.62944  24983817.73148
   3425588.57949   2669287.00546         0.00041  21010477.96246  21010474.03049
  -8072551.00549  -6290294.70746         0.00041  20795890.57946  20795886.16849
  -4868114.56949  -3793334.20447         0.00041  20745101.32947  20745097.67049
 -12428113.00549  -9684238.08547         0.00041  20636050.65247  20636047.54649
 -11927259.53748  -9293955.31946         0.00041  22829738.09546  22829730.77748
  -3349742.63248  -2610185.37745         0.00041  23613569.93845  23613562.51748
   8257043.05149   6434057.82046         0.00041  22182086.47246  22182081.97649
 02 07 01 17 12 00.0000000  0  8 03 06 15 17 18 21 22 23
   -514630.49348   -401010.06641         0.00041         0.00041  24964260.52848
   3487591.91349   2717601.23946         0.00041  21022277.14146  21022273.02549
  -8100831.95549  -6312331.80646         0.00041  20790508.97446  20790504.42649
  -4880927.42849  -3803318.24747         0.00041  20742663.33947  20742659.42749
 -12460742.32649  -9709663.50947         0.00041  20629841.41647  20629838.42449
 -11993921.41948  -9345899.60446         0.00041  22817052.71746  22817045.35548
  -3327974.59548  -2593223.30245         0.00041  23617713.70545  23617705.26648
   8329493.67349   6490512.81346         0.00041  22195873.25546  22195869.13049
 02 07 01 17 12 30.0000000  0  7 06 15 17 18 21 22 23
   3550018.20749   2766245.05546         0.00041  21034156.35846  21034152.19049
  -8128949.28849  -6334241.41246         0.00041  20785158.22846  20785153.76249
  -4893597.65649  -3813191.14947         0.00041  20740252.33847  20740248.41349
 -12492964.66449  -9734771.80947         0.00041  20623709.79547  20623706.74449
 -12060339.74348  -9397654.11346         0.00041  22804413.09346  22804406.51948
  -3305763.32948  -2575915.85245         0.00041  23621940.06845  23621932.25948
   8402084.68649   6547077.20346         0.00041  22209686.70146  22209682.59049
 02 07 01 17 13 00.0000000  0  7 06 15 17 18 21 22 23
   3612905.53849   2815248.12246         0.00041  21046123.57246  21046119.20949
  -8156863.44449  -6355992.69746         0.00041  20779846.41146  20779841.91449
  -4906085.16349  -3822921.67347         0.00041  20737875.97547  20737872.15349
 -12524741.29349  -9759532.80047         0.00041  20617662.76647  20617659.76349
 -12126474.70048  -9449187.79946         0.00041  22791828.03846  22791821.56848
  -3283071.16648  -2558233.68645         0.00041  23626259.69445  23626251.00648
   8474853.29249   6603779.98046         0.00041  22223533.80046  22223530.27849
 02 07 01 17 13 30.0000000  0  8 03 06 15 17 18 21 22 23
        -0.66258         0.00051         0.00051         0.00051  24905681.11058
   3676243.46849   2864602.29946         0.00041  21058176.38046  21058172.28249
  -8184583.00949  -6377592.35146         0.00041  20774571.59346  20774566.89449
  -4918398.79249  -3832516.70247         0.00041  20735532.78947  20735528.91749
 -12556081.06549  -9783953.38647         0.00041  20611699.22147  20611696.18649
 -12192334.86848  -9500507.36646         0.00041  22779294.88546  22779288.58748
  -3259908.96248  -2540185.26945         0.00041  23630664.98245  23630658.29548
   8547788.31049   6660612.42846         0.00041  22237412.81646  22237409.26649
 02 07 01 17 14 00.0000000  0  8 03 06 15 17 18 21 22 23
   -102419.32848         0.00041         0.00041         0.00041  24886191.30448
   3740032.67949   2914308.12346         0.00041  21070314.93446  21070310.94649
  -8212105.76049  -6399038.64346         0.00041  20769334.16446  20769329.65849
  -4930536.14349  -3841974.37247         0.00041  20733223.23047  20733219.15849
 -12586982.58649  -9808032.47947         0.00041  20605818.61547  20605815.55249
 -12257918.23148  -9551611.24546         0.00041  22766815.16246  22766809.15748
  -3236276.58248  -2521770.45745         0.00041  23635163.23845  23635154.79848
   8620889.41349   6717574.29646         0.00041  22251323.38846  22251319.80349
 02 07 01 17 14 30.0000000  0  8 03 06 15 17 18 21 22 23
   -204721.77848         0.00041         0.00041         0.00041  24866724.34448
   3804288.64049   2964377.64846         0.00041  21082542.50646  21082538.52849
  -8239414.45449  -6420318.14047         0.00041  20764137.51447  20764133.05949
  -4942479.98649  -3851281.25846         0.00041  20730950.22746  20730946.20349
 -12617429.37649  -9831757.23947         0.00041  20600024.91147  20600022.02149
 -12323207.51948  -9602485.96646         0.00041  22754390.92546  22754384.21448
  -3212159.08148  -2502977.65745         0.00041  23639751.06945  23639744.16148
   8694171.55449   6774677.22646         0.00041  22265269.24246  22265265.04349
 02 07 01 17 15 00.0000000  0  8 03 06 15 17 18 21 22 23
   -306887.69248   -239133.00644         0.00041  24847293.55144  24847283.62248
   3869028.47749   3014824.21946         0.00041  21094862.35346  21094857.76249
  -8266490.10249  -6441416.04447         0.00041  20758985.46847  20758980.93249
  -4954211.20349  -3860422.46247         0.00041  20728718.05447  20728713.91449
 -12647403.21049  -9855113.45947         0.00041  20594320.99447  20594318.21649
 -12388183.95748  -9653116.90846         0.00041  22742026.35446  22742019.60648
  -3187539.61448  -2483793.68545         0.00041  23644437.00145  23644429.57648
   8767651.04049   6831933.93146         0.00041  22279251.58246  22279247.51449
 02 07 01 17 15 30.0000000  0  8 03 06 15 17 18 21 22 23
   -408971.02248         0.00041         0.00041         0.00041  24827857.29348
   3934194.66449   3065603.01146         0.00041  21107263.40946  21107258.74249
  -8293388.53049  -6462375.85547         0.00041  20753866.83147  20753862.33149
  -4965785.72649  -3869441.56847         0.00041  20726515.55647  20726511.52749
 -12676960.57049  -9878145.15447         0.00041  20588696.26847  20588693.41649
 -12452902.98448  -9703547.27546         0.00041  22729710.77246  22729704.24748
  -3162476.26848  -2464263.83345         0.00041  23649207.19545  23649198.75648
   8841269.49149   6889298.92546         0.00041  22293260.87646  22293256.75049
 02 07 01 17 16 00.0000000  0  8 03 06 15 17 18 21 22 23
   -511051.74148         0.00041         0.00041         0.00041  24808430.50848
   3999703.37949   3116648.70246         0.00041  21119729.25446  21119724.86149
  -8320191.96149  -6483261.64247         0.00041  20748766.16047  20748761.67749
  -4977285.40249  -3878402.35447         0.00041  20724327.09647  20724323.10949
 -12706184.33049  -9900916.90447         0.00041  20583135.43447  20583132.43449
 -12517447.52948  -9753841.66946         0.00041  22717427.60246  22717421.70148
  -3137053.26648  -2444453.74445         0.00041  23654045.89545  23654036.46248
   8914942.61949   6946706.52446         0.00041  22307280.92946  22307276.46949
 02 07 01 17 16 30.0000000  0  8 03 06 15 17 18 21 22 23
   -613143.57148         0.00041         0.00041         0.00041  24789003.44748
   4065537.43149   3167947.90546         0.00041  21132256.92946  21132252.51349
  -8346915.47949  -6504085.15747         0.00041  20743680.68547  20743676.27549
  -4988725.41049  -3887316.64747         0.00041  20722150.14447  20722146.21249
 -12735090.57449  -9923441.23647         0.00041  20577634.49947  20577631.75449
 -12581832.71048  -9804011.87646         0.00041  22705175.67846  22705169.98248
  -3111288.17148  -2424377.08045         0.00041  23658948.23845  23658939.05448
   8988652.65249   7004142.87846         0.00041  22321307.12946  22321302.77549
 02 07 01 17 17 00.0000000  0  8 03 06 15 17 18 21 22 23
   -715145.51048         0.00041         0.00041         0.00041  24769593.75848
   4131794.23849   3219576.52146         0.00041  21144864.98046  21144860.76849
  -8373459.74949  -6524768.99947         0.00041  20738629.43847  20738625.18049
  -5000006.49649  -3896107.10647         0.00041  20720003.36247  20719999.37049
 -12763580.68449  -9945641.30647         0.00041  20572212.86947  20572210.32649
 -12645959.58848  -9853980.81846         0.00041  22692973.23646  22692966.58748
  -3085083.98048  -2403958.27845         0.00041  23663934.17845  23663925.98748
   9062496.19449   7061683.27346         0.00041  22335359.38746  22335354.66849
 02 07 01 17 17 30.0000000  0  8 03 06 15 17 18 21 22 23
   -816981.95948   -636608.49141         0.00041         0.00041  24750214.97248
   4198545.70349   3271590.58846         0.00041  21157567.62546  21157563.14749
  -8399751.12749  -6545255.77847         0.00041  20733626.31647  20733622.05949
  -5011054.96549  -3904716.30747         0.00041  20717900.92847  20717896.83049
 -12791581.65249  -9967460.22447         0.00041  20566884.51047  20566881.94149
 -12709754.58948  -9903691.15246         0.00041  22680832.49046  22680826.60248
  -3058369.38848  -2383141.76245         0.00041  23669016.90845  23669010.18648
   9136544.65749   7119383.33146         0.00041  22349450.22146  22349445.49949
 02 07 01 17 18 00.0000000  0  8 03 06 15 17 18 21 22 23
   -918668.81348         0.00041         0.00041         0.00041  24730864.62848
   4265772.33349   3323974.91246         0.00041  21170360.57346  21170356.24749
  -8425807.45449  -6565559.40447         0.00041  20728667.94247  20728663.65549
  -5021888.40749  -3913157.95347         0.00041  20715839.73347  20715835.43749
 -12819112.38949  -9988912.73147         0.00041  20561645.98447  20561643.10849
 -12773235.54248  -9953156.77046         0.00041  22668753.01146  22668746.42448
  -3031164.43248  -2361943.11945         0.00041  23674195.60245  23674186.41948
   9210777.79049   7177227.28746         0.00041  22363576.24046  22363571.83449
 02 07 01 17 18 30.0000000  0  8 03 06 15 17 18 21 22 23
  -1020165.69348   -794933.33241         0.00041         0.00041  24711550.11348
   4333511.10249   3376758.30046         0.00041  21183250.91646  21183246.48349
  -8451589.88549  -6585649.60147         0.00041  20723761.81547  20723757.48249
  -5032467.92149  -3921401.72947         0.00041  20713826.31147  20713822.19349
 -12846134.83349 -10009969.16547         0.00041  20556503.55447  20556500.60749
 -12836363.87748 -10002347.62846         0.00041  22656740.02846  22656733.86648
  -3003432.68248  -2340334.01345         0.00041  23679471.91945  23679463.47948
   9285231.87549   7235243.42946         0.00041  22377744.76046  22377740.07649
 02 07 01 17 19 00.0000000  0  8 03 06 15 17 18 21 22 23
  -1121469.74648   -873871.48341         0.00041         0.00041  24692272.26648
   4401760.89849   3429939.89446         0.00041  21196238.37846  21196233.84549
  -8477097.45449  -6605525.61947         0.00041  20718908.03847  20718903.59849
  -5042792.57749  -3929446.91747         0.00041  20711861.62247  20711857.59049
 -12872649.18549 -10030629.68547         0.00041  20551458.00347  20551455.16649
 -12899139.04648 -10051263.27846         0.00041  22644794.14846  22644787.83048
  -2975175.60348  -2318315.56845         0.00041  23684847.68245  23684841.05748
   9359905.50549   7293430.63446         0.00041  22391954.16446  22391950.17849
 02 07 01 17 19 30.0000000  0  8 03 06 15 17 18 21 22 23
  -1222572.93248         0.00041         0.00041         0.00041  24673032.63748
   4470526.12049   3483523.12346         0.00041  21209324.17546  21209319.52349
  -8502324.04949  -6625182.69647         0.00041  20714107.21247  20714103.01049
  -5052855.82649  -3937288.40747         0.00041  20709946.59547  20709942.65949
 -12898649.87349 -10050889.94647         0.00041  20546510.19947  20546507.40549
 -12961554.79748 -10099898.87446         0.00041  22632917.06946  22632910.43548
  -2946389.40848  -2295884.82645         0.00041  23690325.45945  23690319.54848
   9434802.34449   7351791.77646         0.00041  22406206.91246  22406202.81349
 02 07 01 17 20 00.0000000  0  8 03 06 15 17 18 21 22 23
  -1323533.61748  -1031323.65141         0.00041         0.00041  24653821.24048
   4539744.48749   3537459.44846         0.00041  21222495.69646  21222491.59949
  -8527329.49749  -6644667.44747         0.00041  20709349.02647  20709344.81749
  -5062718.13949  -3944973.32747         0.00041  20708069.95347  20708065.97649
 -12924197.75449 -10070797.37147         0.00041  20541648.68247  20541645.68149
 -13023671.81548 -10148301.68146         0.00041  22621096.34046  22621089.71948
  -2917136.54648  -2273090.44645         0.00041  23695892.80845  23695886.18048
   9509859.80249   7410278.06846         0.00041  22420489.92746  22420485.41149
 02 07 01 17 20 30.0000000  0  8 03 06 15 17 18 21 22 23
  -1424458.20648         0.00041         0.00041         0.00041  24634617.20948
   4609305.81649   3591663.01346         0.00041  21235733.12846  21235729.03249
  -8552222.28249  -6664064.40547         0.00041  20704612.04747  20704607.83149
  -5072487.55549  -3952585.86147         0.00041  20706210.71847  20706206.81449
 -12949402.10849 -10090437.11747         0.00041  20536852.33447  20536849.59749
 -13085598.34848 -10196556.06246         0.00041  22609312.15646  22609305.80848
  -2887527.79848  -2250018.73745         0.00041  23701527.44845  23701520.20948
   9584967.30449   7468803.35746         0.00041  22434782.37346  22434778.14749
 02 07 01 17 21 00.0000000  0  8 03 06 15 17 18 21 22 23
  -1525403.61848         0.00041         0.00041         0.00041  24615407.91748
   4679149.45049   3646086.55846         0.00041  21249023.69246  21249019.56249
  -8577060.84149  -6683419.15446         0.00041  20699885.92746  20699881.16349
  -5082222.52249  -3960171.55347         0.00041  20704358.39247  20704354.27149
 -12974322.42149 -10109855.50847         0.00041  20532110.07847  20532107.16749
 -13147393.41848 -10244708.00446         0.00041  22597552.30446  22597545.95148
  -2857624.20148  -2226717.25845         0.00041  23707217.49745  23707210.72948
   9660063.59649   7527319.91446         0.00041  22449072.49946  22449068.30949
 02 07 01 17 21 30.0000000  0  8 03 06 15 17 18 21 22 23
  -1626207.97448  -1267173.43941         0.00041         0.00041  24596225.23748
   4749433.53149   3700853.30946         0.00041  21262398.59046  21262394.14649
  -8601685.20249  -6702606.93847         0.00041  20695199.77547  20695195.18849
  -5091762.97349  -3967605.67247         0.00041  20702542.99747  20702538.74549
 -12998799.80249 -10128928.78747         0.00041  20527452.21247  20527449.27549
 -13208897.00948 -10292632.82446         0.00041  22585848.22546  22585842.15448
  -2827268.30248  -2203063.36645         0.00041  23712994.32145  23712987.58248
   9735306.26349   7585950.52646         0.00041  22463390.88246  22463386.74649
 02 07 01 17 22 00.0000000  0  8 03 06 15 17 18 21 22 23
  -1726895.64248  -1345631.19744         0.00041  24577068.68444  24577065.50548
   4820129.84949   3755941.28246         0.00041  21275851.73746  21275847.14849
  -8626121.61649  -6721648.29147         0.00041  20690549.72047  20690545.18149
  -5101135.05649  -3974908.59747         0.00041  20700759.27947  20700755.18349
 -13022861.43749 -10147678.09547         0.00041  20522873.60147  20522870.71749
 -13270135.72448 -10340351.25046         0.00041  22574195.84546  22574189.15048
  -2796488.62748  -2179079.24945         0.00041  23718853.45645  23718844.52148
   9810666.65849   7644672.87946         0.00041  22477731.45246  22477727.40949
 02 07 01 17 22 30.0000000  0  8 03 06 15 17 18 21 22 23
  -1827442.53848  -1423979.30241         0.00041         0.00041  24557932.31748
   4891258.72749   3811366.31646         0.00041  21289387.14446  21289382.87949
  -8650347.62949  -6740525.69447         0.00041  20685939.61947  20685935.15649
  -5110316.19949  -3982062.73647         0.00041  20699012.32247  20699008.11949
 -13046485.71049 -10166086.60247         0.00041  20518377.90947  20518374.82749
 -13331087.77748 -10387846.29646         0.00041  22562596.78646  22562590.60348
  -2765265.46948  -2154749.57145         0.00041  23724793.33945  23724786.12848
   9886164.85749   7703502.61046         0.00041  22492098.19246  22492094.24549
 02 07 01 17 23 00.0000000  0  8 03 06 15 17 18 21 22 23
  -1927815.47148  -1502191.85244         0.00041  24538836.70344  24538830.85348
   4962848.97149   3867150.85546         0.00041  21303010.65746  21303006.26849
  -8674331.97849  -6759214.78947         0.00041  20681375.48147  20681371.10549
  -5119275.40449  -3989043.93747         0.00041  20697307.31447  20697303.25449
 -13069642.99049 -10184131.22347         0.00041  20513971.27147  20513968.12849
 -13391722.27448 -10435093.90146         0.00041  22551058.33346  22551052.38348
  -2733570.46148  -2130052.21045         0.00041  23730826.62545  23730818.18548
   9961829.32949   7762461.90346         0.00041  22506496.73646  22506492.68049
 02 07 01 17 23 30.0000000  0  8 03 06 15 17 18 21 22 23
  -2028014.55848  -1580268.92544         0.00041  24519770.62444  24519762.87348
   5034896.90449   3923292.02846         0.00041  21316720.79546  21316716.01749
  -8698076.52449  -6777717.02647         0.00041  20676857.07347  20676852.62249
  -5128014.44349  -3995853.58047         0.00041  20695644.56547  20695640.42049
 -13092335.91849 -10201814.01047         0.00041  20509652.87547  20509649.99149
 -13452041.87348 -10482096.13146         0.00041  22539579.81946  22539573.34748
  -2701407.63848  -2104990.31845         0.00041  23736945.97345  23736938.03748
  10037655.83248   7821547.45246         0.00041  22520926.19446  22520921.95048
 02 07 01 17 24 00.0000000  0  8 03 06 15 17 18 21 22 23
  -2128030.99848  -1658203.71744         0.00041  24500734.11344  24500730.89748
   5107407.85549   3979793.99546         0.00041  21330519.13846  21330514.31949
  -8721573.94549  -6796026.69747         0.00041  20672385.79547  20672381.18049
  -5136525.54349  -4002485.60447         0.00041  20694025.05647  20694020.78049
 -13114557.98549 -10219129.88847         0.00041  20505424.16147  20505421.20249
 -13512038.65048 -10528846.81346         0.00041  22528162.88346  22528156.62648
  -2668772.23848  -2079560.18945         0.00041  23743155.44645  23743147.94248
  10113649.56548   7880763.30346         0.00041  22535386.95446  22535383.10448
 02 07 01 17 24 30.0000000  0  8 03 06 15 17 18 21 22 23
  -2227884.32748  -1736011.33944         0.00041  24481737.31044  24481730.33248
   5180358.10349   4036638.27746         0.00041  21344401.26146  21344396.53849
  -8744845.69549  -6814160.52147         0.00041  20667957.18947  20667952.66249
  -5144830.25949  -4008956.81747         0.00041  20692444.58347  20692440.44949
 -13136331.73349 -10236096.43047         0.00041  20501280.79947  20501277.66649
 -13571734.94948 -10575363.35646         0.00041  22516803.00846  22516797.08448
  -2635688.30948  -2053780.55445         0.00041  23749452.39645  23749443.95748
  10189786.56548   7940090.78546         0.00041  22549875.98846  22549871.46948
 02 07 01 17 25 00.0000000  0  8 03 06 15 17 18 21 22 23
  -2327664.72448  -1813762.18144         0.00041  24462748.76444  24462742.18748
   5253653.43049   4093751.44746         0.00041  21358348.94946  21358344.27749
  -8767983.71949  -6832190.14347         0.00041  20663554.04047  20663549.73749
  -5153020.46149  -4015338.79947         0.00041  20690886.14747  20690881.95449
 -13157750.50749 -10252786.37647         0.00041  20497204.87347  20497201.90649
 -13631223.48848 -10621718.01046         0.00041  22505482.68446  22505476.37348
  -2602250.76848  -2027725.38745         0.00041  23755814.33245  23755807.26448
  10265972.25848   7999456.21246         0.00041  22564373.25546  22564369.11948
 02 07 01 17 25 30.0000000  0  8 03 06 15 17 18 21 22 23
  -2427419.14948  -1891492.79044         0.00041  24443767.63244  24443759.19248
   5327242.90149   4151093.81446         0.00041  21372352.53346  21372348.37849
  -8791036.85449  -6850153.61447         0.00041  20659167.11047  20659162.87449
  -5161144.90249  -4021669.53547         0.00041  20689340.10647  20689335.89449
 -13178864.08049 -10269238.50247         0.00041  20493186.96447  20493184.36749
 -13690553.34848 -10667949.02546         0.00041  22494192.21246  22494186.23448
  -2568510.81848  -2001434.54545         0.00041  23762236.24945  23762227.56148
  10342155.42648   8058819.67846         0.00041  22578870.55346  22578866.43448
 02 07 01 17 26 00.0000000  0  8 03 06 15 17 18 21 22 23
  -2526997.12148  -1969085.88844         0.00041  24424816.81444  24424809.36148
   5401272.95649   4208779.49546         0.00041  21386440.29446  21386435.88249
  -8813856.38449  -6867935.06247         0.00041  20654824.75747  20654820.54449
  -5169054.78649  -4027833.08647         0.00041  20687834.75047  20687830.53949
 -13199524.81749 -10285337.76547         0.00041  20489255.41947  20489252.53849
 -13749576.21749 -10713940.82646         0.00041  22482960.09346  22482954.74049
  -2534322.52748  -1974794.37945         0.00041  23768742.06945  23768732.63648
  10418482.42448   8118295.22646         0.00041  22593395.30946  22593391.26848
 02 07 01 17 26 30.0000000  0  8 03 06 15 17 18 21 22 23
  -2626423.45548  -2046560.82744         0.00041  24405895.00844  24405888.39748
   5475714.73649   4266786.00646         0.00041  21400605.98546  21400601.26749
  -8836468.84749  -6885555.15447         0.00041  20650521.61147  20650517.51449
  -5176776.69149  -4033850.16247         0.00041  20686365.41847  20686361.11749
 -13219760.45549 -10301105.78647         0.00041  20485404.70947  20485401.90449
 -13808318.71249 -10759714.15346         0.00041  22471781.72346  22471776.49249
  -2499715.16848  -1947827.65545         0.00041  23775327.10545  23775318.91448
  10494923.95148   8177860.00646         0.00041  22607941.42746  22607937.31148
 02 07 01 17 27 00.0000000  0  8 03 06 15 17 18 21 22 23
  -2725702.06348  -2123920.67944         0.00041  24387006.16444  24386996.98048
   5550560.32649   4325107.16746         0.00041  21414849.33646  21414844.01349
  -8858880.16749  -6903018.51247         0.00041  20646256.97247  20646252.88749
  -5184316.29849  -4039725.18947         0.00041  20684930.51747  20684926.42349
 -13239577.86849 -10316547.91947         0.00041  20481633.69847  20481630.71349
 -13866787.14949 -10805273.92746         0.00041  22460656.03046  22460650.33249
  -2464697.48448  -1920541.18945         0.00041  23781991.09845  23781982.65848
  10571471.76648   8237507.61146         0.00041  22622508.23146  22622503.97348
 02 07 01 17 27 30.0000000  0  8 03 06 15 17 18 21 22 23
  -2824849.18548  -2201178.03444         0.00041  24368136.55144  24368129.62848
   5625789.50949   4383727.23646         0.00041  21429164.64746  21429159.78349
  -8881108.39149  -6920339.19847         0.00041  20642027.05847  20642022.99449
  -5191691.42249  -4045472.04547         0.00041  20683527.25347  20683523.00049
 -13258996.51649 -10331679.32447         0.00041  20477938.14547  20477935.25849
 -13925000.32749 -10850634.80646         0.00041  22449578.19846  22449572.31049
  -2429289.93048  -1892950.94145         0.00041  23788730.52545  23788720.10048
  10648105.71048   8297222.32346         0.00041  22637091.14946  22637087.03048
 02 07 01 17 28 00.0000000  0  8 03 06 15 17 18 21 22 23
  -2923821.01448  -2278298.83744         0.00041  24349303.15444  24349295.70348
   5701441.85949   4442677.04646         0.00041  21443561.11746  21443556.34449
  -8903111.33549  -6937484.34247         0.00041  20637840.04047  20637835.82549
  -5198860.17549  -4051058.08847         0.00041  20682163.20347  20682158.96649
 -13277975.38049 -10346468.04147         0.00041  20474326.89847  20474324.10549
 -13982916.81549 -10895764.49646         0.00041  22438556.70746  22438551.09749
  -2393453.30248  -1865026.36645         0.00041  23795548.42545  23795539.24148
  10724865.28148   8357034.93146         0.00041  22651698.33446  22651693.79548
 02 07 01 17 28 30.0000000  0  8 03 06 15 17 18 21 22 23
  -3022648.33148  -2355307.05244         0.00041  24330495.67044  24330489.69648
   5777482.64249   4501929.52546         0.00041  21458031.01546  21458026.10249
  -8924921.56749  -6954479.32547         0.00041  20633689.64047  20633685.35949
  -5205854.88049  -4056508.51847         0.00041  20680832.00847  20680827.82049
 -13296548.26549 -10360940.41147         0.00041  20470792.41947  20470789.52249
 -14040569.70049 -10940688.78546         0.00041  22427585.40146  22427580.71649
  -2357223.00948  -1836795.03245         0.00041  23802441.24745  23802434.65048
  10801715.44348   8416918.13246         0.00041  22666322.37746  22666317.75348
 02 07 01 17 29 00.0000000  0  8 03 06 15 17 18 21 22 23
  -3121364.26548  -2432228.43044         0.00041  24311712.14544  24311703.70648
   5853874.69249   4561455.71846         0.00041  21472568.26446  21472563.01849
  -8946573.90949  -6971351.27447         0.00041  20629569.12447  20629564.99049
  -5212710.47449  -4061850.54547         0.00041  20679527.19747  20679523.18149
 -13314751.58049 -10375124.80747         0.00041  20467328.55847  20467325.50649
 -14097994.34549 -10985435.21746         0.00041  22416658.63246  22416652.75349
  -2320636.72248  -1808286.29144         0.00041  23809404.24644  23809396.93548
  10878618.70448   8476842.70946         0.00041  22680956.84346  22680952.16948
 02 07 01 17 29 30.0000000  0  8 03 06 15 17 18 21 22 23
  -3219858.06148  -2508976.77244         0.00041  24292971.85144  24292960.43348
   5930724.57449   4621338.65846         0.00041  21487192.15046  21487187.15449
  -8967959.41549  -6988015.30047         0.00041  20625499.63347  20625495.58649
  -5219317.89549  -4066999.19347         0.00041  20678270.07047  20678265.96849
 -13332477.48249 -10388937.19247         0.00041  20463955.39747  20463952.40749
 -14155082.46649 -11029919.42946         0.00041  22405794.69346  22405788.84349
  -2283588.30348  -1779417.46545         0.00041  23816454.22045  23816446.80948
  10955681.70648   8536891.80946         0.00041  22695621.34446  22695617.02448
 02 07 01 17 30 00.0000000  0  8 03 06 15 17 18 21 22 23
  -3318107.17348  -2585534.42644         0.00041  24274273.73244  24274264.54848
   6008050.70049   4681592.71146         0.00041  21501906.76046  21501901.67749
  -8989057.34649  -7004455.24147         0.00041  20621484.81047  20621480.81649
  -5225656.42249  -4071938.31147         0.00041  20677063.57147  20677059.71749
 -13349706.56549 -10402362.44747         0.00041  20460676.77447  20460673.66649
 -14211813.66049 -11074125.51546         0.00041  22394999.56246  22394993.82549
  -2246059.98048  -1750174.66245         0.00041  23823596.64445  23823587.95648
  11032922.75948   8597079.53346         0.00041  22710319.81446  22710315.46848
 02 07 01 17 30 30.0000000  0  8 03 06 15 17 18 21 22 23
  -3416173.09648  -2661949.30544         0.00041  24255612.90844  24255602.23548
   6085787.58649   4742166.83446         0.00041  21516699.51846  21516694.59549
  -9009930.82049  -7020720.28047         0.00041  20617512.97147  20617508.87849
  -5231789.01149  -4076716.95847         0.00041  20675896.76647  20675892.86349
 -13366503.15149 -10415450.69047         0.00041  20457480.85647  20457477.90149
 -14268251.78049 -11118103.23046         0.00041  22384259.91946  22384253.82249
  -2208117.58848  -1720609.21545         0.00041  23830816.54045  23830808.34848
  11110276.49048   8657355.13546         0.00041  22725040.13346  22725035.23148
 02 07 01 17 31 00.0000000  0  8 03 06 15 17 18 21 22 23
  -3514066.72748         0.00041         0.00041         0.00041  24236974.37748
   6163919.94849   4803049.11146         0.00041  21531567.85046  21531563.06049
  -9030592.81149  -7036820.52747         0.00041  20613581.19547  20613577.03649
  -5237728.55549  -4081345.17747         0.00041  20674766.42747  20674762.71949
 -13382881.29649 -10428212.87547         0.00041  20454363.70847  20454360.98349
 -14324410.13849 -11161862.94746         0.00041  22373572.90446  22373566.78349
  -2169776.97348  -1690733.47745         0.00041  23838112.70245  23838104.51148
  11187727.52148   8717706.54846         0.00041  22739778.47946  22739773.93048
 02 07 01 17 31 30.0000000  0  8 03 06 15 17 18 21 22 23
  -3611767.36548  -2814360.24144         0.00041  24218391.89444  24218383.70348
   6242464.29249   4864252.41746         0.00041  21546514.38346  21546509.68549
  -9051024.33649  -7052741.19047         0.00041  20609692.87147  20609688.83549
  -5243455.82449  -4085807.99147         0.00041  20673676.71847  20673672.93449
 -13398823.53849 -10440635.39547         0.00041  20451329.97247  20451327.07049
 -14380270.58549 -11205390.53246         0.00041  22362943.18346  22362937.06149
  -2131022.06448  -1660534.91345         0.00041  23845488.53545  23845479.60048
  11265292.34748   8778146.63746         0.00041  22754538.23546  22754533.96548
 02 07 01 17 32 00.0000000  0  8 03 06 15 17 18 21 22 23
  -3709248.18048         0.00041         0.00041         0.00041  24199833.22148
   6321443.32149   4925794.43946         0.00041  21561543.72146  21561538.90749
  -9071200.19349  -7068462.63447         0.00041  20605853.67247  20605849.51449
  -5248945.66049  -4090085.79047         0.00041  20672632.01547  20672628.02949
 -13414306.17249 -10452699.77747         0.00041  20448383.79247  20448381.06149
 -14435808.15749 -11248666.52246         0.00041  22352374.83546  22352368.35449
  -2091830.58248  -1629996.15445         0.00041  23852944.85845  23852937.90948
  11342993.78548   8838693.16846         0.00041  22769324.33646  22769320.18348
 02 07 01 17 32 30.0000000  0  8 03 06 15 17 18 21 22 23
  -3806555.54448  -2966143.01444         0.00041  24181325.63244  24181316.44848
   6400806.33449   4987635.67146         0.00041  21576646.25746  21576640.96649
  -9091168.55049  -7084022.39147         0.00041  20602053.74447  20602049.55449
  -5254246.19149  -4094216.07947         0.00041  20671623.33347  20671619.35349
 -13429378.64249 -10464444.54947         0.00041  20445515.64147  20445512.85149
 -14491071.83549 -11291729.08746         0.00041  22341858.22346  22341852.26349
  -2052253.51848  -1599156.95345         0.00041  23860476.66345  23860469.13748
  11420781.30748   8899306.78446         0.00041  22784126.86546  22784122.80948
 02 07 01 17 33 00.0000000  0  8 03 06 15 17 18 21 22 23
  -3903737.14548  -3041868.84744         0.00041  24162829.05244  24162822.65448
   6480501.37549   5049735.62846         0.00041  21591811.44346  21591806.18349
  -9110978.88049  -7099459.00947         0.00041  20598284.15647  20598279.76749
  -5259406.82649  -4098237.35947         0.00041  20670641.33447  20670637.33549
 -13444091.58149 -10475909.16747         0.00041  20442715.80147  20442713.19449
 -14546111.90849 -11334617.41146         0.00041  22331384.12546  22331378.39149
  -2012343.49048  -1568058.29445         0.00041  23868071.12045  23868063.82848
  11498602.92748   8959946.96346         0.00041  22798935.69446  22798931.89848
 02 07 01 17 33 30.0000000  0  8 03 06 15 17 18 21 22 23
  -4000820.90848  -3117518.39344         0.00041  24144355.79244  24144348.87848
   6560496.41449   5112069.34946         0.00041  21607034.31946  21607029.20849
  -9130660.77849  -7114795.54947         0.00041  20594538.66747  20594534.30049
  -5264457.05649  -4102172.60447         0.00041  20669680.24147  20669676.22849
 -13458476.10849 -10487117.87747         0.00041  20439978.68147  20439975.78349
 -14600958.79749 -11377355.20046         0.00041  22320947.47246  22320941.26449
  -1972133.02548  -1536725.51845         0.00041  23875722.75045  23875716.17848
  11576426.73548   9020588.85546         0.00041  22813745.71446  22813741.12148
 02 07 01 17 34 00.0000000  0  8 03 06 15 17 18 21 22 23
  -4097789.10648  -3193077.91844         0.00041  24125903.94544  24125897.22448
   6640804.60949   5174647.08146         0.00041  21622316.69446  21622311.63449
  -9150198.56349  -7130019.79547         0.00041  20590820.69547  20590816.49949
  -5269381.05849  -4106009.49047         0.00041  20668743.07447  20668739.29249
 -13472518.03149 -10498059.62547         0.00041  20437306.43947  20437303.59549
 -14655597.40149 -11419930.68846         0.00041  22310550.13546  22310543.67449
  -1931609.39348  -1505148.76744         0.00041  23883433.40444  23883426.69548
  11654266.01448   9081242.79546         0.00041  22828557.99046  22828553.53548
 02 07 01 17 34 30.0000000  0  8 03 06 15 17 18 21 22 23
  -4194596.10548  -3268511.84145         0.00041  24107482.56445  24107475.36348
   6721467.29049   5237501.04146         0.00041  21637666.22746  21637661.09249
  -9169548.22249  -7145097.44647         0.00041  20587138.58047  20587134.53049
  -5274134.93949  -4109713.81347         0.00041  20667838.67247  20667834.93449
 -13486174.84349 -10508701.28347         0.00041  20434707.65647  20434705.06249
 -14709984.49549 -11462310.20146         0.00041  22300199.46946  22300194.32149
  -1890731.70148  -1473296.06844         0.00041  23891212.80744  23891204.97348
  11732162.35648   9141941.20446         0.00041  22843381.29346  22843376.60748
 02 07 01 17 35 00.0000000  0  8 03 06 15 17 18 21 22 23
  -4291141.14948  -3343741.64345         0.00041  24089109.33745  24089103.77848
   6802581.26349   5300706.66346         0.00041  21653101.77846  21653096.56449
  -9188610.68449  -7159951.30547         0.00041  20583511.22847  20583507.26349
  -5278619.44149  -4113208.22747         0.00041  20666985.33347  20666981.54849
 -13499349.03249 -10518966.87147         0.00041  20432200.57947  20432197.69649
 -14764021.24549 -11504416.71646         0.00041  22289917.44146  22289911.43849
  -1849403.80148  -1441092.56344         0.00041  23899079.04444  23899069.86048
  11810212.50648   9202759.47146         0.00041  22858233.07346  22858229.03948
 02 07 01 17 35 30.0000000  0  8 03 06 15 17 18 21 22 23
  -4387448.23448  -3418786.03145         0.00041  24070783.09745  24070777.15248
   6884117.85249   5364241.59146         0.00041  21668617.96546  21668612.47449
  -9207411.88349  -7174601.58447         0.00041  20579933.43447  20579929.59349
  -5282860.52849  -4116512.97247         0.00041  20666178.26847  20666174.32349
 -13512067.81449 -10528877.60047         0.00041  20429780.33247  20429777.35449
 -14817734.78549 -11546271.38246         0.00041  22279695.73246  22279690.36949
  -1807654.66348  -1408560.80744         0.00041  23907021.55744  23907014.97148
  11888387.91748   9263675.34346         0.00041  22873109.39646  22873105.56148
 02 07 01 17 36 00.0000000  0  8 03 06 15 17 18 21 22 23
  -4483568.94148  -3493685.17245         0.00041  24052494.18345  24052485.74448
   6966021.10149   5428062.22746         0.00041  21684203.85746  21684198.60649
  -9226005.07149  -7189089.77447         0.00041  20576395.24547  20576391.36949
  -5286911.48549  -4119669.56647         0.00041  20665407.45947  20665403.42449
 -13524386.10949 -10538476.26147         0.00041  20427436.22247  20427433.28849
 -14871179.49949 -11587916.57946         0.00041  22269525.03246  22269519.96549
  -1765540.86148  -1375744.93245         0.00041  23915038.81045  23915029.12948
  11966632.80248   9324645.34546         0.00041  22887999.57646  22887994.85348
 02 07 01 17 36 30.0000000  0  8 03 06 15 17 18 21 22 23
  -4579507.97748  -3568442.77645         0.00041  24034236.34545  24034229.86048
   7048281.91449   5492161.48446         0.00041  21699857.37546  21699852.49849
  -9244397.16349  -7203421.26247         0.00041  20572895.26047  20572891.22649
  -5290778.74349  -4122683.01847         0.00041  20664671.43647  20664667.42649
 -13536312.02949 -10547769.17747         0.00041  20425166.62547  20425163.92549
 -14924362.05249 -11629357.48546         0.00041  22259405.31546  22259399.46649
  -1723071.96148  -1342652.36645         0.00041  23923117.47845  23923110.94948
  12044938.26448   9385662.54946         0.00041  22902900.64846  22902895.86648
 02 07 01 17 37 00.0000000  0  8 03 06 15 17 18 21 22 23
  -4675234.09048  -3643034.45345         0.00041  24016019.81545  24016013.08648
   7130927.47049   5556560.54046         0.00041  21715584.00546  21715579.08449
  -9262558.28549  -7217572.78247         0.00041  20569439.39547  20569435.18849
  -5294432.45649  -4125530.07047         0.00041  20663976.10747  20663972.12449
 -13547817.23649 -10556734.26347         0.00041  20422977.45547  20422974.58649
 -14977253.76349 -11670571.77046         0.00041  22249339.86746  22249334.47749
  -1680221.18248  -1309262.23244         0.00041  23931270.46044  23931264.92248
  12123331.87548   9446748.44946         0.00041  22917818.63246  22917813.63648
 02 07 01 17 37 30.0000000  0  8 03 06 15 17 18 21 22 23
  -4770740.25148  -3717454.74145         0.00041  23997842.66245  23997838.24348
   7213960.36849   5621261.42146         0.00041  21731385.19646  21731379.82049
  -9280482.85549  -7231539.97147         0.00041  20566028.69447  20566024.38249
  -5297867.39149  -4128206.64547         0.00041  20663322.58747  20663318.63849
 -13558897.92549 -10565368.56247         0.00041  20420868.77247  20420865.87149
 -15029849.78049 -11711555.64646         0.00041  22239331.15446  22239326.04449
  -1636986.53048  -1275572.94644         0.00041  23939500.83444  23939491.65048
  12201816.45548   9507905.22746         0.00041  22932753.52146  22932748.76248
 02 07 01 17 38 00.0000000  0  8 03 06 15 17 18 21 22 23
  -4865991.20548  -3791676.15245         0.00041  23979718.86745  23979712.65448
   7297411.51949   5686288.22346         0.00041  21747265.38546  21747260.19049
  -9298137.59549  -7245296.90347         0.00041  20562668.95347  20562664.85349
  -5301049.92949  -4130686.54647         0.00041  20662716.82947  20662713.04249
 -13569522.38049 -10573647.35247         0.00041  20418846.79247  20418844.48749
 -15082117.80349 -11752283.93746         0.00041  22229385.11046  22229379.80149
  -1593337.67548  -1241560.96944         0.00041  23947806.43544  23947797.74748
  12280423.07648   9569157.09246         0.00041  22947712.20746  22947707.03048
 02 07 01 17 38 30.0000000  0  8 03 06 15 17 18 21 22 23
  -4960978.48548  -3865692.10445         0.00041  23961644.11545  23961637.49748
   7381284.64549   5751643.82846         0.00041  21763225.72146  21763220.81249
  -9315516.13649  -7258838.61747         0.00041  20559361.74747  20559357.69749
  -5303973.45249  -4132964.61947         0.00041  20662160.62747  20662156.75049
 -13579685.60549 -10581566.74147         0.00041  20416912.93347  20416910.39949
 -15134051.76849 -11792751.92346         0.00041  22219502.13146  22219496.70249
  -1549271.16048  -1207223.50544         0.00041  23956190.49744  23956183.80848
  12359155.72348   9630507.17146         0.00041  22962694.58346  22962689.29548
 02 07 01 17 39 00.0000000  0  8 03 06 15 17 18 21 22 23
  -5055702.53448  -3939502.94045         0.00041  23943617.31645  23943611.96848
   7465575.23249   5817324.72746         0.00041  21779265.76746  21779260.87449
  -9332620.48249  -7272166.67247         0.00041  20556107.07347  20556102.83649
  -5306640.07049  -4135042.50747         0.00041  20661653.04447  20661649.17749
 -13589391.18449 -10589129.52647         0.00041  20415066.28547  20415063.24749
 -15185655.22849 -11832962.37446         0.00041  22209682.59946  22209676.92049
  -1504792.10248  -1172564.60544         0.00041  23964656.50044  23964647.81248
  12438010.23948   9691952.20346         0.00041  22977699.92346  22977694.88548
 02 07 01 17 39 30.0000000  0  8 03 06 15 17 18 21 22 23
  -5150278.76248  -4013198.60345         0.00041  23925620.42445  23925613.16948
   7550163.40049   5883237.51046         0.00041  21795362.50146  21795357.49749
  -9349567.92249  -7285372.46247         0.00041  20552881.95747  20552877.79549
  -5309166.73149  -4137011.34046         0.00041  20661172.48146  20661168.42549
 -13598757.92749 -10596428.28047         0.00041  20413283.82647  20413281.06349
 -15237045.42049 -11873006.63846         0.00041  22199903.62646  22199897.94449
  -1460021.04448  -1137678.13144         0.00041  23973177.32544  23973167.14848
  12516866.90548   9753398.92246         0.00041  22992706.06746  22992701.21148
 02 07 01 17 40 00.0000000  0  8 03 06 15 17 18 21 22 23
  -5244693.09248  -4086768.07745         0.00041  23907654.29745  23907645.61048
   7635058.70349   5949389.62346         0.00041  21811518.15246  21811512.31749
  -9366345.81949  -7298446.13947         0.00041  20549689.35047  20549684.99749
  -5311541.04149  -4138861.45347         0.00041  20660720.29247  20660716.33549
 -13607774.95649 -10603454.52847         0.00041  20411567.83547  20411565.24749
 -15288211.17849 -11912876.02546         0.00041  22190167.09646  22190161.21649
  -1414948.58348         0.00041         0.00041         0.00041  23981743.64148
  12595735.81648   9814855.17546         0.00041  23007714.42746  23007709.53348
 02 07 01 17 40 30.0000000  0  8 03 06 15 17 18 21 22 23
  -5338912.69148  -4160185.82045         0.00041  23889726.60545  23889717.17348
   7720289.29449   6015802.99046         0.00041  21827736.44746  21827731.03249
  -9382923.30149  -7311363.65147         0.00041  20546534.79847  20546530.52349
  -5313731.94449  -4140568.65447         0.00041  20660303.40747  20660299.57449
 -13616413.07549 -10610185.52347         0.00041  20409924.14147  20409921.24249
 -15339122.79749 -11952547.37446         0.00041  22180478.41946  22180472.81349
  -1369547.28648  -1067179.23344         0.00041  23990393.63044  23990382.21248
  12674645.43648   9876343.14446         0.00041  23022730.09246  23022725.43948
 02 07 01 17 41 00.0000000  0  8 03 06 15 17 18 21 22 23
  -5432920.76348  -4233438.75944         0.00041  23871838.60544  23871827.43548
   7805867.53549   6082487.25846         0.00041  21844022.22946  21844016.19049
  -9399285.38649  -7324113.31947         0.00041  20543421.07847  20543417.06949
  -5315724.42649  -4142121.24647         0.00041  20659924.57147  20659920.59649
 -13624658.78849 -10616610.74847         0.00041  20408354.84247  20408351.87049
 -15389765.87649 -11992009.47246         0.00041  22170841.08446  22170835.94649
  -1323805.13848  -1031536.08244         0.00041  23999098.00144  23999087.57648
  12753608.58948   9937872.84146         0.00041  23037757.10646  23037751.67148
 02 07 01 17 41 30.0000000  0  8 03 06 15 17 18 21 22 23
  -5526689.47848  -4306505.16544         0.00041  23853990.36544  23853983.22548
   7891816.78049   6149460.61946         0.00041  21860377.50746  21860371.83449
  -9415405.85749  -7336674.71747         0.00041  20540353.48147  20540349.42849
  -5317492.32549  -4143498.83347         0.00041  20659588.20247  20659584.24249
 -13632487.73049 -10622711.21447         0.00041  20406865.20947  20406862.26249
 -15440115.06249 -12031242.56046         0.00041  22161260.13446  22161254.90949
  -1277699.27748   -995609.49144         0.00041  24007871.77944  24007863.09148
  12832649.06348   9999462.77546         0.00041  23052797.54746  23052792.80148
 02 07 01 17 42 00.0000000  0  8 03 06 15 17 18 21 22 23
  -5620141.02248  -4379324.43644         0.00041  23836209.22244  23836199.79048
   7978210.21249   6216780.09646         0.00041  21876818.23746  21876812.01649
  -9431208.63149  -7348988.56247         0.00041  20537346.18247  20537342.23149
  -5318959.45349  -4144642.05547         0.00041  20659309.10847  20659305.02049
 -13639825.54049 -10628428.97647         0.00041  20405468.65847  20405465.92149
 -15490095.05149 -12070187.96546         0.00041  22151749.53146  22151743.96049
  -1231156.98048         0.00041         0.00041         0.00041  24016718.64648
  12911840.38348  10061170.24946         0.00041  23067867.13946  23067862.51048
 02 07 01 17 42 30.0000000  0  8 03 06 15 17 18 21 22 23
  -5713555.87548  -4452115.10444         0.00041  23818432.06044  23818423.86948
   8064763.29949   6284223.98246         0.00041  21893288.70846  21893282.73849
  -9446975.54049  -7361274.45847         0.00041  20534345.83247  20534341.94149
  -5320407.71149  -4145770.57047         0.00041  20659033.50547  20659029.38549
 -13646955.67849 -10633984.91547         0.00041  20404111.96547  20404109.15249
 -15539989.12449 -12109066.42046         0.00041  22142254.84146  22142248.98749
  -1184463.29748   -922958.21344         0.00041  24025615.44044  24025605.26448
  12990898.54248  10122773.97546         0.00041  23082911.04346  23082906.89548
 02 07 01 17 43 00.0000000  0  8 03 06 15 17 18 21 22 23
  -5806947.30748  -4524887.54844         0.00041  23800659.91244  23800653.24548
   8151457.78149   6351778.04146         0.00041  21909785.71646  21909780.30149
  -9462721.99049  -7373544.41347         0.00041  20531349.32647  20531345.57449
  -5321852.16649  -4146896.12747         0.00041  20658758.57647  20658754.43049
 -13653895.07249 -10639392.22447         0.00041  20402791.48347  20402788.60249
 -15589813.76449 -12147890.76846         0.00041  22132773.06046  22132767.93349
  -1137636.87448   -886470.19644         0.00041  24034522.56744  24034514.77248
  13069805.75448  10184260.07046         0.00041  23097927.13846  23097922.19948
 02 07 01 17 43 30.0000000  0  8 03 06 15 17 18 21 22 23
  -5900044.02248  -4597430.34644         0.00041  23782945.21644  23782937.02548
   8238560.44549   6419650.17046         0.00041  21926361.20646  21926355.43049
  -9478178.63349  -7385588.54647         0.00041  20528408.09847  20528404.16549
  -5323023.52449  -4147808.88047         0.00041  20658535.79347  20658531.61249
 -13660376.19849 -10644442.44147         0.00041  20401558.06547  20401555.39249
 -15639299.50249 -12186451.03446         0.00041  22123356.73846  22123350.95249
  -1090411.51048   -849671.30244         0.00041  24043510.68944  24043500.76048
  13148829.15548  10245836.70746         0.00041  23112964.82646  23112959.64248
 02 07 01 17 44 00.0000000  0  8 03 06 15 17 18 21 22 23
  -5992737.92148  -4669659.26045         0.00041  23765304.44445  23765297.77848
   8326175.09449   6487921.24246         0.00041  21943033.63446  21943028.16149
  -9493238.88349  -7397323.80147         0.00041  20525542.20747  20525538.14749
  -5323814.84349  -4148425.49747         0.00041  20658385.23147  20658381.19549
 -13666293.99649 -10649053.69947         0.00041  20400431.84947  20400429.16849
 -15688340.94149 -12224665.10646         0.00041  22114024.00146  22114018.55849
  -1042683.81748   -812480.95944         0.00041  24052593.74044  24052584.30848
  13228073.10948  10307585.19446         0.00041  23128043.53346  23128039.18048
 02 07 01 17 44 30.0000000  0  8 03 06 15 17 18 21 22 23
  -6085042.87048  -4741585.10545         0.00041  23747738.61245  23747732.67448
   8414283.29948   6556576.89846         0.00041  21959799.71846  21959794.35848
  -9507918.14349  -7408762.18047         0.00041  20522748.80247  20522744.65449
  -5324241.80349  -4148758.19747         0.00041  20658303.73247  20658299.97149
 -13671665.82149 -10653239.52647         0.00041  20399409.73047  20399406.77349
 -15736954.76049 -12262545.96246         0.00041  22104773.23946  22104767.85549
   -994472.86748   -774914.05344         0.00041  24061766.01344  24061758.33548
  13307519.69848  10369491.57946         0.00041  23143163.23046  23143157.40748
 02 07 01 17 45 00.0000000  0  8 03 06 15 17 18 21 22 23
  -6176878.88248  -4813145.52745         0.00041  23730263.79445  23730256.92548
   8502960.47649   6625675.92246         0.00041  21976674.66346  21976669.21049
  -9522138.11249  -7419842.66747         0.00041  20520042.84647  20520038.69849
  -5324225.98649  -4148745.87747         0.00041  20658307.13447  20658303.08349
 -13676415.09549 -10656940.25047         0.00041  20398506.00547  20398503.06549
 -15785063.62549 -12300033.35046         0.00041  22095618.62446  22095612.92249
   -945703.50948   -736912.03244         0.00041  24071048.56044  24071039.62448
  13387245.04748  10431615.17846         0.00041  23158333.60446  23158328.67348
 02 07 01 17 45 30.0000000  0  7 03 06 15 17 18 21 23
  -6268725.84348  -4884714.51845         0.00041  23712786.52145  23712779.40548
   8591721.76848   6694840.48646         0.00041  21993565.42046  21993560.10448
  -9536380.67349  -7430940.76247         0.00041  20517332.64147  20517328.48449
  -5324249.12949  -4148763.91047         0.00041  20658302.50347  20658298.45449
 -13681025.67349 -10660532.89847         0.00041  20397628.59547  20397625.73949
 -15833150.03449 -12337503.24146         0.00041  22086467.74246  22086462.46849
  13466764.99148  10493578.72946         0.00041  23173465.80046  23173461.14448
 02 07 01 17 46 00.0000000  0  7 03 06 15 17 18 21 23
  -6360602.70948  -4956306.79545         0.00041  23695303.59645  23695296.18448
   8680543.64548   6764052.25046         0.00041  22010468.12546  22010462.29048
  -9550666.49049  -7442072.56447         0.00041  20514614.27347  20514610.11349
  -5324332.14749  -4148828.60347         0.00041  20658286.46947  20658282.43649
 -13685519.79849 -10664034.80347         0.00041  20396773.14347  20396770.55449
 -15881236.48749 -12374973.16146         0.00041  22077317.30246  22077312.13949
  13546056.49648  10555364.28046         0.00041  23188554.26446  23188549.92048
 02 07 01 17 46 30.0000000  0  7 03 06 15 17 18 21 23
  -6452263.16148  -5027730.42145         0.00041  23677861.50545  23677853.31448
   8769668.09949   6833499.79346         0.00041  22027428.46946  22027422.46249
  -9564751.07249  -7453047.55747         0.00041  20511934.05247  20511929.82349
  -5324229.93149  -4148748.95647         0.00041  20658306.04847  20658301.86549
 -13689654.58449 -10667256.70347         0.00041  20395986.29847  20395983.68949
 -15929079.33649 -12412253.26346         0.00041  22068213.56746  22068207.62849
  13625361.68948  10617160.49146         0.00041  23203646.14546  23203640.87648
 02 07 01 17 47 00.0000000  0  7 03 06 15 17 18 21 23
  -6543597.96848  -5098900.30145         0.00041  23660480.79845  23660472.60748
   8859199.51649   6903264.45546         0.00041  22044465.83046  22044459.94949
  -9578526.83549  -7463781.91147         0.00041  20509312.61847  20509308.32749
  -5323835.03149  -4148441.25147         0.00041  20658381.34647  20658377.03849
 -13693324.39249 -10670116.28147         0.00041  20395288.28747  20395285.40949
 -15976571.57349 -12449260.16446         0.00041  22059176.21746  22059169.97149
  13704785.97748  10679049.50546         0.00041  23218760.30746  23218754.78648
 02 07 01 17 47 30.0000000  0  7 03 06 15 17 18 21 23
  -6634577.65548  -5169793.46145         0.00041  23643168.09845  23643159.41048
   8949162.45748   6973365.36046         0.00041  22061584.80046  22061579.04248
  -9591966.17249  -7474254.11647         0.00041  20506755.40847  20506750.97749
  -5323119.90949  -4147884.01847         0.00041  20658517.25347  20658513.18449
 -13696503.47449 -10672593.47347         0.00041  20394683.02847  20394680.47449
 -16023686.74749 -12485973.25646         0.00041  22050210.06746  22050204.16749
  13784354.68548  10741051.04946         0.00041  23233902.09746  23233896.21648
 02 07 01 17 48 00.0000000  0  8 03 06 14 15 17 18 21 23
  -6725244.36648  -5240442.74545         0.00041  23625913.56345  23625906.59148
   9039510.44448   7043766.29446         0.00041  22078777.28346  22078771.70248
        -0.82457         0.00051         0.00051         0.00051  25197722.49057
  -9605112.57549  -7484498.06347         0.00041  20504253.51647  20504249.24149
  -5322128.00549  -4147111.11147         0.00041  20658705.98447  20658702.09549
 -13699237.08749 -10674723.54847         0.00041  20394163.04947  20394160.19449
 -16070469.23549 -12522427.10646         0.00041  22041307.17346  22041302.01249
  13864022.11848  10803129.52246         0.00041  23249061.71646  23249056.39348
 02 07 01 17 48 30.0000000  0  8 03 06 14 15 17 18 21 23
  -6815660.12548  -5310896.46745         0.00041  23608707.54545  23608700.22048
   9130177.05148   7114415.50646         0.00041  22096030.55946  22096025.03648
   -113181.85047         0.00041         0.00041         0.00041  25176185.28947
  -9618029.79749  -7494563.42847         0.00041  20501795.26947  20501791.15849
  -5320922.81549  -4146172.00847         0.00041  20658935.36547  20658931.53549
 -13701591.05149 -10676557.79047         0.00041  20393715.10847  20393712.10949
 -16116984.11549 -12558672.43146         0.00041  22032455.36146  22032450.35349
  13943722.05848  10865233.34046         0.00041  23264228.07046  23264223.20448
 02 07 01 17 49 00.0000000  0  8 03 06 14 15 17 18 21 23
  -6905759.21748  -5381103.45745         0.00041  23591561.37945  23591555.31948
   9221222.93948   7185360.26646         0.00041  22113356.29846  22113350.32148
   -226364.09547         0.00041         0.00041         0.00041  25154645.76047
  -9630654.18649  -7504400.60847         0.00041  20499392.94647  20499388.86249
  -5319440.67849  -4145017.09847         0.00041  20659217.50647  20659213.52849
 -13703503.52249 -10678048.01447         0.00041  20393350.96647  20393348.23049
 -16163168.72549 -12594660.39746         0.00041  22023666.91946  22023661.64349
  14023515.95848  10927410.35446         0.00041  23279412.89846  23279407.45248
 02 07 01 17 49 30.0000000  0  8 03 06 14 15 17 18 21 23
  -6995570.37048  -5451086.09145         0.00041  23574470.81245  23574464.58448
   9312614.97048   7256574.74346         0.00041  22130747.66146  22130741.52548
   -339575.86447         0.00041         0.00041         0.00041  25133101.47047
  -9643015.95949  -7514033.15647         0.00041  20497040.36647  20497036.50649
  -5317711.78249  -4143669.90947         0.00041  20659546.36947  20659542.39249
 -13705006.49849 -10679219.14947         0.00041  20393064.92947  20393062.17049
 -16209054.55849 -12630415.55246         0.00041  22014935.66446  22014929.85949
  14103371.46148  10989635.36746         0.00041  23294608.83146  23294603.56948
 02 07 01 17 50 00.0000000  0  8 03 06 14 15 17 18 21 23
  -7085107.80848  -5520855.40545         0.00041  23557432.06845  23557425.78448
   9404334.09248   7328044.09746         0.00041  22148201.27646  22148195.40548
   -452831.74047         0.00041         0.00041         0.00041  25111550.33247
  -9655130.89049  -7523473.36047         0.00041  20494735.15447  20494731.19249
  -5315751.81749  -4142142.66947         0.00041  20659919.25047  20659915.27449
 -13706117.69049 -10680085.00047         0.00041  20392853.62447  20392850.79849
 -16254658.44249 -12665951.01746         0.00041  22006257.19746  22006251.85949
  14183270.34848  11051894.19646         0.00041  23309812.58546  23309807.92848
 02 07 01 17 50 30.0000000  0  8 03 06 14 15 17 18 21 23
  -7174428.74248  -5590456.02745         0.00041  23540434.92845  23540428.34448
   9496318.37848   7399720.07146         0.00041  22165705.41146  22165699.65148
   -566188.98447         0.00041         0.00041         0.00041  25089978.09147
  -9667058.10949  -7532767.29147         0.00041  20492465.46547  20492461.47749
  -5313619.97049  -4140481.49246         0.00041  20660324.96446  20660320.93849
 -13706898.03649 -10680693.05247         0.00041  20392705.08747  20392702.27549
 -16300040.63449 -12701313.72146         0.00041  21997621.37646  21997615.86749
  14263151.31148  11114139.04346         0.00041  23325014.36046  23325008.82748
 02 07 01 17 51 00.0000000  0  8 03 06 14 15 17 18 21 23
  -7263499.63848  -5659861.79645         0.00041  23523485.67245  23523478.33048
   9588596.71748   7471625.17446         0.00041  22183265.65846  22183259.96948
   -679613.92747         0.00041         0.00041         0.00041  25068394.52847
  -9678765.68049  -7541890.07047         0.00041  20490237.63247  20490233.56449
  -5311284.07549  -4138661.31946         0.00041  20660769.62046  20660765.56549
 -13707317.32349 -10681019.76247         0.00041  20392625.30747  20392622.49949
 -16345169.97449 -12736479.40046         0.00041  21989033.64446  21989027.96249
  14343044.10648  11176393.12246         0.00041  23340216.91546  23340211.86148
 02 07 01 17 51 30.0000000  0  8 03 06 14 15 17 18 21 23
  -7352305.51348  -5729061.08445         0.00041  23506585.50145  23506579.09748
   9681179.54748   7543767.54946         0.00041  22200883.22846  22200878.32548
   -793091.79147         0.00041         0.00041         0.00041  25046798.25447
  -9690240.18849  -7550831.24147         0.00041  20488054.16047  20488050.06849
  -5308730.56849  -4136671.57646         0.00041  20661255.42346  20661251.44549
 -13707364.11449 -10681056.21547         0.00041  20392616.25247  20392613.52249
 -16390034.42049 -12771438.66946         0.00041  21980495.82246  21980490.31149
  14422959.74448  11238664.99746         0.00041  23355423.76046  23355419.27048
 02 07 01 17 52 00.0000000  0  8 03 06 14 15 17 18 21 23
  -7440880.19048  -5798080.21345         0.00041  23489731.60545  23489724.16248
   9774028.26448   7616117.09846         0.00041  22218552.77546  22218546.76848
   -906656.32847         0.00041         0.00041         0.00041  25025188.28947
  -9701517.20449  -7559618.52147         0.00041  20485908.22647  20485904.04249
  -5305994.98649  -4134539.95947         0.00041  20661775.96447  20661772.13049
 -13707076.09949 -10680831.78147         0.00041  20392671.08647  20392668.31949
 -16434670.88449 -12806220.29346         0.00041  21972001.53446  21971996.57049
  14502860.60448  11300925.36146         0.00041  23370629.52046  23370624.27448
 02 07 01 17 52 30.0000000  0  8 03 06 14 15 17 18 21 23
  -7529190.82448  -5866893.60845         0.00041  23472924.67445  23472918.62648
   9867170.75348   7688695.56846         0.00041  22236276.23446  22236270.88548
  -1020274.91547         0.00041         0.00041         0.00041  25003568.53047
  -9712565.66749  -7568227.70847         0.00041  20483805.66547  20483801.61349
  -5303046.71049  -4132242.60447         0.00041  20662337.07547  20662333.16249
 -13706424.08749 -10680323.71547         0.00041  20392795.33547  20392792.47249
 -16479049.05049 -12840800.63746         0.00041  21963557.02046  21963551.80749
  14582775.30248  11363196.50646         0.00041  23385836.16846  23385831.26148
 02 07 01 17 53 00.0000000  0  8 03 06 14 15 17 18 21 23
  -7617230.48748  -5935495.82945         0.00041  23456172.08745  23456165.41148
   9960609.08348   7761504.56146         0.00041  22254057.13846  22254051.32848
  -1133940.75847         0.00041         0.00041         0.00041  24981938.17847
  -9723380.54949  -7576654.88647         0.00041  20481747.75047  20481743.59949
  -5299880.10549  -4129775.12547         0.00041  20662939.64847  20662935.92249
 -13705404.96049 -10679529.58547         0.00041  20392989.18147  20392986.34649
 -16523165.37849 -12875176.95646         0.00041  21955161.96146  21955156.51149
  14662706.85148  11425480.78745         0.00041  23401046.96445  23401041.93548
 02 07 01 17 53 30.0000000  0  8 03 06 14 15 17 18 21 23
  -7704958.40948  -6003855.17645         0.00041  23439476.72845  23439471.27748
  10054379.38748   7834572.23046         0.00041  22271901.43846  22271895.54448
  -1247613.08948         0.00041         0.00041         0.00041  24960308.51848
  -9733922.65249  -7584869.51047         0.00041  20479741.33247  20479737.66449
  -5296456.01849  -4127107.00947         0.00041  20663591.61847  20663587.54249
 -13703981.46849 -10678420.36547         0.00041  20393260.19147  20393257.37049
 -16566982.28949 -12909319.96746         0.00041  21946823.81346  21946818.35349
  14742692.29848  11487807.05445         0.00041  23416266.77145  23416262.68348
 02 07 01 17 54 00.0000000  0  8 03 06 14 15 17 18 21 23
  -7792358.20048  -6071958.79445         0.00041  23422845.34645  23422839.76648
  10148493.23948   7907907.59946         0.00041  22289810.95646  22289804.68648
  -1361275.24648  -1060731.03941         0.00041         0.00041  24938678.48248
  -9744177.08649  -7592859.97547         0.00041  20477789.93247  20477786.38449
  -5292759.46249  -4124226.58147         0.00041  20664294.94447  20664290.73149
 -13702140.70849 -10676986.00247         0.00041  20393610.33547  20393607.61949
 -16610485.03449 -12943218.17246         0.00041  21938545.32346  21938540.11749
  14822744.18748  11550185.10846         0.00041  23431501.63246  23431496.40248
 02 07 01 17 54 30.0000000  0  8 03 06 14 15 17 18 21 23
  -7879451.78048  -6139823.84545         0.00041  23406272.52645  23406266.38148
  10242924.29248   7981490.12246         0.00041  22307780.81746  22307774.73648
  -1474949.08048         0.00041         0.00041         0.00041  24917047.82948
  -9754167.14749  -7600644.43447         0.00041  20475889.02147  20475885.25349
  -5288813.91449  -4121152.13447         0.00041  20665045.82947  20665041.66449
 -13699908.11349 -10675246.31447         0.00041  20394035.25847  20394032.49049
 -16653699.26549 -12976891.56846         0.00041  21930321.97146  21930316.39149
  14902836.87748  11612594.94446         0.00041  23446741.85046  23446737.54248
 02 07 01 17 55 00.0000000  0  8 03 06 14 15 17 18 21 23
  -7966263.99848  -6207469.64445         0.00041  23389752.23545  23389746.93048
  10337642.96448   8055296.77346         0.00041  22325805.10746  22325799.12548
  -1588659.42848         0.00041         0.00041         0.00041  24895408.61048
  -9763919.46249  -7608243.63847         0.00041  20474033.22247  20474029.45249
  -5284645.79349  -4117904.25347         0.00041  20665838.98947  20665834.71449
 -13697312.26849 -10673223.57547         0.00041  20394529.09047  20394526.51549
 -16696651.96549 -13010361.16746         0.00041  21922148.29846  21922143.19349
  14982941.72748  11675014.24646         0.00041  23461986.28246  23461981.15848
 02 07 01 17 55 30.0000000  0  8 03 06 14 15 17 18 21 23
  -8052791.69248  -6274893.75645         0.00041  23373287.06545  23373281.00648
  10432647.31548   8129326.02646         0.00041  22343884.44246  22343878.25748
  -1702403.47748         0.00041         0.00041         0.00041  24873763.81648
  -9773432.97049  -7615656.75547         0.00041  20472223.01947  20472219.00849
  -5280253.89049  -4114481.99647         0.00041  20666674.55047  20666670.52349
 -13694353.97749 -10670918.40747         0.00041  20395091.90547  20395089.09649
 -16739343.28649 -13043627.09646         0.00041  21914024.12046  21914019.11149
  15063057.72448  11737442.24845         0.00041  23477231.85645  23477226.60548
 02 07 01 17 56 00.0000000  0  8 03 06 14 15 17 18 21 23
  -8139027.40848  -6342090.32945         0.00041  23356876.59345  23356870.57748
  10527940.20248   8203580.11946         0.00041  22362016.95646  22362011.68448
  -1816173.81848         0.00041         0.00041         0.00041  24852115.38148
  -9782701.86149  -7622879.26247         0.00041  20470459.17047  20470455.19349
  -5275632.18249  -4110880.67247         0.00041  20667554.07547  20667550.16449
 -13691029.42749 -10668327.84347         0.00041  20395724.73947  20395721.81949
 -16781768.85549 -13076685.94046         0.00041  21905951.03446  21905946.03449
  15143188.50548  11799881.74945         0.00041  23492480.31945  23492475.00248
 02 07 01 17 56 30.0000000  0  8 03 06 14 15 17 18 21 23
  -8224950.59048  -6409043.38545         0.00041  23340525.77645  23340519.79248
  10623537.52248   8278071.42446         0.00041  22380209.65946  22380203.51948
  -1929949.49248         0.00041         0.00041         0.00041  24830465.09948
  -9791706.95149  -7629896.20847         0.00041  20468745.71647  20468741.66049
  -5270761.69849  -4107085.49347         0.00041  20668480.61347  20668476.96349
 -13687321.37149 -10665438.44047         0.00041  20396430.21747  20396427.62049
 -16823910.76249 -13109523.75546         0.00041  21897931.83946  21897926.59449
  15223350.86948  11862345.88345         0.00041  23507734.03045  23507729.10848
 02 07 01 17 57 00.0000000  0  8 03 06 14 15 17 18 21 23
  -8310577.53048  -6475765.59945         0.00041  23324233.06945  23324225.80848
  10719418.01048   8352783.37546         0.00041  22398455.21946  22398449.25448
  -2043746.92748  -1592525.87741         0.00041         0.00041  24808808.86948
  -9800466.07749  -7636721.49447         0.00041  20467078.69347  20467074.80949
  -5265660.29749  -4103110.38146         0.00041  20669451.52746  20669447.67949
 -13683250.05649 -10662265.98047         0.00041  20397205.10547  20397202.42049
 -16865787.85049 -13142155.21546         0.00041  21889962.44446  21889957.46849
  15303524.60648  11924818.87145         0.00041  23522991.85945  23522985.94148
 02 07 01 17 57 30.0000000  0  8 03 06 14 15 17 18 21 23
  -8395927.53148  -6542272.02045         0.00041  23307990.99545  23307984.28848
  10815557.31248   8427697.00346         0.00041  22416750.07046  22416744.10448
  -2157585.60248         0.00041         0.00041         0.00041  24787146.43848
  -9809000.45049  -7643371.64647         0.00041  20465454.67747  20465450.84649
  -5260349.09449  -4098971.79046         0.00041  20670462.13246  20670458.36349
 -13678838.20249 -10658828.16947         0.00041  20398044.57847  20398041.87749
 -16907423.16949 -13174598.28146         0.00041  21882039.89146  21882034.09849
  15383686.79248  11987282.85345         0.00041  23538245.01645  23538240.11348
 02 07 01 17 58 00.0000000  0  8 03 06 14 15 17 18 21 23
  -8481007.03548  -6608567.64445         0.00041  23291800.00545  23291793.68748
  10911944.40948   8502803.70546         0.00041  22435091.25346  22435085.73248
  -2271471.65748         0.00041         0.00041         0.00041  24765475.05748
  -9817318.23549  -7649853.02747         0.00041  20463871.81747  20463868.09349
  -5254835.91449  -4094675.81246         0.00041  20671511.41846  20671507.45949
 -13674096.20449 -10655133.09847         0.00041  20398946.93747  20398944.25749
 -16948825.75049 -13206859.99646         0.00041  21874161.29546  21874155.50649
  15463827.23948  12049729.89345         0.00041  23553496.74445  23553490.63448
 02 07 01 17 58 30.0000000  0  8 03 06 14 15 17 18 21 23
  -8565769.79848  -6674616.48245         0.00041  23275670.83845  23275663.40448
  11008620.76148   8578135.81946         0.00041  22453488.73346  22453482.81448
  -2385358.83248         0.00041         0.00041         0.00041  24743803.53048
  -9825374.53149  -7656130.65047         0.00041  20462338.78847  20462335.01449
  -5249076.11449  -4090187.66046         0.00041  20672607.40946  20672603.41749
 -13668981.45049 -10651147.57047         0.00041  20399920.52247  20399917.75049
 -16989951.56049 -13238906.05746         0.00041  21866335.28746  21866329.58949
  15543988.19848  12112192.93145         0.00041  23568749.71745  23568744.71748
 02 07 01 17 59 00.0000000  0  8 03 06 14 15 17 18 21 23
  -8650222.58248  -6740423.75945         0.00041  23259599.09245  23259592.15348
  11105574.64048   8653684.17746         0.00041  22471938.63746  22471932.41448
  -2499254.14048         0.00041         0.00041         0.00041  24722129.88948
  -9833177.74049  -7662211.05847         0.00041  20460853.66747  20460850.06649
  -5243077.93649  -4085513.76346         0.00041  20673748.98046  20673744.89749
 -13663504.23049 -10646879.60447         0.00041  20400962.59647  20400959.92549
 -17030810.93449 -13270744.49846         0.00041  21858559.46346  21858554.52649
  15624159.23548  12174663.79845         0.00041  23584005.98945  23584000.83148
 02 07 01 17 59 30.0000000  0  8 03 06 14 15 17 18 21 23
  -8734370.69948  -6805993.62945         0.00041  23243586.59545  23243579.76548
  11202796.08648   8729441.03346         0.00041  22490439.80846  22490432.77448
  -2613162.56248  -2036225.25741         0.00041         0.00041  24700453.71448
  -9840734.75249  -7668099.62347         0.00041  20459415.61947  20459411.94749
  -5236848.32849  -4080659.52246         0.00041  20674934.13946  20674930.46749
 -13657673.67149 -10642336.30647         0.00041  20402072.00447  20402069.42649
 -17071412.50749 -13302382.05746         0.00041  21850833.46146  21850828.33849
  15704331.38148  12237135.55945         0.00041  23599261.69845  23599257.10848
 02 07 01 18 00 00.0000000  0  8 03 06 14 15 17 18 21 23
  -8818190.63548  -6871307.77645         0.00041  23227636.11745  23227629.43048
  11300304.07448   8805421.14546         0.00041  22508995.36746  22508987.71248
  -2727060.35348         0.00041         0.00041         0.00041  24678781.03848
  -9848023.52849  -7673779.17547         0.00041  20458028.60647  20458025.01349
  -5230365.11249  -4075607.66946         0.00041  20676167.86146  20676164.08549
 -13651469.69949 -10637502.03747         0.00041  20403252.52747  20403250.00549
 -17111735.16949 -13333802.28346         0.00041  21843159.99446  21843154.94849
  15784524.67048  12299623.76545         0.00041  23614522.28345  23614517.06548
 02 07 01 18 00 30.0000000  0  8 03 06 14 15 17 18 21 23
  -8901692.06748  -6936373.74645         0.00041  23211745.90145  23211739.96148
  11398083.89148   8881613.08446         0.00041  22527601.87546  22527595.16848
  -2840957.15948  -2213727.10041         0.00041         0.00041  24657106.97448
  -9855055.44249  -7679258.57247         0.00041  20456690.45347  20456686.90249
  -5223639.53349  -4070366.95246         0.00041  20677447.70346  20677443.91849
 -13644905.98349 -10632387.44647         0.00041  20404501.51947  20404498.99949
 -17151791.06249 -13365014.63646         0.00041  21835537.75846  21835532.51249
  15864725.27848  12362117.69445         0.00041  23629784.13345  23629779.16648
 02 07 01 18 01 00.0000000  0  8 03 06 14 15 17 18 21 23
  -8984891.99948  -7001204.76945         0.00041  23195913.36345  23195907.80348
  11496113.41948   8957999.59646         0.00041  22546256.48146  22546249.87048
  -2954870.27748  -2302490.37144         0.00041  24635436.50644  24635430.05548
  -9861849.59249  -7684552.69647         0.00041  20455397.54847  20455393.94049
  -5216690.62449  -4064952.20347         0.00041  20678769.63547  20678766.34449
 -13638003.40549 -10627008.81447         0.00041  20405815.07047  20405812.37049
 -17191601.13049 -13396035.43746         0.00041  21827962.58146  21827956.96349
  15944912.35648  12424601.08345         0.00041  23645043.33345  23645038.02848
 02 07 01 18 01 30.0000000  0  8 03 06 14 15 17 18 21 23
  -9067758.54648  -7065776.02145         0.00041  23180144.26445  23180138.38148
  11594419.60848   9034601.69146         0.00041  22564963.87746  22564956.89648
  -3068767.58748  -2391241.30944         0.00041  24613766.59844  24613756.42248
  -9868375.62449  -7689637.90347         0.00041  20454155.79947  20454152.05349
  -5209488.03849  -4059339.84046         0.00041  20680140.75546  20680136.92749
 -13630733.75849 -10621344.11747         0.00041  20407198.41747  20407195.87649
 -17231136.36849 -13426842.08846         0.00041  21820438.91846  21820433.41649
  16025114.22248  12487095.98945         0.00041  23660306.54245  23660300.15948
 02 07 01 18 02 00.0000000  0  8 03 06 14 15 17 18 21 23
  -9150283.71548  -7130081.27545         0.00041  23164440.43045  23164433.83248
  11693005.90248   9111422.04746         0.00041  22583723.88246  22583717.20348
  -3182641.03148  -2479973.63444         0.00041  24592096.53444  24592086.10948
  -9874626.94549  -7694509.05247         0.00041  20452966.21847  20452962.37549
  -5202024.86249  -4053524.37346         0.00041  20681561.06946  20681557.16349
 -13623092.49149 -10615389.87747         0.00041  20408652.47847  20408649.88349
 -17270391.34049 -13457430.34846         0.00041  21812968.91546  21812963.47149
  16105335.34748  12549605.90545         0.00041  23675570.60945  23675566.09048
 02 07 01 18 02 30.0000000  0  8 03 06 14 15 17 18 21 23
  -9232475.28548  -7194126.57245         0.00041  23148800.34745  23148793.37448
  11791859.73048   9188450.87246         0.00041  22602535.09046  22602528.84048
  -3296498.13648  -2568693.28444         0.00041  24570428.20344  24570419.76448
  -9880612.74749  -7699173.30647         0.00041  20451827.02747  20451823.19149
  -5194310.52449  -4047513.19946         0.00041  20683028.94346  20683025.05649
 -13615090.89849 -10609154.86347         0.00041  20410175.13947  20410172.60249
 -17309376.56849 -13487808.41846         0.00041  21805550.27846  21805544.82749
  16185564.21148  12612121.85645         0.00041  23690837.74945  23690832.97748
 02 07 01 18 03 00.0000000  0  8 03 06 14 15 17 18 21 23
  -9314345.95848  -7257921.82345         0.00041  23133219.93845  23133214.31048
  11890963.70848   9265674.61946         0.00041  22621393.89846  22621388.05548
  -3410351.60748  -2657410.09944         0.00041  24548762.92944  24548753.74548
  -9886347.45049  -7703641.90147         0.00041  20450736.03847  20450732.03849
  -5186359.39549  -4041317.51846         0.00041  20684542.05546  20684538.08049
 -13606745.80049 -10602652.18247         0.00041  20411763.00347  20411760.56849
 -17348107.44549 -13517988.28846         0.00041  21798180.12146  21798174.67049
  16265784.41048  12674631.05345         0.00041  23706102.52945  23706097.77848
 02 07 01 18 03 30.0000000  0  8 03 06 14 15 17 18 21 23
  -9395893.38448  -7321465.18745         0.00041  23117701.51845  23117696.16148
  11990315.29348   9343091.30146         0.00041  22640300.13346  22640294.15048
  -3524198.71548  -2746121.95744         0.00041  24527095.14244  24527087.83548
  -9891830.21549  -7707914.18247         0.00041  20449692.64147  20449688.67449
  -5178170.57549  -4034936.62346         0.00041  20686100.22046  20686096.40049
 -13598058.55549 -10595882.89647         0.00041  20413416.32447  20413413.69549
 -17386585.13449 -13547970.86946         0.00041  21790857.62646  21790852.79149
  16345994.69048  12737132.51445         0.00041  23721366.72045  23721360.98148
 02 07 01 18 04 00.0000000  0  8 03 06 14 15 17 18 21 23
  -9477082.76148  -7384729.56645         0.00041  23102252.40845  23102246.35948
  12089944.34048   9420724.17446         0.00041  22659258.92046  22659252.66148
  -3638004.72948  -2834801.79544         0.00041  24505441.51544  24505432.57948
  -9897027.92649  -7711964.34447         0.00041  20448703.52847  20448699.65449
  -5169710.61149  -4028344.44546         0.00041  20687710.20446  20687706.21749
 -13588998.03549 -10588822.74847         0.00041  20415140.86847  20415137.81049
 -17424777.41949 -13577731.05846         0.00041  21783589.59946  21783584.96749
  16426226.17048  12799650.49445         0.00041  23736633.58945  23736629.03548
 02 07 01 18 04 30.0000000  0  8 03 06 14 15 17 18 21 23
  -9557920.98248  -7447720.30645         0.00041  23086869.27245  23086863.16648
  12189839.03648   9498564.05946         0.00041  22678268.34946  22678262.42248
  -3751776.44448  -2923454.90244         0.00041  24483790.93244  24483782.24448
  -9901949.18849  -7715799.09247         0.00041  20447766.86447  20447763.18049
  -5160988.40449  -4021547.92746         0.00041  20689369.96446  20689366.18449
 -13579574.75149 -10581479.92747         0.00041  20416933.94047  20416931.09149
 -17462694.71949 -13607276.97046         0.00041  21776374.57146  21776369.57749
  16506468.20248  12862176.70945         0.00041  23751904.91845  23751899.20548
 02 07 01 18 05 00.0000000  0  8 03 06 14 15 17 18 21 23
  -9638470.66948  -7510486.24145         0.00041  23071540.56845  23071535.13948
  12289931.87748   9576558.33846         0.00041  22697315.91346  22697309.55848
  -3865576.34848         0.00041         0.00041         0.00041  24462127.05948
  -9906657.76249  -7719468.11547         0.00041  20446870.97047  20446867.01349
  -5152067.55149  -4014596.61846         0.00041  20691067.70746  20691063.77949
 -13569855.07049 -10573906.14747         0.00041  20418783.52747  20418780.65649
 -17500401.63249 -13636658.94446         0.00041  21769198.98946  21769194.02249
  16586654.71648  12924659.65045         0.00041  23767162.58945  23767158.05248
 02 07 01 18 05 30.0000000  0  8 03 06 14 15 17 18 21 23
  -9718678.12748  -7572985.48345         0.00041  23056278.33045  23056272.13148
  12390271.59848   9654744.98746         0.00041  22716409.85446  22716403.12948
  -3979350.63348  -3100785.10944         0.00041  24440484.74844  24440477.12548
  -9911101.85349  -7722931.04447         0.00041  20446025.37047  20446021.33349
  -5142896.19149  -4007450.11246         0.00041  20692812.73046  20692808.92249
 -13559788.98749 -10566062.44247         0.00041  20420698.93847  20420696.09149
 -17537848.07749 -13665837.95746         0.00041  21762073.18646  21762068.09549
  16666835.62248  12987138.23045         0.00041  23782419.41545  23782415.82248
 02 07 01 18 06 00.0000000  0  8 03 06 14 15 17 18 21 23
  -9798554.66848  -7635226.86645         0.00041  23041078.51245  23041072.03948
  12490842.28448   9733111.60446         0.00041  22735547.71146  22735540.93548
  -4093110.50848  -3189429.02244         0.00041  24418834.49044  24418828.51048
  -9915294.28649  -7726197.88647         0.00041  20445227.40747  20445223.50449
  -5133487.10449  -4000118.35446         0.00041  20694603.38746  20694599.35649
 -13549391.59349 -10557960.57547         0.00041  20422677.44047  20422674.81949
 -17575048.64449 -13694825.38046         0.00041  21754993.96946  21754989.12049
  16746996.06748  13049600.85545         0.00041  23797675.97945  23797670.04048
 02 07 01 18 06 30.0000000  0  8 03 06 14 15 17 18 21 23
  -9878081.02448  -7697195.38745         0.00041  23025943.67945  23025938.71548
  12591658.44948   9811669.50146         0.00041  22754733.48746  22754726.01448
  -4206836.17348  -3278046.27244         0.00041  24397195.21444  24397186.52648
  -9919217.12049  -7729254.64347         0.00041  20444481.00447  20444477.06649
  -5123822.45549  -3992587.46846         0.00041  20696442.46446  20696438.52149
 -13538647.14249 -10549588.27147         0.00041  20424721.94747  20424719.44849
 -17611986.06949 -13723607.75646         0.00041  21747964.87246  21747960.02549
  16827151.99848  13112059.98145         0.00041  23812928.28245  23812922.86748
 02 07 01 18 07 00.0000000  0  8 03 06 14 15 17 18 21 23
  -9957234.30448  -7758873.20546         0.00041  23010881.18446  23010876.53048
  12692737.88948   9890432.55146         0.00041  22773968.66346  22773961.33148
  -4320504.93448  -3366619.17744         0.00041  24375562.44844  24375555.35448
  -9922849.28749  -7732084.90847         0.00041  20443789.71447  20443785.97749
  -5113880.76949  -3984840.70846         0.00041  20698334.37046  20698330.25549
 -13527536.76349 -10540930.82847         0.00041  20426836.06847  20426833.71249
 -17648641.36649 -13752170.29446         0.00041  21740989.71646  21740984.77549
  16907322.65448  13174530.57545         0.00041  23828183.46045  23828178.92148
 02 07 01 18 07 30.0000000  0  8 03 06 14 15 17 18 21 23
 -10036013.12148  -7820259.23946         0.00041  22995890.81446  22995885.46248
  12794077.26548   9969398.15246         0.00041  22793252.66446  22793245.90348
  -4434114.98048  -3455146.35144         0.00041  24353943.38544  24353936.05448
  -9926190.82349  -7734688.70547         0.00041  20443154.04447  20443150.23349
  -5103662.40949  -3976878.35946         0.00041  20700278.71546  20700274.79149
 -13516062.69449 -10531989.99147         0.00041  20429019.31847  20429016.97149
 -17685015.75249 -13780513.93446         0.00041  21734068.00246  21734063.12549
  16987505.85348  13237010.93045         0.00041  23843443.62445  23843437.20848
 02 07 01 18 08 00.0000000  0  8 03 06 14 15 17 18 21 23
 -10114429.56248  -7881362.89146         0.00041  22980969.75346  22980963.23848
  12895659.54348  10048553.00446         0.00041  22812583.44746  22812576.39048
  -4547678.40748  -3543637.16144         0.00041  24332336.35344  24332325.43148
  -9929255.38649  -7737076.68147         0.00041  20442570.64347  20442567.11149
  -5093180.74049  -3968710.83446         0.00041  20702273.27746  20702269.48549
 -13504240.92149 -10522778.21347         0.00041  20431268.95347  20431266.70149
 -17721124.57749 -13808650.64746         0.00041  21727196.63646  21727191.94649
  17067685.88148  13299488.82745         0.00041  23858701.83245  23858694.91148
 02 07 01 18 08 30.0000000  0  8 03 06 14 15 17 18 21 23
 -10192487.07948  -7942186.85046         0.00041  22966115.64046  22966108.95048
  12997476.36848  10127890.62446         0.00041  22831958.17746  22831951.80748
  -4661198.55148  -3632094.24844         0.00041  24310733.94244  24310723.26948
  -9932048.05749  -7739252.79547         0.00041  20442039.35947  20442035.68049
  -5082440.78749  -3960342.04546         0.00041  20704317.13146  20704313.23149
 -13492078.31649 -10513300.85347         0.00041  20433583.58247  20433581.17849
 -17756973.92349 -13836585.17246         0.00041  21720374.75846  21720369.94449
  17147855.82048  13361958.83645         0.00041  23873956.66945  23873951.13648
 02 07 01 18 09 00.0000000  0  8 03 06 14 15 17 18 21 23
 -10270207.52948  -8002748.15746         0.00041  22951325.15746  22951318.77848
  13099501.22048  10207390.35146         0.00041  22851373.16046  22851366.53948
  -4774696.80848  -3720534.26644         0.00041  24289134.70044  24289125.02048
  -9934591.83749  -7741234.96947         0.00041  20441555.15547  20441551.52149
  -5071465.81349  -3951790.12146         0.00041  20706405.67646  20706401.61449
 -13479600.65449 -10503577.99647         0.00041  20435958.23647  20435955.47749
 -17792588.86849 -13864337.04946         0.00041  21713597.10846  21713592.35449
  17227990.35248  13424401.27645         0.00041  23889205.50045  23889200.10048
 02 07 01 18 09 30.0000000  0  8 03 06 14 15 17 18 21 23
 -10347564.81448  -8063026.49746         0.00041  22936603.74146  22936598.41048
  13201755.27048  10287068.66346         0.00041  22870832.00646  22870824.93848
  -4888147.24548  -3808937.10044         0.00041  24267544.03744  24267535.35048
  -9936862.47149  -7743004.30047         0.00041  20441123.09747  20441119.41449
  -5060231.34249  -3943035.99846         0.00041  20708543.54146  20708539.45749
 -13466785.68549 -10493592.30647         0.00041  20438396.72747  20438393.96949
 -17827946.14749 -13891888.14646         0.00041  21706869.27046  21706864.18449
  17308111.88048  13486833.57645         0.00041  23904453.45745  23904447.20748
 02 07 01 18 10 00.0000000  0  8 03 06 14 15 17 18 21 23
 -10424559.11248  -8123021.99246         0.00041  22921953.81046  22921946.82148
  13304233.76448  10366921.86946         0.00041  22890332.54846  22890325.67048
  -5001549.29948  -3897302.17444         0.00041  24245966.04144  24245955.86448
  -9938861.21749  -7744561.77047         0.00041  20440742.84247  20440739.08049
  -5048738.52049  -3934080.56046         0.00041  20710730.54346  20710726.50649
 -13453636.86349 -10483346.47147         0.00041  20440898.91347  20440896.17549
 -17863048.65849 -13919240.72646         0.00041  21700189.36646  21700184.57049
  17388217.16348  13549253.21445         0.00041  23919695.84345  23919690.67448
 02 07 01 18 10 30.0000000  0  8 03 06 14 15 17 18 21 23
 -10501190.63248  -8182734.78246         0.00041  22907369.80846  22907364.43448
  13406931.17048  10446945.63545         0.00041  22909875.99845  22909868.54448
  -5114903.33048  -3985629.82244         0.00041  24224395.97544  24224384.55748
  -9940590.41249  -7745909.19647         0.00041  20440413.64547  20440410.08049
  -5036989.59249  -3924925.56446         0.00041  20712966.38146  20712962.14849
 -13440158.45249 -10472843.81047         0.00041  20443463.58847  20443461.09949
 -17897899.45749 -13946397.16346         0.00041  21693557.18146  21693552.27849
  17468302.05648  13611656.96845         0.00041  23934936.01445  23934930.88948
 02 07 01 18 11 00.0000000  0  8 03 06 14 15 17 18 21 23
 -10577509.27148  -8242203.79046         0.00041  22892847.29046  22892841.29048
  13509792.98948  10527097.52746         0.00041  22929449.36346  22929442.90948
  -5228259.06048  -4073958.78844         0.00041  24202821.92244  24202813.48348
  -9942101.05649  -7747086.32147         0.00041  20440126.26947  20440122.62549
  -5025035.66849  -3915610.83246         0.00041  20715241.08946  20715236.91749
 -13426404.11249 -10462126.13947         0.00041  20446081.08147  20446078.49049
 -17932551.85349 -13973399.00446         0.00041  21686963.16846  21686958.18849
  17548313.36748  13674003.38545         0.00041  23950162.69845  23950156.29148
 02 07 01 18 11 30.0000000  0  8 03 06 14 15 17 18 21 23
 -10653433.32848  -8301365.33246         0.00041  22878399.32646  22878393.35648
  13612896.05948  10607437.39146         0.00041  22949070.81346  22949062.37448
  -5341534.40948  -4162225.12144         0.00041  24181269.25044  24181257.83248
  -9943313.15249  -7748030.81047         0.00041  20439895.54447  20439891.86249
  -5012796.56749  -3906073.88146         0.00041  20717569.82846  20717566.07149
 -13412295.73249 -10451132.59747         0.00041  20448765.97247  20448763.19049
 -17966927.13249 -14000184.90946         0.00041  21680421.80346  21680416.99749
  17628329.36048  13736353.44745         0.00041  23965387.78545  23965383.19348
 02 07 01 18 12 00.0000000  0  8 03 06 14 15 17 18 21 23
 -10728970.56248  -8360225.45346         0.00041  22864024.72046  22864019.29648
  13716228.01648  10687955.61646         0.00041  22968733.86846  22968725.98748
  -5454736.57848         0.00041         0.00041         0.00041  24159715.92148
  -9944235.63249  -7748749.62447         0.00041  20439720.17147  20439716.21549
  -5000281.26149  -3896321.70346         0.00041  20719951.50246  20719947.82749
 -13397844.56049 -10439871.94547         0.00041  20451515.86347  20451513.30249
 -18001035.83949 -14026763.09546         0.00041  21673931.61846  21673926.31349
  17708339.20548  13798698.72545         0.00041  23980613.67245  23980608.86548
 02 07 01 18 12 30.0000000  0  8 03 06 14 15 17 18 21 23
 -10804080.48848  -8418752.62146         0.00041  22849731.46846  22849726.60448
  13819824.49248  10768679.94945         0.00041  22988446.71045  22988439.79648
  -5567825.05148  -4338555.08344         0.00041  24138204.34144  24138195.40548
  -9944829.41149  -7749212.30847         0.00041  20439607.06647  20439603.20449
  -4987450.78649  -3886323.93946         0.00041  20722393.14646  20722389.41649
 -13383013.69049 -10428315.41747         0.00041  20454338.03147  20454335.60249
 -18034840.12849 -14053104.07246         0.00041  21667498.65746  21667493.74349
  17788380.03248  13861068.14345         0.00041  23995844.50645  23995839.79648
 02 07 01 18 13 00.0000000  0  8 03 06 14 15 17 18 21 23
 -10878813.17448  -8476985.83646         0.00041  22835509.89746  22835505.22748
  13923630.37348  10849567.44745         0.00041  23008202.47545  23008194.28448
  -5680849.65148  -4426625.97844         0.00041  24116697.50944  24116687.33248
  -9945146.08949  -7749459.07047         0.00041  20439546.87947  20439543.01549
  -4974356.58249  -3876120.66846         0.00041  20724884.92946  20724881.23649
 -13367857.44149 -10416505.34947         0.00041  20457222.11847  20457219.61949
 -18068393.28449 -14079249.36546         0.00041  21661113.55346  21661108.66349
  17868398.13148  13923419.83245         0.00041  24011072.01045  24011066.64648
 02 07 01 18 13 30.0000000  0  8 03 06 14 15 17 18 21 23
 -10953180.79948  -8534934.56646         0.00041  22821359.06346  22821353.12448
  14027628.78948  10930604.98045         0.00041  23027991.55245  23027984.71448
  -5793822.10448  -4514656.25544         0.00041  24095198.70744  24095190.26748
  -9945199.39849  -7749500.61247         0.00041  20439536.65447  20439532.84749
  -4961012.32249  -3865722.54646         0.00041  20727424.27646  20727420.49849
 -13352391.37849 -10404453.86747         0.00041  20460165.11047  20460162.74649
 -18101710.27749 -14105210.63646         0.00041  21654773.62046  21654768.51049
  17948378.11148  13985741.83345         0.00041  24026292.12345  24026286.32848
 02 07 01 18 14 00.0000000  0  8 03 06 14 15 17 18 21 23
 -11027157.12348  -8592578.38946         0.00041  22807281.67446  22807275.70248
  14131841.10748  11011809.18345         0.00041  23047823.40445  23047815.90648
  -5906715.98748  -4602625.23244         0.00041  24073715.60244  24073707.16248
  -9944964.51449  -7749317.58547         0.00041  20439581.53747  20439577.77349
  -4947393.16149  -3855110.22346         0.00041  20730016.04246  20730012.20949
 -13336592.97249 -10392143.41547         0.00041  20463171.47847  20463169.08949
 -18134768.41749 -14130970.20446         0.00041  21648482.61846  21648477.92649
  18028342.79148  14048051.91145         0.00041  24041509.43645  24041503.03848
 02 07 01 18 14 30.0000000  0  8 03 06 14 15 17 18 21 23
 -11100766.55848  -8649936.32046         0.00041  22793274.23146  22793268.29148
  14236238.19948  11093157.36645         0.00041  23067689.47245  23067682.19848
  -6019555.53948  -4690551.90344         0.00041  24052245.34444  24052234.42248
  -9944467.34149  -7748930.18147         0.00041  20439676.02347  20439672.24249
  -4933524.91049  -3844303.80046         0.00041  20732654.98046  20732651.17649
 -13320490.23049 -10379595.81847         0.00041  20466235.78447  20466233.16449
 -18167594.72549 -14156549.12546         0.00041  21642235.77346  21642231.21449
  18108264.31348  14110328.34145         0.00041  24056718.80645  24056711.58448
 02 07 01 18 15 00.0000000  0  8 03 06 14 15 17 18 21 23
 -11174046.68548  -8707037.66146         0.00041  22779329.34346  22779323.14048
  14340777.63748  11174616.46845         0.00041  23087582.44445  23087575.00148
  -6132377.94548  -4778465.18044         0.00041  24030772.41844  24030764.51248
  -9943746.83349  -7748368.74947         0.00041  20439813.27047  20439809.39049
  -4919446.44549  -3833333.57946         0.00041  20735334.15946  20735330.17249
 -13304124.51049 -10366843.30647         0.00041  20469350.21547  20469347.36749
 -18200229.52349 -14181978.81546         0.00041  21636025.37446  21636020.78249
  18188102.06748  14172539.51445         0.00041  24071910.59345  24071903.95148
 02 07 01 18 15 30.0000000  0  8 03 06 14 15 17 18 21 23
 -11247004.59148  -8763887.90846         0.00041  22765445.73646  22765439.66148
  14445447.48648  11256177.16845         0.00041  23107501.37845  23107492.93948
  -6245190.00348  -4866370.37444         0.00041  24009304.15344  24009295.96248
  -9942811.56849  -7747639.97447         0.00041  20439991.27747  20439987.37949
  -4905166.41049  -3822206.28946         0.00041  20738051.24546  20738047.62149
 -13287506.48449 -10353894.19347         0.00041  20472512.54747  20472509.95749
 -18232683.62049 -14207267.69946         0.00041  21629849.81946  21629845.14849
  18267845.42148  14234677.13245         0.00041  24087083.66945  24087078.99748
 02 07 01 18 16 00.0000000  0  8 03 06 14 15 17 18 21 23
 -11319520.01148  -8820393.36946         0.00041  22751646.09846  22751641.09848
  14550362.89248  11337929.21445         0.00041  23127465.99445  23127457.55548
  -6357871.23148  -4954173.61345         0.00041  23987861.68445  23987852.74848
  -9941542.87449  -7746651.38147         0.00041  20440232.51047  20440228.74349
  -4890566.15449  -3810829.47946         0.00041  20740829.77546  20740825.87549
 -13270519.88049 -10340657.87547         0.00041  20475744.64847  20475742.46149
 -18264839.41149 -14232324.14046         0.00041  21623730.71646  21623725.86549
  18347611.26848  14296832.26745         0.00041  24102263.18045  24102257.88448
 02 07 01 18 16 30.0000000  0  8 03 06 14 15 17 18 21 23
 -11391634.73648  -8876586.60146         0.00041  22737923.05146  22737918.37248
  14655477.37448  11419836.37445         0.00041  23147467.00345  23147459.66248
  -6470462.94548  -5041907.09045         0.00041  23966433.71545  23966426.87148
  -9939983.72349  -7745436.46147         0.00041  20440529.27447  20440525.51749
  -4875688.54349  -3799236.54746         0.00041  20743660.93246  20743656.87649
 -13253210.10549 -10327169.73447         0.00041  20479038.85647  20479036.18149
 -18296740.97749 -14257182.48046         0.00041  21617659.84046  21617655.24149
  18427354.75248  14358969.98745         0.00041  24117437.31045  24117432.70748
 02 07 01 18 17 00.0000000  0  8 03 06 14 15 17 18 21 23
 -11463345.12048  -8932464.77646         0.00041  22724277.16746  22724272.02848
  14760790.00248  11501897.92945         0.00041  23167508.56145  23167500.95748
  -6582961.06448  -5129567.66445         0.00041  23945028.23745  23945019.54948
  -9938131.68649  -7743993.31447         0.00041  20440881.74647  20440877.96149
  -4860531.39949  -3787425.80246         0.00041  20746545.33446  20746541.28549
 -13235576.74849 -10313429.45747         0.00041  20482394.22547  20482391.69249
 -18328387.44949 -14281842.04946         0.00041  21611637.52846  21611633.05949
  18507076.37548  14421090.67945         0.00041  24132609.14945  24132603.37248
 02 07 01 18 17 30.0000000  0  8 03 06 14 15 17 18 21 23
 -11534616.17848  -8988000.60746         0.00041  22710714.65946  22710709.44048
  14866330.97848  11584137.41445         0.00041  23187592.46845  23187585.08448
  -6695330.52948  -5217127.93244         0.00041  23923644.55244  23923636.70148
  -9935953.34149  -7742295.90447         0.00041  20441296.47647  20441292.52649
  -4845061.00949  -3775370.96946         0.00041  20749489.42546  20749485.26449
 -13217588.78349 -10299412.86147         0.00041  20485817.32047  20485814.86749
 -18359747.27549 -14306278.25646         0.00041  21605670.12246  21605665.52649
  18586807.90848  14483219.07745         0.00041  24147780.50145  24147775.37248
 02 07 01 18 18 00.0000000  0  8 03 06 14 15 17 18 21 23
 -11605451.44148  -9043196.86546         0.00041  22697235.09646  22697230.10848
  14972091.61848  11666548.06545         0.00041  23207718.26945  23207710.89248
  -6807574.41448  -5304590.36945         0.00041  23902285.05545  23902278.09848
  -9933453.97749  -7740348.34947         0.00041  20441771.83947  20441768.14549
  -4829282.39849  -3763075.96846         0.00041  20752491.81446  20752487.97649
 -13199253.66949 -10285125.75747         0.00041  20489306.38147  20489303.95649
 -18390827.03549 -14330496.23746         0.00041  21599756.06446  21599751.15149
  18666542.40548  14545349.79145         0.00041  24162954.17345  24162948.18848
 02 07 01 18 18 30.0000000  0  8 03 06 14 15 17 18 21 23
 -11675879.41448  -9098075.75146         0.00041  22683833.04846  22683827.72148
  15078039.04548  11749104.29045         0.00041  23227880.86945  23227872.67848
  -6919720.65248  -5391976.71445         0.00041  23880945.94445  23880937.25648
  -9930662.93149  -7738173.51147         0.00041  20442302.97647  20442299.18149
  -4813225.23549  -3750563.90646         0.00041  20755547.32346  20755543.65249
 -13180603.32549 -10270593.02247         0.00041  20492855.27447  20492852.97049
 -18421657.65049 -14354520.07446         0.00041  21593889.29646  21593884.59949
  18746248.31748  14607458.22445         0.00041  24178122.36545  24178116.18948
 02 07 01 18 19 00.0000000  0  8 03 06 14 15 17 18 21 23
 -11745942.83148  -9152670.58346         0.00041  22670500.24846  22670495.34648
  15184125.49448  11831768.80845         0.00041  23248068.46445  23248060.27348
  -7031811.90648  -5479320.22245         0.00041  23859615.40545  23859606.46948
  -9927624.55849  -7735805.94947         0.00041  20442881.38947  20442877.33049
  -4796933.74649  -3737869.25446         0.00041  20758647.35146  20758643.76149
 -13161684.20249 -10255850.85147         0.00041  20496455.53247  20496453.21149
 -18452285.65349 -14378386.03246         0.00041  21588060.78046  21588056.26049
  18825879.60248  14669508.51244         0.00041  24193276.38744  24193269.50348
 02 07 01 18 19 30.0000000  0  8 03 06 14 15 17 18 21 23
 -11815630.50548  -9206972.62446         0.00041  22657239.28846  22657234.59948
  15290357.38748  11914546.65245         0.00041  23268284.83045  23268275.89448
  -7143836.62548  -5566611.90645         0.00041  23838296.82345  23838287.88748
  -9924329.17649  -7733238.12247         0.00041  20443508.36447  20443504.42549
  -4780398.10349  -3724984.35246         0.00041  20761794.13646  20761790.52549
 -13142488.71049 -10240893.33247         0.00041  20500108.40747  20500105.90149
 -18482702.44749 -14402087.41146         0.00041  21582272.63946  21582267.79949
  18905444.32348  14731506.91644         0.00041  24208415.06944  24208410.62048
 02 07 01 18 20 00.0000000  0  8 03 06 14 15 17 18 21 23
 -11884884.86148  -9260937.01846         0.00041  22644060.62446  22644055.59648
  15396787.72948  11997479.16045         0.00041  23288536.46945  23288529.05948
  -7255736.60848  -5653806.38645         0.00041  23817002.73145  23816992.80348
  -9920720.18949  -7730425.92547         0.00041  20444195.15947  20444191.31349
  -4763561.97249  -3711865.30346         0.00041  20764997.93746  20764994.38749
 -13122962.65849 -10225678.23047         0.00041  20503823.98947  20503821.49549
 -18512852.89349 -14425581.24746         0.00041  21576535.09846  21576530.42749
  18984997.02048  14793495.96544         0.00041  24223555.70544  24223548.56748
 02 07 01 18 20 30.0000000  0  8 03 06 14 15 17 18 21 23
 -11953728.04148  -9314581.00746         0.00041  22630960.14646  22630954.31148
  15503389.55548  12080545.24945         0.00041  23308821.94645  23308814.63048
  -7367533.46448  -5740920.52744         0.00041  23795727.60544  23795718.42148
  -9916821.21449  -7727387.75947         0.00041  20444936.86447  20444933.22849
  -4746448.62849  -3698530.24646         0.00041  20768254.58846  20768250.90949
 -13103131.79749 -10210225.61647         0.00041  20507597.79047  20507595.19649
 -18542762.97749 -14448887.78346         0.00041  21570843.77246  21570838.83849
  19064512.32648  14855455.87344         0.00041  24238683.66544  24238680.07948
 02 07 01 18 21 00.0000000  0  8 03 06 14 15 17 18 21 23
 -12022142.17648  -9367890.66546         0.00041  22617940.90346  22617935.63848
  15610176.13148  12163755.30645         0.00041  23329144.00345  23329135.31648
  -7479209.01248  -5827940.17644         0.00041  23774476.09144  23774466.90748
  -9912615.71149  -7724110.74247         0.00041  20445737.21347  20445733.57549
  -4729041.73749  -3684966.45246         0.00041  20771566.94446  20771563.22849
 -13082981.98649 -10194524.47047         0.00041  20511432.21647  20511429.55349
 -18572417.01549 -14471994.80746         0.00041  21565200.77946  21565195.69849
  19144005.18148  14917398.29344         0.00041  24253811.99544  24253806.96948
 02 07 01 18 21 30.0000000  0  8 03 06 14 15 17 18 21 23
 -12090116.10348  -9420857.31046         0.00041  22605005.03846  22605000.84448
  15717153.55948  12247114.07645         0.00041  23349502.25945  23349492.57848
  -7590751.67848  -5914856.26544         0.00041  23753251.38144  23753241.20448
  -9908094.21249  -7720587.49447         0.00041  20446597.57847  20446594.00649
  -4711331.38249  -3671166.19046         0.00041  20774937.40046  20774933.27849
 -13062505.68849 -10178568.91947         0.00041  20515328.78447  20515326.14749
 -18601806.66549 -14494895.81446         0.00041  21559607.63046  21559602.98449
  19223483.50648  14979329.38344         0.00041  24268936.04444  24268931.67048
 02 07 01 18 22 00.0000000  0  8 03 06 14 15 17 18 21 23
 -12157683.88648  -9473507.47546         0.00041  22592148.54046  22592143.20748
  15824283.04248  12330591.35045         0.00041  23369886.88045  23369878.68948
  -7702195.44248  -6001695.32044         0.00041  23732042.03544  23732034.30648
  -9903291.88249  -7716845.41947         0.00041  20447511.42847  20447507.95749
  -4693353.09149  -3657157.14646         0.00041  20778358.68746  20778354.36349
 -13041740.57649 -10162388.31847         0.00041  20519280.02347  20519277.66749
 -18630968.84749 -14517619.57346         0.00041  21554058.18946  21554053.73149
  19302910.06448  15041220.12744         0.00041  24284052.64544  24284046.32948
 02 07 01 18 22 30.0000000  0  8 03 06 14 15 17 18 21 23
 -12224842.64048  -9525838.91246         0.00041  22579367.69046  22579363.31948
  15931563.04148  12414185.86945         0.00041  23390302.48045  23390293.29748
  -7813536.56448  -6088454.39444         0.00041  23710853.20044  23710847.64248
  -9898206.83549  -7712883.04747         0.00041  20448479.23647  20448475.54849
  -4675105.11649  -3642937.95846         0.00041  20781831.10746  20781826.87849
 -13020687.20449 -10145983.09947         0.00041  20523286.35447  20523284.03849
 -18659903.71949 -14540166.20446         0.00041  21548552.41546  21548547.88249
  19382285.09948  15103070.77944         0.00041  24299158.25844  24299150.70748
 02 07 01 18 23 00.0000000  0  8 03 06 14 15 17 18 21 23
 -12291577.78948  -9577840.27546         0.00041  22566669.33346  22566664.48748
  16039003.27048  12497905.25545         0.00041  23410750.37645  23410739.20748
  -7924760.00948  -6175121.78645         0.00041  23689689.02145  23689681.58248
  -9892826.23349  -7708690.37747         0.00041  20449503.12047  20449499.31849
  -4656574.29149  -3628498.36346         0.00041  20785357.37646  20785353.34649
 -12999334.80249 -10129344.87047         0.00041  20527349.68847  20527347.23949
 -18688600.14749 -14562527.04146         0.00041  21543091.43846  21543086.99349
  19461619.83348  15164889.95644         0.00041  24314255.00444  24314247.27648
 02 07 01 18 23 30.0000000  0  8 03 06 14 15 17 18 21 23
 -12357898.31348  -9629518.54946         0.00041  22554048.13346  22554044.21348
  16146590.18148  12581738.95245         0.00041  23431223.88245  23431212.46448
  -8035874.38748  -6261704.21545         0.00041  23668546.35545  23668536.67448
  -9887160.04749  -7704275.17647         0.00041  20450581.50047  20450577.49749
  -4637770.87249  -3613846.36246         0.00041  20788935.56046  20788931.65949
 -12977696.00449 -10112483.47747         0.00041  20531467.67147  20531464.97549
 -18717069.54649 -14584710.97246         0.00041  21537674.07346  21537669.41149
  19540902.41948  15226668.55145         0.00041  24329341.06245  24329334.89848
 02 07 01 18 24 00.0000000  0  8 03 06 14 15 17 18 21 23
 -12423804.63848  -9680874.08946         0.00041  22541506.97946  22541502.53548
  16254318.55948  12665682.84545         0.00041  23451722.86945  23451712.69248
  -8146879.61048  -6348201.56645         0.00041  23647421.43645  23647412.99648
  -9881209.84949  -7699638.66747         0.00041  20451713.73747  20451709.98849
  -4618696.17749  -3598982.98046         0.00041  20792565.27346  20792561.38049
 -12955774.35449 -10095401.68047         0.00041  20535639.06747  20535636.60449
 -18745315.16949 -14606720.53346         0.00041  21532298.97546  21532294.31649
  19620129.75248  15288404.06945         0.00041  24344414.88545  24344411.76648
 02 07 01 18 24 30.0000000  0  8 03 06 14 15 17 18 21 23
 -12489265.74948  -9731882.70746         0.00041  22529049.89646  22529045.50748
  16362214.68848  12749757.44645         0.00041  23472252.95345  23472245.18248
  -8257743.99848  -6434589.21345         0.00041  23626324.83445  23626316.39448
  -9874946.00549  -7694757.76147         0.00041  20452905.73147  20452901.98649
  -4599320.53649  -3583885.09246         0.00041  20796252.46146  20796248.44449
 -12933542.20649 -10078077.93247         0.00041  20539869.74347  20539867.25049
 -18773308.75349 -14628533.69446         0.00041  21526971.72046  21526967.37549
  19699329.74848  15350118.28345         0.00041  24359489.08445  24359482.37448
 02 07 01 18 25 00.0000000  0  8 03 06 14 15 17 18 21 23
 -12554302.89048  -9782560.95346         0.00041  22516674.19646  22516668.88548
  16470252.87848  12833942.78345         0.00041  23492814.13345  23492804.70148
  -8368488.34648  -6520883.30445         0.00041  23605250.06545  23605241.62648
  -9868391.03049  -7689649.99947         0.00041  20454153.11247  20454149.24149
  -4579666.65849  -3568570.39746         0.00041  20799992.13946  20799988.52949
 -12911024.84849 -10060531.94047         0.00041  20544154.50147  20544152.08549
 -18801074.20349 -14650169.08546         0.00041  21521688.15646  21521683.77349
  19778478.10048  15411792.26545         0.00041  24374549.22045  24374543.94348
 02 07 01 18 25 30.0000000  0  8 03 06 14 15 17 18 21 23
 -12618885.72348  -9832885.18846         0.00041  22504384.41246  22504379.17348
  16578458.70948  12918258.69845         0.00041  23513403.65845  23513395.46748
  -8479081.69748  -6607059.76745         0.00041  23584204.52645  23584196.60248
  -9861515.71449  -7684292.61747         0.00041  20455461.58747  20455457.58949
  -4559705.22349  -3553016.04346         0.00041  20803790.95946  20803787.12249
 -12888195.26549 -10042742.65447         0.00041  20548498.85047  20548496.48449
 -18828584.53749 -14671605.68546         0.00041  21516453.16846  21516448.83249
  19857602.37248  15473447.47245         0.00041  24389607.53045  24389600.80248
 02 07 01 18 26 00.0000000  0  8 03 06 14 15 17 18 21 23
 -12683033.00448  -9882870.04346         0.00041  22492177.66146  22492172.45648
  16686808.83448  13002687.07045         0.00041  23534023.57045  23534014.13848
  -8589542.19648  -6693132.70545         0.00041  23563186.47245  23563177.04048
  -9854340.09349  -7678701.23447         0.00041  20456827.00847  20456823.04549
  -4539456.24249  -3537237.62946         0.00041  20807644.19446  20807640.33249
 -12865075.61149 -10024727.33647         0.00041  20552898.32547  20552895.98349
 -18855860.84149 -14692859.92546         0.00041  21511262.85446  21511257.74949
  19936680.84448  15535066.99245         0.00041  24404655.44045  24404648.79848
 02 07 01 18 26 30.0000000  0  8 03 06 14 15 17 18 21 23
 -12746768.67748  -9932534.16146         0.00041  22480048.62646  22480044.01548
  16795274.30948  13087205.33145         0.00041  23554663.98345  23554654.30348
  -8699893.73548  -6779120.73945         0.00041  23542185.33045  23542177.51348
  -9846889.64349  -7672895.69647         0.00041  20458244.56947  20458240.83449
  -4518945.17749  -3521254.99646         0.00041  20811547.47446  20811543.53049
 -12841694.03349 -10006507.92447         0.00041  20557347.74147  20557345.27149
 -18882930.56949 -14713953.19346         0.00041  21506111.79446  21506106.72949
  20015686.30848  15596629.62045         0.00041  24419688.54945  24419683.73448
 02 07 01 18 27 00.0000000  0  8 03 06 14 15 17 18 21 23
 -12810076.50748  -9981864.88946         0.00041  22468002.30046  22467996.77748
  16903866.90148  13171822.60145         0.00041  23575330.86245  23575319.44448
  -8810119.41848  -6865010.71245         0.00041  23521209.55245  23521202.20648
  -9839149.62649  -7666864.52147         0.00041  20459717.63047  20459713.73249
  -4498157.06749  -3505056.48646         0.00041  20815503.12946  20815499.34249
 -12818037.31549  -9988074.12047         0.00041  20561849.56947  20561847.02749
 -18909780.03649 -14734874.83346         0.00041  21501002.22246  21500997.37349
  20094632.24048  15658145.86144         0.00041  24434711.89244  24434705.59348
 02 07 01 18 27 30.0000000  0  8 03 06 14 15 17 18 21 23
 -12872946.05248 -10030854.10646         0.00041  22456037.57246  22456032.86448
  17012592.60048  13256543.61245         0.00041  23596018.95745  23596009.27748
  -8920208.07648  -6950793.91045         0.00041  23500259.13445  23500252.86848
  -9831110.43449  -7660600.22147         0.00041  20461247.28847  20461243.47449
  -4477082.33149  -3488634.62846         0.00041  20819513.68146  20819509.60649
 -12794098.21549  -9969420.27647         0.00041  20566404.79647  20566402.48149
 -18936401.60149 -14755618.88546         0.00041  21495936.13846  21495931.61649
  20173526.69648  15719622.01544         0.00041  24449725.34944  24449719.32848
 02 07 01 18 28 00.0000000  0  8 03 06 14 15 17 18 21 23
 -12935367.25948 -10079493.97246         0.00041  22444159.59946  22444154.49448
  17121456.70848  13341372.48245         0.00041  23616736.00145  23616725.32848
  -9030148.83248  -7036461.85745         0.00041  23479338.35445  23479331.84248
  -9822763.12049  -7654095.82547         0.00041  20462835.80847  20462831.94549
  -4455712.11249  -3471982.52846         0.00041  20823579.87346  20823576.10049
 -12769870.33849  -9950541.41047         0.00041  20571015.38647  20571012.81849
 -18962787.76149 -14776179.50946         0.00041  21490914.85446  21490910.33849
  20252376.74848  15781063.50044         0.00041  24464729.73944  24464723.71348
 02 07 01 18 28 30.0000000  0  8 03 06 14 15 17 18 21 23
 -12997347.92848 -10127790.55846         0.00041  22432365.85046  22432360.01948
  17230446.88848  13426299.56845         0.00041  23637476.94145  23637465.77148
  -9139949.03348  -7122020.26245         0.00041  23458445.78845  23458437.34848
  -9814116.62449  -7647358.30147         0.00041  20464481.10447  20464477.27149
  -4434055.57549  -3455107.31946         0.00041  20827701.05646  20827697.18349
 -12745364.92849  -9931446.28447         0.00041  20575678.44947  20575675.98149
 -18988949.22849 -14796565.04646         0.00041  21485936.45846  21485932.02449
  20331171.64148  15842462.07044         0.00041  24479723.92844  24479717.91448
 02 07 01 18 29 00.0000000  0  8 03 06 14 15 17 18 21 23
 -13058892.35048 -10175747.20846         0.00041  22420653.88346  22420648.48548
  17339554.01748  13511317.74645         0.00041  23658239.88045  23658228.21348
  -9249612.74948  -7207472.33845         0.00041  23437576.67045  23437569.58548
  -9805176.52249  -7640391.99147         0.00041  20466182.13247  20466178.51249
  -4412118.17949  -3438013.26046         0.00041  20831875.44446  20831871.61049
 -12720589.92249  -9912141.08347         0.00041  20580393.19647  20580390.55049
 -19014893.17849 -14816781.08746         0.00041  21480999.59046  21480995.09649
  20409904.30548  15903812.14344         0.00041  24494706.88144  24494700.58348
 02 07 01 18 29 30.0000000  0  8 03 06 14 15 17 18 21 23
 -13120017.68248 -10223377.30646         0.00041  22409021.63746  22409016.75648
  17448756.62948  13596410.36345         0.00041  23679020.69345  23679009.02748
  -9359156.18048  -7292830.67845         0.00041  23416729.45945  23416724.29548
  -9795961.28649  -7633211.29147         0.00041  20467935.71247  20467932.19349
  -4389918.14049  -3420714.54346         0.00041  20836100.26746  20836096.30249
 -12695565.58249  -9892641.59747         0.00041  20585155.00947  20585152.57549
 -19040639.43849 -14836843.08646         0.00041  21476100.18746  21476095.85449
  20488555.08148  15965098.39644         0.00041  24509673.89844  24509667.37048
 02 07 01 18 30 00.0000000  0  8 03 06 14 15 17 18 21 23
 -13180689.63548 -10270654.11646         0.00041  22397476.43646  22397471.22748
  17558084.18748         0.00041         0.00041         0.00041  23699814.01848
  -9468544.56948  -7378068.20245         0.00041  23395915.42745  23395908.36048
  -9786437.93249  -7625790.50147         0.00041  20469748.09947  20469744.51549
  -4367422.61449  -3403185.57546         0.00041  20840381.17046  20840377.07449
 -12670261.36749  -9872924.02747         0.00041  20589970.30947  20589967.79949
 -19066156.39849 -14856726.41046         0.00041  21471244.62246  21471240.20549
  20567155.16048  16026345.15744         0.00041  24524629.18644  24524624.36548
 02 07 01 18 30 30.0000000  0  8 03 06 14 15 17 18 21 23
 -13240866.62148 -10317545.24346         0.00041  22386025.08046  22386019.97548
  17667573.70848         0.00041         0.00041         0.00041  23720649.26748
  -9577735.77748  -7463152.07745         0.00041  23375134.22945  23375129.35148
  -9776566.00849  -7618098.10047         0.00041  20471626.77547  20471623.01849
  -4344591.15249  -3385394.84446         0.00041  20844725.87746  20844721.85149
 -12644639.22649  -9852958.71947         0.00041  20594846.18747  20594843.46049
 -19091405.30049 -14876400.85646         0.00041  21466439.83046  21466435.30049
  20645743.47148  16087582.74944         0.00041  24539584.13544  24539579.64848
 02 07 01 18 31 00.0000000  0  8 03 06 14 15 17 18 21 23
 -13300537.33148 -10364041.86646         0.00041  22374670.00046  22374665.23948
  17777232.17848  13852364.28545         0.00041  23741527.38745  23741516.71448
  -9686717.62748  -7548072.81545         0.00041  23354398.62045  23354390.86348
  -9766334.95249  -7610125.85747         0.00041  20473573.65447  20473569.80749
  -4321413.25749  -3367334.16546         0.00041  20849136.37746  20849132.47749
 -12618690.70749  -9832739.09447         0.00041  20599784.10747  20599781.29849
 -19116377.47349 -14895859.67146         0.00041  21461687.77346  21461683.18549
  20724329.02348  16148818.19144         0.00041  24554539.76244  24554533.55348
 02 07 01 18 31 30.0000000  0  8 03 06 14 15 17 18 21 23
 -13359695.39148 -10410139.02446         0.00041  22363411.92346  22363407.39148
  17887061.26848         0.00041         0.00041         0.00041  23762417.08148
  -9795482.98648  -7632824.86545         0.00041  23333697.61145  23333692.84448
  -9755739.36449  -7601869.56347         0.00041  20475589.93147  20475586.22949
  -4297883.84549  -3348999.57846         0.00041  20853614.18946  20853609.85749
 -12592413.01949  -9812262.97547         0.00041  20604784.34347  20604781.68749
 -19141069.57749 -14915100.24546         0.00041  21456989.03446  21456984.70249
  20802915.24048  16210054.13944         0.00041  24569493.51044  24569488.63548
 02 07 01 18 32 00.0000000  0  8 03 06 14 15 17 18 21 23
 -13418359.60848 -10455851.37146         0.00041  22352248.56046  22352244.13048
  17997037.58548  14023640.51045         0.00041  23783355.72245  23783345.54548
  -9904050.29948  -7717422.57545         0.00041  23313039.83145  23313032.70848
  -9744799.71949  -7593345.17347         0.00041  20477671.84547  20477668.07149
  -4274023.00549  -3330406.73346         0.00041  20858154.66046  20858150.39449
 -12565828.55849  -9791547.81647         0.00041  20609843.26047  20609840.66149
 -19165502.92249 -14934139.19146         0.00041  21452339.47546  21452334.82049
  20881480.63548  16271273.84544         0.00041  24584444.96844  24584439.05648
 02 07 01 18 32 30.0000000  0  8 03 06 14 15 17 18 21 23
 -13476586.56848 -10501222.98046         0.00041  22341169.32446  22341163.67548
  18107100.26348         0.00041         0.00041         0.00041  23804289.98848
 -10012475.32548  -7801909.44845         0.00041  23292406.61145  23292400.08148
  -9733573.54349  -7584597.51147         0.00041  20479808.11247  20479804.22549
  -4249888.16949  -3311600.38646         0.00041  20862747.40146  20862743.29049
 -12538997.08349  -9770640.17347         0.00041  20614948.97647  20614946.50649
 -19189737.14649 -14953022.97746         0.00041  21447728.27246  21447723.29149
  20959966.16948  16332431.39844         0.00041  24599379.40244  24599374.75248
 02 07 01 18 33 00.0000000  0  8 03 06 14 15 17 18 21 23
 -13534416.53348 -10546285.26446         0.00041  22330163.74946  22330158.80848
  18217204.64948  14195198.49045         0.00041  23825253.51345  23825242.34448
 -10120797.54348  -7886316.17445         0.00041  23271794.06645  23271787.04148
  -9722102.06949  -7575658.71047         0.00041  20481991.07747  20481987.08949
  -4225520.82749  -3292612.86646         0.00041  20867384.16946  20867380.28849
 -12511962.08249  -9749573.94147         0.00041  20620093.62547  20620091.06049
 -19213815.00049 -14971784.92146         0.00041  21443146.21046  21443141.26349
  21038328.93948  16393493.17944         0.00041  24614290.30944  24614286.06848
 02 07 01 18 33 30.0000000  0  8 03 06 14 15 17 18 21 23
 -13591780.33348 -10590984.29646         0.00041  22319248.15746  22319243.17148
  18327415.26748  14281076.48545         0.00041  23846225.76345  23846215.09048
 -10228947.06648  -7970588.35245         0.00041  23251213.09445  23251206.42648
  -9710317.35049  -7566475.82147         0.00041  20484233.75447  20484229.61149
  -4200852.81549  -3273391.05046         0.00041  20872078.58146  20872074.38549
 -12484657.82949  -9728297.90247         0.00041  20625289.44147  20625286.82149
 -19237669.78849 -14990373.05146         0.00041  21438606.82146  21438601.90949
  21116635.29348  16454511.05844         0.00041  24629194.65944  24629187.32848
 02 07 01 18 34 00.0000000  0  8 03 06 14 15 17 18 21 23
 -13648703.00848 -10635339.60146         0.00041  22308415.44646  22308410.92248
  18437702.56748  14367014.26545         0.00041  23867213.07545  23867202.65048
 -10336948.25848  -8054744.95545         0.00041  23230661.50545  23230654.18248
  -9698245.43749  -7557069.14347         0.00041  20486530.90047  20486526.86449
  -4175910.43949  -3253955.44846         0.00041  20876824.95846  20876820.61349
 -12457112.74149  -9706834.20247         0.00041  20630531.09347  20630528.48949
 -19261328.92949 -15008808.72546         0.00041  21434104.31346  21434099.84949
  21194857.82648  16515463.58544         0.00041  24644077.69344  24644072.79848
 02 07 01 18 34 30.0000000  0  8 03 06 14 15 17 18 21 23
 -13705193.42748 -10679358.06746         0.00041  22297666.12846  22297660.77648
  18548053.38748  14453001.48044         0.00041  23888212.40544  23888201.23548
 -10444809.30648  -8138792.34345         0.00041  23210135.47545  23210128.66648
  -9685896.29449  -7547446.44447         0.00041  20488880.76247  20488876.94049
  -4150703.49749  -3234313.69346         0.00041  20881621.68146  20881617.43149
 -12429338.63749  -9685192.05147         0.00041  20635816.25447  20635813.71049
 -19284804.19349 -15027101.12646         0.00041  21429637.39146  21429632.52149
  21272985.24048  16576342.01344         0.00041  24658945.68844  24658940.10648
 02 07 01 18 35 00.0000000  0  8 03 06 14 15 17 18 21 23
 -13761217.19748 -10723012.92346         0.00041  22287006.05646  22286999.90548
  18658497.73548         0.00041         0.00041         0.00041  23909219.11248
 -10552494.97948  -8222703.08245         0.00041  23189643.66645  23189636.76548
  -9673236.60149  -7537581.76147         0.00041  20491289.80447  20491286.07649
  -4125198.62449  -3214439.78346         0.00041  20886475.01946  20886471.02149
 -12401304.62549  -9663347.37347         0.00041  20641151.20547  20641148.60749
 -19308063.99149 -15045225.62646         0.00041  21425211.14146  21425206.72949
  21351049.44948  16637171.23944         0.00041  24673800.63644  24673795.89848
 02 07 01 18 35 30.0000000  0  8 03 06 14 15 17 18 21 23
 -13816775.08148 -10766304.74846         0.00041  22276433.31046  22276427.86948
  18769030.52748         0.00041         0.00041         0.00041  23930252.35348
 -10660005.28648  -8306477.16445         0.00041  23169185.64345  23169178.60648
  -9660268.22949  -7527476.54847         0.00041  20493757.56847  20493753.77949
  -4099397.73949  -3194335.21646         0.00041  20891384.88446  20891380.89049
 -12373014.89749  -9641303.43647         0.00041  20646534.65347  20646531.96349
 -19331111.97049 -15063185.07846         0.00041  21420825.25946  21420820.31849
  21429047.00848  16697948.51444         0.00041  24688643.04444  24688637.73948
 02 07 01 18 36 00.0000000  0  8 03 06 14 15 17 18 21 23
 -13871862.75448 -10809230.17846         0.00041  22265950.05746  22265945.15048
  18879651.55348  14711388.45144         0.00041  23951314.96844  23951303.55048
 -10767335.24348  -8390110.73345         0.00041  23148761.08845  23148753.79648
  -9646987.98949  -7517128.32147         0.00041  20496284.81547  20496281.03849
  -4073297.76949  -3173997.59946         0.00041  20896351.57246  20896347.42849
 -12344468.26249  -9619059.31047         0.00041  20651966.76047  20651964.07349
 -19353946.42049 -15080978.14246         0.00041  21416479.98346  21416475.22749
  21506979.92748  16758675.39444         0.00041  24703469.76844  24703467.61248
 02 07 01 18 36 30.0000000  0  8 03 06 14 15 17 18 21 23
 -13926430.87248 -10851750.74946         0.00041  22255566.19346  22255561.44548
  18990405.57048         0.00041         0.00041         0.00041  23972380.37348
 -10874434.70148  -8473564.67945         0.00041  23128380.62445  23128373.46748
  -9633347.44149  -7506499.33647         0.00041  20498880.40547  20498876.74049
  -4046850.25949  -3153389.16946         0.00041  20901384.26546  20901380.17749
 -12315618.52149  -9596578.99747         0.00041  20657456.79247  20657454.02249
 -19376520.27149 -15098568.14346         0.00041  21412184.24746  21412179.34449
  21584895.21048  16819388.52644         0.00041  24718301.40644  24718295.17748
 02 07 01 18 37 00.0000000  0  8 03 06 14 15 17 18 21 23
 -13980494.66748 -10893878.35046         0.00041  22245278.67746  22245273.20748
  19101273.03348         0.00041         0.00041         0.00041  23993477.03848
 -10981318.24348  -8556850.38645         0.00041  23108041.12745  23108034.42248
  -9619362.87849  -7495602.28447         0.00041  20501541.70647  20501537.89549
  -4020071.42249  -3132522.55046         0.00041  20906480.57746  20906475.89249
 -12286484.47049  -9573877.14547         0.00041  20663000.71147  20662997.99349
 -19398851.66349 -15115969.21146         0.00041  21407934.87846  21407929.96449
  21662775.01548  16880074.04644         0.00041  24733120.33144  24733115.14548
 02 07 01 18 37 30.0000000  0  8 03 06 14 15 17 18 21 23
 -14034062.44948 -10935619.45246         0.00041  22235085.11346  22235079.22748
  19212241.46048         0.00041         0.00041         0.00041  24014593.23648
 -11087993.15648  -8639973.52745         0.00041  23087741.80945  23087734.67648
  -9605043.36449  -7484444.23247         0.00041  20504266.71547  20504262.67049
  -3992970.52449  -3111404.98346         0.00041  20911637.46846  20911633.00149
 -12257077.07549  -9550962.29647         0.00041  20668596.44247  20668594.12449
 -19420951.01849 -15133189.47246         0.00041  21403729.19546  21403724.24049
  21740608.81948  16940723.66644         0.00041  24747931.39344  24747926.11448
 02 07 01 18 38 00.0000000  0  8 03 06 14 15 17 18 21 23
 -14087124.20548 -10976966.24246         0.00041  22224987.25246  22224982.18948
  19323316.39048         0.00041         0.00041         0.00041  24035730.60548
 -11194448.65048  -8722925.69645         0.00041  23067483.78245  23067476.48148
  -9590380.06749  -7473018.29747         0.00041  20507057.01647  20507052.95749
  -3965538.66349  -3090029.52346         0.00041  20916857.53146  20916853.24149
 -12227389.62649  -9527829.22147         0.00041  20674245.79747  20674243.52849
 -19442811.40149 -15150223.52146         0.00041  21399569.30746  21399564.43849
  21818404.17248  17001343.35744         0.00041  24762736.09944  24762730.45548
 02 07 01 18 38 30.0000000  0  8 03 06 14 15 17 18 21 23
 -14139711.09948 -11017943.01346         0.00041  22214979.65746  22214975.16048
  19434462.66348         0.00041         0.00041         0.00041  24056882.09748
 -11300714.91848  -8805730.41745         0.00041  23047260.88745  23047254.44648
  -9575405.06349  -7461349.47247         0.00041  20509906.58747  20509902.63049
  -3937807.70449  -3068421.00046         0.00041  20922134.33546  20922130.43649
 -12197456.38649  -9504504.62447         0.00041  20679942.10947  20679939.71149
 -19464466.18849 -15167097.36346         0.00041  21395448.47546  21395443.80049
  21896127.55448  17061906.98244         0.00041  24777528.90344  24777520.21648
 02 07 01 18 39 00.0000000  0  8 03 06 14 15 17 18 21 23
 -14191818.77548 -11058546.36446         0.00041  22205064.33646  22205059.45548
  19545680.03348         0.00041         0.00041         0.00041  24078046.02148
 -11406786.82748  -8888383.69145         0.00041  23027075.77045  23027070.06848
  -9560115.07849  -7449435.20947         0.00041  20512816.00247  20512812.38349
  -3909774.55049  -3046577.00346         0.00041  20927468.73146  20927464.93749
 -12167276.21449  -9480987.61447         0.00041  20685685.13547  20685682.82649
 -19485913.45749 -15183809.49946         0.00041  21391367.08446  21391362.84449
  21973781.03948  17122416.11844         0.00041  24792303.99644  24792297.62348
 02 07 01 18 39 30.0000000  0  8 03 06 14 15 17 18 21 23
 -14243430.30848 -11098763.12546         0.00041  22195242.73646  22195238.37848
  19656980.84648         0.00041         0.00041         0.00041  24099226.43948
 -11512646.90048  -8970871.88045         0.00041  23006930.50545  23006925.72748
  -9544494.28949  -7437263.17847         0.00041  20515788.67947  20515785.07949
  -3881423.46949  -3024485.27546         0.00041  20932863.91846  20932859.87549
 -12136835.75849  -9457267.78447         0.00041  20691477.67647  20691475.39249
 -19507138.79549 -15200348.70146         0.00041  21387328.17946  21387323.45749
  22051379.08848  17182882.06544         0.00041  24807068.58944  24807064.19248
 02 07 01 18 40 00.0000000  0  8 03 06 14 15 17 18 21 23
 -14294554.62548 -11138600.22346         0.00041  22185514.34446  22185508.99348
  19768352.03548         0.00041         0.00041         0.00041  24120419.73048
 -11618302.88848  -9053201.07046         0.00041  22986826.02846  22986820.09348
  -9528552.29549  -7424840.85847         0.00041  20518822.26947  20518818.69149
  -3852764.23249  -3002153.42346         0.00041  20938317.44046  20938313.74149
 -12106146.86149  -9433354.36247         0.00041  20697317.39547  20697315.19149
 -19528154.22949 -15216724.34546         0.00041  21383329.19146  21383324.23049
  22128910.52448  17243296.15444         0.00041  24821824.85844  24821818.72148
 02 07 01 18 40 30.0000000  0  8 03 06 14 15 17 18 21 23
 -14345188.90148 -11178055.47246         0.00041  22175878.58846  22175873.62548
  19879792.34048         0.00041         0.00041         0.00041  24141626.64548
 -11723751.22548  -9135368.45146         0.00041  22966758.42246  22966753.26348
  -9512287.29449  -7412166.84247         0.00041  20521917.37747  20521913.73449
  -3823794.73549  -2979579.80946         0.00041  20943830.41346  20943826.57849
 -12075209.41049  -9409247.26447         0.00041  20703204.89047  20703202.47149
 -19548959.51549 -15232936.23246         0.00041  21379370.03746  21379365.40349
  22206376.03748  17303658.85644         0.00041  24836563.59244  24836560.04848
 02 07 01 18 41 00.0000000  0  8 03 06 14 15 17 18 21 23
 -14395353.67348 -11217144.87746         0.00041  22166332.62746  22166327.87548
  19991277.01448         0.00041         0.00041         0.00041  24162841.90248
 -11829011.42548  -9217389.24346         0.00041  22946728.10946  22946722.25248
  -9495720.98749  -7399258.04547         0.00041  20525070.04947  20525066.18149
  -3794536.61349  -2956781.29546         0.00041  20949397.93746  20949394.08849
 -12044047.06449  -9384964.92547         0.00041  20709134.99547  20709132.45549
 -19569577.15149 -15249001.90146         0.00041  21375446.59846  21375441.83349
  22283752.95848  17363952.49144         0.00041  24851294.57044  24851283.64848
 02 07 01 18 41 30.0000000  0  8 03 06 14 15 17 18 21 23
 -14445003.30048 -11255832.87746         0.00041  22156884.66746  22156879.63048
  20102847.64548         0.00041         0.00041         0.00041  24184073.75448
 -11934036.79448  -9299227.05146         0.00041  22926744.34446  22926736.70048
  -9478808.32249  -7386079.35847         0.00041  20528288.47947  20528284.49649
  -3764945.12149  -2933723.01246         0.00041  20955029.28446  20955025.05949
 -12012617.14549  -9360474.09047         0.00041  20715115.87747  20715113.36749
 -19589963.97149 -15264887.71846         0.00041  21371566.75246  21371562.29149
  22361084.96848  17424211.16141         0.00041         0.00041  24865998.58848
 02 07 01 18 42 00.0000000  0  7 03 14 15 17 18 21 23
 -14494164.01248 -11294139.90546         0.00041  22147528.83346  22147524.40548
 -12038853.04148  -9380901.90646         0.00041  22906797.23546  22906791.09348
  -9461576.78949  -7372652.20447         0.00041  20531567.55547  20531563.41749
  -3735047.44549  -2910426.14846         0.00041  20960718.66046  20960714.54249
 -11980949.34949  -9335797.89547         0.00041  20721142.01247  20721139.67649
 -19610148.80649 -15280616.14246         0.00041  21367725.98746  21367721.34249
  22438343.20548  17484412.29044         0.00041  24880706.62044  24880700.74448
 02 07 01 18 42 30.0000000  0  7 03 14 15 17 18 21 23
 -14542880.27948 -11332100.60946         0.00041  22138258.95446  22138254.14248
 -12143503.52048  -9462447.58946         0.00041  22886882.92546  22886876.26048
  -9444071.41149  -7359011.66647         0.00041  20534898.79647  20534894.73949
  -3704889.07249  -2886926.14946         0.00041  20966457.49646  20966453.43149
 -11949091.04949  -9310973.25347         0.00041  20727204.20747  20727202.21649
 -19630178.28249 -15296223.51046         0.00041  21363914.27946  21363909.70049
  22515481.21648  17544519.76644         0.00041  24895387.21944  24895380.19748
 02 07 01 18 43 00.0000000  0  7 03 14 15 17 18 21 23
 -14591041.84548 -11369629.08346         0.00041  22129094.48646  22129089.31948
 -12247876.82548  -9543777.30246         0.00041  22867021.68646  22867014.55048
  -9426182.67149  -7345072.40147         0.00041  20538302.70647  20538298.81249
  -3674360.48749  -2863137.67946         0.00041  20972266.75646  20972262.78749
 -11916934.88449  -9285916.51147         0.00041  20733323.63047  20733321.22149
 -19649944.85249 -15311626.01146         0.00041  21360153.06846  21360148.37849
  22592607.14648  17604617.82644         0.00041  24910063.76744  24910056.13948
 02 07 01 18 43 30.0000000  0  7 03 14 15 17 18 21 23
 -14638698.21048 -11406763.89346         0.00041  22120026.16246  22120020.62448
 -12352021.67348  -9624929.00346         0.00041  22847202.43046  22847196.33548
  -9407961.19349  -7330873.85847         0.00041  20541770.15047  20541766.37449
  -3643512.36449  -2839100.21446         0.00041  20978137.04446  20978133.04849
 -11884533.45449  -9260668.65547         0.00041  20739489.28147  20739486.84749
 -19669500.22149 -15326863.94546         0.00041  21356431.25746  21356426.66949
  22669669.28648  17664666.20144         0.00041  24924727.72344  24924721.09648
 02 07 01 18 44 00.0000000  0  7 03 14 15 17 18 21 23
 -14685857.99848 -11443511.76346         0.00041  22111051.38346  22111046.75348
 -12455945.77448  -9705908.68846         0.00041  22827427.07446  22827420.21148
  -9389416.53349  -7316423.48347         0.00041  20545299.19947  20545295.38849
  -3612353.85349  -2814820.88646         0.00041  20984066.60746  20984062.34949
 -11851898.13349  -9235238.55047         0.00041  20745699.63447  20745697.25449
 -19688855.89649 -15341946.26746         0.00041  21352748.18146  21352744.13749
  22746656.92448  17724656.47644         0.00041  24939379.88444  24939371.19648
 02 07 01 18 44 30.0000000  0  8 03 14 15 17 18 21 23 31
 -14732525.04448 -11479875.68746         0.00041  22102171.03646  22102166.10648
 -12559652.04748  -9786718.63946         0.00041  22807691.50946  22807685.19348
  -9370553.32649  -7301724.89147         0.00041  20548888.58047  20548884.76449
  -3580889.96349  -2790303.59246         0.00041  20990054.00546  20990049.71649
 -11819035.69949  -9209631.47247         0.00041  20751953.17047  20751950.76549
 -19708017.99949 -15356877.75346         0.00041  21349101.62646  21349097.27049
  22823564.42648  17784584.32244         0.00041  24954012.63544  24954005.79548
        -0.55058         0.00051         0.00051         0.00051  24934087.25958
 02 07 01 18 45 00.0000000  0  8 03 14 15 17 18 21 23 31
 -14778625.12148 -11515797.80546         0.00041  22093398.62846  22093393.44748
 -12663064.77148  -9867299.84346         0.00041  22788013.06746  22788006.19848
  -9351297.94949  -7286720.71447         0.00041  20552552.74647  20552548.85349
  -3549046.93149  -2765490.86446         0.00041  20996113.75346  20996109.24549
 -11785874.90849  -9183791.90947         0.00041  20758263.68147  20758261.07649
 -19726914.11849 -15371601.98446         0.00041  21345506.29146  21345501.21749
  22900463.97148  17844505.95544         0.00041  24968646.12144  24968640.01948
    -94638.35248         0.00041         0.00041         0.00041  24915951.80448
 02 07 01 18 45 30.0000000  0  7 03 14 15 17 18 21 23
 -14824250.11948 -11551349.73946         0.00041  22084716.23646  22084710.89348
 -12766275.05648  -9947723.31346         0.00041  22768371.88546  22768366.00648
  -9331742.95749  -7271483.06747         0.00041  20556274.10547  20556269.98149
  -3516917.77349  -2740455.18246         0.00041  21002227.69346  21002223.21149
 -11752510.61449  -9157793.77347         0.00041  20764612.62547  20764610.07849
 -19745638.66949 -15386192.52746         0.00041  21341942.52546  21341938.24949
  22977261.55448  17904348.15044         0.00041  24983259.33844  24983254.48648
 02 07 01 18 46 00.0000000  0  8 03 14 15 17 18 21 23 31
 -14869418.83148 -11586546.12646         0.00041  22076121.50046  22076115.62248
 -12869300.87348 -10028003.04646         0.00041  22748767.14446  22748761.39848
  -9311908.42649  -7256027.60347         0.00041  20560048.54847  20560044.37449
  -3484522.09749  -2715211.82346         0.00041  21008392.25046  21008387.77249
 -11718964.29149  -9131653.79547         0.00041  20770996.21647  20770993.72649
 -19764213.02749 -15400666.03446         0.00041  21338408.01046  21338403.86949
  23053936.43148  17964094.74844         0.00041  24997851.53344  24997845.36748
         0.21758         0.00051         0.00051         0.00051  24879765.66558
 02 07 01 18 46 30.0000000  0  8 03 14 15 17 18 21 23 31
 -14914043.94549 -11621318.92446         0.00041  22067629.28546  22067624.12049
 -12972053.74948 -10108070.09546         0.00041  22729213.83146  22729208.33248
  -9291707.88049  -7240286.93147         0.00041  20563892.54047  20563888.52349
  -3451773.38949  -2689693.37646         0.00041  21014624.02046  21014619.88749
 -11685151.74849  -9105306.37747         0.00041  20777430.64247  20777427.95349
 -19782552.10849 -15414956.20846         0.00041  21334918.37646  21334913.96549
  23130573.93648  18023812.20544         0.00041  25012433.61044  25012428.69748
    -94692.98448         0.00041         0.00041         0.00041  24861745.17148
 02 07 01 18 47 00.0000000  0  7 03 14 15 17 18 21 23
 -14958198.29649 -11655724.90246         0.00041  22059226.89646  22059222.58349
 -13074605.57348 -10187980.48346         0.00041  22709698.33846  22709692.85948
  -9271214.63649  -7224318.18947         0.00041  20567792.19347  20567788.39449
  -3418745.49849  -2663957.38346         0.00041  21020908.98546  21020904.81749
 -11651148.49949  -9078810.35047         0.00041  20783901.25547  20783898.49949
 -19800731.12349 -15429121.66246         0.00041  21331459.03146  21331454.47549
  23207099.37548  18083442.38244         0.00041  25026995.22644  25026991.12948
 02 07 01 18 47 30.0000000  0  7 03 14 15 17 18 21 23
 -15001802.77649 -11689702.40846         0.00041  22050929.33846  22050924.67049
 -13176875.72848 -10267671.38346         0.00041  22690238.11846  22690231.28548
  -9250350.01949  -7208060.06547         0.00041  20571762.73847  20571758.84049
  -3385359.71149  -2637942.51846         0.00041  21027262.11546  21027258.09549
 -11616877.93049  -9052106.02747         0.00041  20790422.87347  20790420.01649
 -19818672.93949 -15443102.28546         0.00041  21328044.60146  21328040.27049
  23283590.27148  18143045.61144         0.00041  25041552.87444  25041547.32448
 02 07 01 18 48 00.0000000  0  7 03 14 15 17 18 21 23
 -15044828.56149 -11723228.97946         0.00041  22042741.66346  22042736.74349
 -13278834.73748 -10347119.85046         0.00041  22670834.23446  22670828.63548
  -9229086.09949  -7191490.79947         0.00041  20575809.11447  20575805.20149
  -3351588.17249  -2611627.07346         0.00041  21033688.63446  21033684.69849
 -11582314.12149  -9025173.20147         0.00041  20796999.98047  20796997.31949
 -19836350.86549 -15456877.28046         0.00041  21324680.51446  21324676.26549
  23360073.35948  18202642.78544         0.00041  25056108.67944  25056101.05448
 02 07 01 18 48 30.0000000  0  7 03 14 15 17 18 21 23
 -15087345.24049 -11756358.84646         0.00041  22034650.36946  22034645.98549
 -13380550.90948 -10426379.09246         0.00041  22651478.13946  22651472.62548
  -9207493.66049  -7174665.54347         0.00041  20579918.01847  20579914.21449
  -3317501.24349  -2585065.85646         0.00041  21040175.44846  21040171.26249
 -11547529.77549  -8998068.52947         0.00041  20803619.13147  20803616.54949
 -19853836.99849 -15470502.82946         0.00041  21321353.35946  21321348.64249
  23436477.21648  18262178.21544         0.00041  25070646.01844  25070640.08548
 02 07 01 18 49 00.0000000  0  8 03 14 15 17 18 21 23 31
 -15129312.28549 -11789060.42846         0.00041  22026664.27046  22026660.15449
 -13481982.70648 -10505416.73346         0.00041  22632176.76746  22632170.67348
  -9185532.79849  -7157553.20347         0.00041  20584097.26447  20584093.31849
  -3283059.22349  -2558227.94546         0.00041  21046729.86346  21046725.16549
 -11512487.05249  -8970762.52247         0.00041  20810287.46347  20810284.97749
 -19871093.20949 -15483949.22146         0.00041  21318069.49546  21318064.97149
  23512840.50048  18321682.00444         0.00041  25085181.58344  25085171.65548
        -1.21058        -0.49351         0.00051         0.00051  24772407.77858
 02 07 01 18 49 30.0000000  0  8 03 14 15 17 18 21 23 31
 -15170824.12049 -11821407.30646         0.00041  22018765.26646  22018760.74349
 -13583223.68848 -10584305.68646         0.00041  22612910.76446  22612905.64548
  -9163298.62149  -7140227.88947         0.00041  20588328.15147  20588324.19349
  -3248357.25149  -2531187.48046         0.00041  21053333.25646  21053328.70149
 -11477283.25049  -8943330.99947         0.00041  20816986.65647  20816984.07849
 -19888215.57949 -15497291.31647         0.00041  21314811.17947  21314806.77649
  23589067.13548  18381079.32944         0.00041  25099681.33444  25099676.34948
    -93114.96648         0.00041         0.00041         0.00041  24754687.31648
 02 07 01 18 50 00.0000000  0  8 03 14 15 17 18 21 23 31
 -15211827.72049 -11853358.15546         0.00041  22010962.21046  22010957.59349
 -13684219.40048 -10663003.51446         0.00041  22593691.95246  22593686.89248
  -9140738.78849  -7122648.81547         0.00041  20592621.09747  20592617.17249
  -3213343.27649  -2503903.89846         0.00041  21059996.15946  21059991.62149
 -11441867.89149  -8915734.62647         0.00041  20823726.00547  20823723.57049
 -19905153.46449 -15510489.65547         0.00041  21311587.85247  21311583.88349
  23665208.08148  18440409.87141         0.00041         0.00041  25114166.68748
   -185972.14848         0.00041         0.00041         0.00041  24737018.51048
 02 07 01 18 50 30.0000000  0  8 03 14 15 17 18 21 23 31
 -15252306.49748 -11884900.04246         0.00041  22003259.93446  22003254.53848
 -13784951.74348 -10741496.12646         0.00041  22574522.74246  22574517.71548
  -9117837.51449  -7104803.68347         0.00041  20596979.08747  20596975.22049
  -3178001.28949  -2476364.73246         0.00041  21066721.72346  21066717.18549
 -11406226.45549  -8887962.08747         0.00041  20830508.32347  20830505.89849
 -19921892.85349 -15523533.32447         0.00041  21308402.65047  21308398.28049
  23741278.38348  18499685.37044         0.00041  25128649.82644  25128643.04448
   -278554.85648   -217054.91141         0.00041         0.00041  24719399.10948
 02 07 01 18 51 00.0000000  0  8 03 14 15 17 18 21 23 31
 -15292259.07249 -11916031.90146         0.00041  21995657.02646  21995651.99249
 -13885418.33548 -10819781.64846         0.00041  22555403.75146  22555399.05348
  -9094593.86649  -7086691.76647         0.00041  20601402.09247  20601398.37849
  -3142330.60149  -2448569.43146         0.00041  21073509.46246  21073505.21749
 -11370360.65549  -8860014.72147         0.00041  20837333.36747  20837330.95949
 -19938434.11249 -15536422.60647         0.00041  21305254.87547  21305250.41949
  23817277.63848  18558905.50944         0.00041  25143109.00344  25143105.30448
   -370860.37448   -288981.16641         0.00041         0.00041  24701832.43848
 02 07 01 18 51 30.0000000  0  8 03 14 15 17 18 21 23 31
 -15331702.10549 -11946766.72146         0.00041  21988150.60846  21988146.44149
 -13985634.95448 -10897872.40546         0.00041  22536334.09446  22536328.93748
  -9071025.19649  -7068326.58447         0.00041  20605887.13447  20605883.61549
  -3106348.37249  -2420531.35446         0.00041  21080356.23146  21080352.55249
 -11334290.03949  -8831907.77247         0.00041  20844197.59547  20844194.96749
 -19954795.76049 -15549171.93147         0.00041  21302141.36247  21302137.02849
  23893187.79148  18618056.17944         0.00041  25157556.35144  25157549.57548
   -462904.14948         0.00041         0.00041         0.00041  24684319.96148
 02 07 01 18 52 00.0000000  0  8 03 14 15 17 18 21 23 31
 -15370628.07349 -11977098.63846         0.00041  21980742.88746  21980739.33149
 -14085592.69348 -10975761.42346         0.00041  22517312.14846  22517307.83848
  -9047124.56449  -7049702.73147         0.00041  20610435.14347  20610431.74949
  -3070047.91249  -2392245.28946         0.00041  21087264.53846  21087260.18649
 -11298009.29149  -8803637.06247         0.00041  20851101.42047  20851099.04749
 -19970972.50649 -15561777.17547         0.00041  21299062.79147  21299058.69249
  23969014.66648  18677142.00344         0.00041  25171984.43344  25171979.09148
   -554677.11248   -432214.66544         0.00041  24666862.85544  24666857.74848
 02 07 01 18 52 30.0000000  0  8 03 14 15 17 18 21 23 31
 -15409009.98249 -12007006.60846         0.00041  21973439.72546  21973435.33449
 -14185263.28248 -11053426.69646         0.00041  22498346.63046  22498341.07948
  -9022865.71449  -7030799.75147         0.00041  20615051.50147  20615047.82949
  -3033402.83549  -2363690.73546         0.00041  21094237.84146  21094233.49949
 -11261493.80949  -8775183.45147         0.00041  20858050.17347  20858047.65849
 -19986939.77749 -15574219.19447         0.00041  21296024.78947  21296020.21549
  24044783.43248  18736182.53944         0.00041  25186401.88244  25186397.34448
   -646151.25748   -503493.05944         0.00041  24649456.82844  24649450.42948
 02 07 01 18 53 00.0000000  0  8 03 14 15 17 18 21 23 31
 -15446851.23849 -12036493.28846         0.00041  21966239.17646  21966234.19849
 -14284649.13048 -11130870.09646         0.00041  22479432.90046  22479428.33048
  -8998252.84549  -7011620.91647         0.00041  20619735.54947  20619731.40749
  -2996417.40049  -2334870.93946         0.00041  21101276.20846  21101271.37849
 -11224749.78449  -8746551.75647         0.00041  20865042.21847  20865039.81549
 -20002702.64849 -15586501.94247         0.00041  21293024.75747  21293020.55149
  24120489.21548  18795173.99144         0.00041  25200812.72644  25200803.79148
   -737328.44548   -574540.12144         0.00041  24632108.30544  24632101.09648
 02 07 01 18 53 30.0000000  0  8 03 14 15 17 18 21 23 31
 -15484169.03949 -12065572.07946         0.00041  21959137.38646  21959132.78149
 -14383766.15948 -11208104.03446         0.00041  22460572.42146  22460567.07048
  -8973303.73049  -6992180.07147         0.00041  20624483.25647  20624479.04249
  -2959109.62749  -2305799.98146         0.00041  21108375.33846  21108370.93349
 -11187797.22749  -8717757.56747         0.00041  20872074.10647  20872071.74349
 -20018280.57849 -15598640.57647         0.00041  21290060.39147  21290056.36849
  24196113.21848  18854101.72744         0.00041  25215199.11944  25215194.39148
   -828224.98048   -645368.45244         0.00041  24614808.13444  24614803.64448
 02 07 01 18 54 00.0000000  0  8 03 14 15 17 18 21 23 31
 -15520977.62249 -12094254.08146         0.00041  21952132.92046  21952128.23849
 -14482627.35848 -11285138.61446         0.00041  22441759.39346  22441754.21948
  -8948033.11649  -6972488.70247         0.00041  20629291.81547  20629287.88449
  -2921494.35549  -2276489.42846         0.00041  21115533.40746  21115529.13749
 -11150652.78049  -8688813.85247         0.00041  20879142.39647  20879140.12249
 -20033690.06049 -15610647.94746         0.00041  21287128.18646  21287123.84149
  24271639.66548  18912953.47644         0.00041  25229575.94444  25229567.75348
   -918853.57148   -715987.98244         0.00041  24597565.50144  24597557.31048
 02 07 01 18 54 30.0000000  0  8 03 14 15 17 18 21 23 31
 -15557283.82549 -12122544.61446         0.00041  21945224.04146  21945219.27549
 -14581238.21348 -11361978.13046         0.00041  22422992.87046  22422988.55548
  -8922448.42049  -6952552.59047         0.00041  20634160.23347  20634156.57849
  -2883578.88749  -2246944.95046         0.00041  21122748.23646  21122744.26449
 -11113325.88349  -8659727.96547         0.00041  20886245.67447  20886243.29849
 -20048940.11749 -15622531.10147         0.00041  21284226.43047  21284221.68849
  24347060.31648  18971722.72044         0.00041  25243924.03644  25243919.79048
  -1009219.50848         0.00041         0.00041         0.00041  24580360.56548
 02 07 01 18 55 00.0000000  0  8 03 14 15 17 18 21 23 31
 -15593058.27349 -12150420.80146         0.00041  21938416.72846  21938411.81649
 -14679567.93048 -11438598.56946         0.00041  22404282.34046  22404276.91448
  -8896520.72549  -6932349.20847         0.00041  20639094.43547  20639090.61749
  -2845334.32549  -2217144.03046         0.00041  21130026.11046  21130021.96049
 -11075789.46849  -8630478.82047         0.00041  20893388.59947  20893386.14549
 -20064002.68849 -15634268.16047         0.00041  21281359.87047  21281355.71849
  24422403.02748  19030431.24444         0.00041  25258264.39344  25258256.20248
  -1099292.08748   -856589.11444         0.00041  24563229.71544  24563220.53148
 02 07 01 18 55 30.0000000  0  8 03 14 15 17 18 21 23 31
 -15628269.90249 -12177858.43046         0.00041  21931715.94446  21931711.49949
 -14777584.48348 -11514974.99346         0.00041  22385629.38146  22385625.01048
  -8870219.54549  -6911854.80347         0.00041  20644099.40347  20644095.65949
  -2806730.45249  -2187063.12546         0.00041  21137372.46346  21137367.98249
 -11038014.98849  -8601044.17047         0.00041  20900576.75047  20900574.14749
 -20078848.67049 -15645836.44447         0.00041  21278534.78547  21278530.39049
  24497697.37348  19089102.05944         0.00041  25272588.97744  25272584.69048
  -1189038.97448   -926521.57244         0.00041  24546147.63044  24546142.80648
 02 07 01 18 56 00.0000000  0  8 03 14 15 17 18 21 23 31
 -15662918.29849 -12204857.18146         0.00041  21925122.55846  21925118.34549
 -14875285.93848 -11591105.87446         0.00041  22367037.89446  22367032.64148
  -8843545.08249  -6891069.53247         0.00041  20649175.72447  20649171.54849
  -2767767.37049  -2156702.31246         0.00041  21144787.09546  21144782.36849
 -11000004.30349  -8571425.46847         0.00041  20907810.00947  20907807.40049
 -20093479.37949 -15657236.98847         0.00041  21275750.66047  21275746.22249
  24572942.45948  19147734.57844         0.00041  25286908.60644  25286903.30148
  -1278458.15948   -996198.69744         0.00041  24529134.76244  24529126.83548
 02 07 01 18 56 30.0000000  0  8 03 14 15 17 18 21 23 31
 -15697049.93549 -12231453.25446         0.00041  21918627.80546  21918623.11349
 -14972717.22548 -11667026.24946         0.00041  22348497.39546  22348491.80848
  -8816544.15249  -6870029.87047         0.00041  20654313.56647  20654309.49049
  -2728492.01249  -2126098.17346         0.00041  21152260.93146  21152256.31049
 -10961806.07549  -8541660.62747         0.00041  20915078.89847  20915076.41949
 -20107943.25749 -15668507.53147         0.00041  21272998.33347  21272994.01549
  24648090.52048  19206291.45144         0.00041  25301210.38544  25301203.49848
  -1367594.45848  -1065655.43044         0.00041  24512173.25544  24512163.07848
 02 07 01 18 57 00.0000000  0  8 03 14 15 17 18 21 23 31
 -15730664.57449 -12257646.47346         0.00041  21912231.16846  21912226.16149
 -15069877.13248 -11742735.15346         0.00041  22330008.52546  22330003.09548
  -8789217.27549  -6848736.22747         0.00041  20659513.69947  20659509.57349
  -2688905.04849  -2095251.23146         0.00041  21159793.89646  21159789.56349
 -10923422.67449  -8511751.49547         0.00041  20922382.96847  20922380.74249
 -20122242.36149 -15679649.67747         0.00041  21270277.13247  21270272.95349
  24723140.13148  19264771.59644         0.00041  25315493.19844  25315485.32548
  -1456446.41648  -1134890.61744         0.00041  24495266.92944  24495255.26348
 02 07 01 18 57 30.0000000  0  8 03 14 15 17 18 21 23 31
 -15763728.10149 -12283410.25046         0.00041  21905939.11946  21905934.43949
 -15166729.81248 -11818204.66746         0.00041  22311578.34246  22311572.62348
  -8761530.61449  -6827162.23147         0.00041  20664782.47147  20664778.41249
  -2648972.41649  -2064134.94046         0.00041  21167392.76046  21167388.62149
 -10884822.02649  -8481673.07647         0.00041  20929728.48147  20929726.21149
 -20136343.93049 -15690637.90647         0.00041  21267593.81747  21267589.43249
  24798124.12948  19323200.60241         0.00041         0.00041  25329753.79048
  -1544978.37648  -1203876.43744         0.00041  24478415.69744  24478407.86448
 02 07 01 18 58 00.0000000  0  8 03 14 15 17 18 21 23 31
 -15796229.19449 -12308735.76646         0.00041  21899754.42846  21899750.03749
 -15263262.78248 -11893425.05446         0.00041  22293207.76946  22293203.17548
  -8733473.50849  -6805299.58147         0.00041  20670121.62947  20670117.63049
  -2608683.79749  -2032741.25346         0.00041  21175059.23646  21175055.40349
 -10845995.32449  -8451418.50947         0.00041  20937116.87147  20937114.60949
 -20150238.82149 -15701465.08847         0.00041  21264949.70747  21264945.30549
  24873052.60948         0.00041         0.00041         0.00041  25344011.06948
  -1633177.65348  -1272602.99841         0.00041         0.00041  24461623.62148
 02 07 01 18 58 30.0000000  0  8 03 14 15 17 18 21 23 31
 -15828177.38349 -12333630.45246         0.00041  21893674.61246  21893670.18149
 -15359484.66048 -11968403.02846         0.00041  22274897.45946  22274892.70148
  -8705056.09749  -6783156.17047         0.00041  20675529.36847  20675525.15949
  -2568049.23549  -2001078.00446         0.00041  21182792.15246  21182787.72349
 -10806954.70349  -8420997.25747         0.00041  20944546.10247  20944543.72149
 -20163938.55049 -15712140.19447         0.00041  21262342.65747  21262338.36149
  24947914.73247         0.00041         0.00041         0.00041  25358255.63947
  -1721052.47348         0.00041         0.00041         0.00041  24444901.41748
 02 07 01 18 59 00.0000000  0  8 03 14 15 17 18 21 23 31
 -15859583.44449 -12358102.69946         0.00041  21887698.45146  21887693.52849
 -15455404.17548 -12043145.38546         0.00041  22256644.40346  22256640.08448
  -8676289.29449  -6760740.50247         0.00041  20681003.33347  20680999.18849
  -2527079.66249  -1969153.69246         0.00041  21190588.79146  21190583.96249
 -10767712.73249  -8390419.10547         0.00041  20952013.91747  20952011.05649
 -20177455.62949 -15722672.97247         0.00041  21259770.40047  21259766.22249
  25022698.85148  19498193.67144         0.00041  25372492.84744  25372488.70748
  -1808611.65748         0.00041         0.00041         0.00041  24428239.23648
 02 07 01 18 59 30.0000000  0  8 03 14 15 17 18 21 23 31
 -15890446.02249 -12382151.45846         0.00041  21881825.57146  21881820.72449
 -15551018.90548 -12117650.25646         0.00041  22238449.62046  22238445.20348
  -8647172.48949  -6738052.09847         0.00041  20686544.19147  20686540.06249
  -2485774.74449  -1936968.08946         0.00041  21198448.93846  21198444.11749
 -10728270.71349  -8359685.07647         0.00041  20959519.44947  20959516.65849
 -20190790.35849 -15733063.66247         0.00041  21257233.00347  21257228.77149
  25097404.62448  19556405.91944         0.00041  25386712.07544  25386705.75148
  -1895852.56848         0.00041         0.00041         0.00041  24411638.10648
 02 07 01 19 00 00.0000000  0  8 03 14 15 17 18 21 23 31
 -15920763.83249 -12405775.72446         0.00041  21876056.18846  21876051.64749
 -15646326.22648 -12191915.58646         0.00041  22220312.50246  22220308.50848
  -8617704.85449  -6715090.32447         0.00041  20692151.72447  20692147.68049
  -2444133.49049  -1904520.40546         0.00041  21206372.95746  21206368.39449
 -10688629.33549  -8328795.70547         0.00041  20967063.15847  20967060.11349
 -20203943.68649 -15743313.00047         0.00041  21254729.79547  21254725.68249
  25172031.95648  19614557.01944         0.00041  25400913.35044  25400907.52148
  -1982772.50848  -1545014.31341         0.00041         0.00041  24395096.93148
 02 07 01 19 00 30.0000000  0  8 03 14 15 17 18 21 23 31
 -15950516.80149 -12428959.85046         0.00041  21870394.32246  21870389.83649
 -15741304.30048 -12265924.35946         0.00041  22202239.36546  22202234.53048
  -8587866.39249  -6691839.60047         0.00041  20697829.54247  20697825.83449
  -2402136.21249  -1871795.30246         0.00041  21214364.33146  21214360.15949
 -10648770.47549  -8297736.86647         0.00041  20974647.95047  20974645.12849
 -20216896.43249 -15753406.03947         0.00041  21252265.10247  21252260.75649
  25246600.21548  19672662.14144         0.00041  25415104.70744  25415097.02348
  -2069349.42248  -1612476.70941         0.00041         0.00041  24378620.74448
 02 07 01 19 01 00.0000000  0  8 03 14 15 17 18 21 23 31
 -15979705.08449 -12451703.96846         0.00041  21864840.53746  21864835.37649
 -15835952.22748 -12339675.87746         0.00041  22184228.66446  22184223.73448
  -8557657.88249  -6668300.52847         0.00041  20703578.15547  20703574.24549
  -2359783.51849  -1838793.24646         0.00041  21222423.88346  21222419.67449
 -10608696.64549  -8266510.52047         0.00041  20982273.65547  20982271.10949
 -20229650.77149 -15763344.47347         0.00041  21249837.90747  21249833.67049
  25321107.94548         0.00041         0.00041         0.00041  25429274.22048
  -2155582.13748         0.00041         0.00041         0.00041  24362212.32348
 02 07 01 19 01 30.0000000  0  8 03 14 15 17 18 21 23 31
 -16008352.37249 -12474026.52046         0.00041  21859388.66946  21859384.01049
 -15930291.94449 -12413187.23446         0.00041  22166276.55846  22166271.69849
  -8527103.42249  -6644491.88147         0.00041  20709392.60347  20709388.60949
  -2317099.63049  -1805533.12746         0.00041  21230546.44546  21230542.16649
 -10568433.68249  -8235136.80047         0.00041  20989935.70147  20989932.92249
 -20242231.69449 -15773147.78347         0.00041  21247443.89447  21247439.56949
  25395530.31048         0.00041         0.00041         0.00041  25443436.63248
  -2241492.68048  -1746614.06941         0.00041         0.00041  24345865.43748
 02 07 01 19 02 00.0000000  0  8 03 14 15 17 18 21 23 31
 -16036446.31649 -12495917.89946         0.00041  21854042.48246  21854038.08849
 -16024309.67149 -12486447.68546         0.00041  22148385.25846  22148380.30249
  -8496190.81249  -6620404.15247         0.00041  20715274.95347  20715271.05249
  -2274072.57749  -1772005.60246         0.00041  21238733.91646  21238730.03549
 -10527971.18249  -8203607.59647         0.00041  20997635.05847  20997632.40749
 -20254628.95349 -15782807.98147         0.00041  21245084.79147  21245080.29849
  25469878.70347         0.00041         0.00041         0.00041  25457585.36447
  -2327066.92448  -1813295.15541         0.00041         0.00041  24329581.97548
 02 07 01 19 02 30.0000000  0  8 03 14 15 17 18 21 23 31
 -16063994.34449 -12517383.89646         0.00041  21848800.23746  21848795.74049
 -16118011.29749 -12559461.84146         0.00041  22130554.20046  22130549.40249
  -8464927.86649  -6596043.43747         0.00041  20721224.49547  20721220.38349
  -2230710.16849  -1738216.75746         0.00041  21246986.17446  21246981.47149
 -10487318.51349  -8171930.20647         0.00041  21005370.92647  21005368.36049
 -20266851.36649 -15792331.93947         0.00041  21242759.06847  21242754.56849
  25544144.85547         0.00041         0.00041         0.00041  25471717.30947
  -2412310.63548  -1879718.76744         0.00041  24313366.55244  24313358.93248
 02 07 01 19 03 00.0000000  0  7 03 14 15 17 18 21 31
 -16091015.38949 -12538439.25646         0.00041  21843658.27946  21843653.91349
 -16211414.23949 -12632243.25446         0.00041  22112780.34046  22112775.22849
  -8433333.93449  -6571424.81547         0.00041  20727236.33047  20727232.60949
  -2187032.00049  -1704181.86846         0.00041  21255297.59946  21255293.35649
 -10446496.91149  -8140121.17847         0.00041  21013138.90647  21013136.45349
 -20278919.77549 -15801735.89247         0.00041  21240462.34947  21240458.24449
  -2497241.29348         0.00041         0.00041         0.00041  24297196.95848
 02 07 01 19 03 30.0000000  0  7 03 14 15 17 18 21 31
 -16117540.96849 -12559108.53846         0.00041  21838610.57146  21838606.29349
 -16304548.61749 -12704815.40046         0.00041  22095056.76446  22095051.94449
  -8401440.91149  -6546573.13247         0.00041  20733305.61047  20733301.53649
  -2143069.70349  -1669925.58546         0.00041  21263663.51846  21263659.05649
 -10405539.78349  -8108206.55147         0.00041  21020932.97147  21020930.51649
 -20290867.07849 -15811045.47647         0.00041  21238188.67947  21238184.58349
  -2581888.62348         0.00041         0.00041         0.00041  24281088.10248
 02 07 01 19 04 00.0000000  0  8 03 09 14 15 17 18 21 31
 -16143446.94949 -12579295.01846         0.00041  21833681.38446  21833676.60249
        -0.84358        -0.73955         0.00051  23580285.95855  23580279.95158
 -16397288.86949 -12777080.44346         0.00041  22077409.31646  22077403.97349
  -8369125.21249  -6521392.08947         0.00041  20739455.03747  20739450.82949
  -2098699.99949  -1635351.83646         0.00041  21272106.78846  21272102.08449
 -10364325.17949  -8076091.29447         0.00041  21028775.86947  21028773.25149
 -20302570.93449 -15820165.36047         0.00041  21235961.58347  21235957.30349
  -2666127.00048         0.00041         0.00041         0.00041  24265056.03548
 02 07 01 19 04 30.0000000  0  8 03 09 14 15 17 18 21 31
 -16168824.11349 -12599069.43146         0.00041  21828852.32146  21828847.53449
    -41162.29948    -32074.57145         0.00041  23572453.40745  23572446.88248
 -16489724.14849 -12849107.83746         0.00041  22059819.29546  22059814.22149
  -8336477.82549  -6495952.59047         0.00041  20745667.58947  20745663.29649
  -2054013.61749  -1600531.32646         0.00041  21280610.42246  21280605.94049
 -10322945.83449  -8043847.66747         0.00041  21036650.17347  21036647.62649
 -20314123.71449 -15829167.52547         0.00041  21233763.26347  21233759.09349
  -2750045.25448         0.00041         0.00041         0.00041  24249086.48248
 02 07 01 19 05 00.0000000  0  8 03 09 14 15 17 18 21 31
 -16193660.99649 -12618422.84846         0.00041  21824125.75546  21824120.85149
    -81900.45448    -63818.54645         0.00041  23564700.96345  23564695.00148
 -16581841.40349 -12920887.42746         0.00041  22042289.28946  22042284.84049
  -8303487.39349  -6470245.78246         0.00041  20751945.50946  20751941.10949
  -2008999.71749  -1565455.60946         0.00041  21289176.20546  21289171.86649
 -10281392.10649  -8011468.15847         0.00041  21044557.60847  21044555.16449
 -20325515.28549 -15838044.06947         0.00041  21231595.52847  21231591.20649
  -2833630.31148  -2208019.14244         0.00041  24233191.85144  24233181.92248
 02 07 01 19 05 30.0000000  0  8 03 09 14 15 17 18 21 31
 -16217950.27049 -12637349.55446         0.00041  21819503.90946  21819498.77049
   -122206.31548    -95225.65345         0.00041  23557031.25045  23557023.82348
 -16673631.84049 -12992412.35446         0.00041  22024822.13046  22024817.63749
  -8270146.84949  -6444266.16247         0.00041  20758289.99047  20758285.96749
  -1963651.12949  -1530119.09846         0.00041  21297805.89846  21297801.29449
 -10239658.42949  -7978948.42846         0.00041  21052499.25846  21052496.89349
 -20336739.67749 -15846790.34046         0.00041  21229459.28546  21229455.13149
  -2916873.08848  -2272883.53244         0.00041  24217351.25444  24217343.51048
 02 07 01 19 06 00.0000000  0  8 03 09 14 15 17 18 21 31
 -16241687.60749 -12655846.18346         0.00041  21814986.90946  21814981.76949
   -162073.70848   -126291.14545         0.00041  23549443.11045  23549437.68948
 -16765089.00549 -13063677.59046         0.00041  22007418.27846  22007414.08049
  -8236451.98449  -6418010.45647         0.00041  20764701.92847  20764698.04149
  -1917963.86349  -1494518.67046         0.00041  21306500.51246  21306495.36749
 -10197742.32049  -7946286.54847         0.00041  21060475.63847  21060473.21549
 -20347793.37449 -15855403.60246         0.00041  21227355.84546  21227351.95749
  -2999767.29048  -2337476.32544         0.00041  24201577.28744  24201570.18648
 02 07 01 19 06 30.0000000  0  8 03 09 14 15 17 18 21 31
 -16264872.56949 -12673912.39246         0.00041  21810574.78246  21810569.69649
   -201499.73348   -157012.69345         0.00041  23541941.31845  23541935.54648
 -16856211.05249 -13134681.69846         0.00041  21990078.02246  21990073.93149
  -8202402.49649  -6391478.41947         0.00041  20771181.43447  20771177.60449
  -1871937.61049  -1458654.10646         0.00041  21315258.67046  21315253.84449
 -10155644.97149  -7913483.44247         0.00041  21068486.82247  21068484.13549
 -20358677.63949 -15863884.84446         0.00041  21225284.78746  21225280.60149
  -3082310.51148  -2401795.61044         0.00041  24185869.67044  24185863.19848
 02 07 01 19 07 00.0000000  0  8 03 09 14 15 17 18 21 31
 -16287498.72949 -12691543.16746         0.00041  21806268.75646  21806264.00949
   -240476.51748   -187384.18445         0.00041  23534525.87045  23534518.63848
 -16946990.32249 -13205418.71246         0.00041  21972803.03346  21972799.37449
  -8167992.64849  -6364665.58347         0.00041  20777729.34747  20777725.43749
  -1825566.63749  -1422520.92846         0.00041  21324082.86846  21324078.03149
 -10113362.21749  -7880535.86747         0.00041  21076532.78047  21076530.21049
 -20369387.76849 -15872230.40046         0.00041  21223246.77346  21223242.49349
  -3164495.00748  -2465835.35044         0.00041  24170229.17244  24170223.29348
 02 07 01 19 07 30.0000000  0  8 03 09 14 15 17 18 21 31
 -16309579.27049 -12708748.78646         0.00041  21802067.70246  21802062.46349
   -279015.89548   -217414.82645         0.00041  23527189.84245  23527184.88448
 -17037438.33149 -13275897.60546         0.00041  21955591.82546  21955587.62449
  -8133235.97249  -6337582.48946         0.00041  20784343.43946  20784339.15149
  -1778864.55249  -1386129.74646         0.00041  21332969.87546  21332965.34549
 -10070909.14049  -7847455.57646         0.00041  21084611.54746  21084608.93149
 -20379938.13549 -15880451.46347         0.00041  21221239.08447  21221235.05549
  -3246332.22548  -2529604.53444         0.00041  24154656.59844  24154650.91548
 02 07 01 19 08 00.0000000  0  8 03 09 14 15 17 18 21 31
 -16331110.47649 -12725526.35846         0.00041  21797969.90046  21797965.22049
   -317112.11348   -247100.17145         0.00041  23519942.26045  23519934.47748
 -17127549.67249 -13346114.16346         0.00041  21938443.49946  21938439.72849
  -8098128.59249  -6310226.11646         0.00041  20791024.23946  20791019.88749
  -1731827.64349  -1349477.67046         0.00041  21341920.76246  21341916.18349
 -10028283.59149  -7814240.89046         0.00041  21092722.63046  21092720.28849
 -20390326.51149 -15888546.29946         0.00041  21219262.28246  21219258.01549
  -3327816.48848  -2593098.68544         0.00041  24139150.55644  24139145.34048
 02 07 01 19 08 30.0000000  0  8 03 09 14 15 17 18 21 31
 -16352094.36249 -12741877.45146         0.00041  21793977.03246  21793972.50949
   -354765.17448   -276440.20645         0.00041  23512777.23245  23512769.88048
 -17217324.58549 -13416068.56646         0.00041  21921360.37146  21921355.95049
  -8062672.93149  -6282598.35546         0.00041  20797770.93446  20797766.95349
  -1684458.26249  -1312566.53146         0.00041  21350934.77046  21350930.33349
  -9985489.04449  -7780894.51446         0.00041  21100866.22146  21100863.80249
 -20400556.34449 -15896517.59847         0.00041  21217315.47847  21217311.06249
  -3408947.80348  -2656317.80944         0.00041  24123709.77844  24123705.93048
 02 07 01 19 09 00.0000000  0  8 03 09 14 15 17 18 21 31
 -16372502.62849 -12757780.00646         0.00041  21790093.18646  21790088.85949
   -391944.90548   -305411.37045         0.00041  23505701.12245  23505694.59348
 -17306733.34649 -13485737.65346         0.00041  21904346.43646  21904342.21449
  -8026840.81549  -6254677.26346         0.00041  20804589.85546  20804585.77549
  -1636728.31749  -1275374.41846         0.00041  21360017.90746  21360013.32149
  -9942499.03749  -7747395.82546         0.00041  21109046.94946  21109044.70549
 -20410600.76649 -15904344.42047         0.00041  21215404.33447  21215400.16849
  -3489696.11348  -2719238.45344         0.00041  24108342.94044  24108339.71848
 02 07 01 19 09 30.0000000  0  8 03 09 14 15 17 18 21 31
 -16392333.72349 -12773232.81346         0.00041  21786319.89246  21786314.85349
   -428647.82748   -334011.04545         0.00041  23498717.78045  23498710.53448
 -17395772.36749 -13555118.63546         0.00041  21887402.56846  21887398.47049
  -7990630.67149  -6226461.60047         0.00041  20811480.44347  20811476.46449
  -1588636.58349  -1237900.38546         0.00041  21369169.75346  21369164.87149
  -9899313.81649  -7713745.01446         0.00041  21117264.79346  21117262.38449
 -20420459.50549 -15912026.55047         0.00041  21213528.16247  21213524.12049
  -3570057.98148  -2781858.02744         0.00041  24093050.74044  24093047.55248
 02 07 01 19 10 00.0000000  0  8 03 09 14 15 17 18 21 31
 -16411595.03849 -12788241.63446         0.00041  21782654.31446  21782649.68349
   -464879.83448   -362243.75245         0.00041  23491820.84245  23491815.76348
 -17484447.63949 -13624216.17746         0.00041  21870528.31846  21870524.04249
  -7954050.27749  -6197957.43146         0.00041  20818441.54346  20818437.47049
  -1540190.82649  -1200150.50046         0.00041  21378387.65946  21378383.20049
  -9855942.59549  -7679949.27946         0.00041  21125518.09946  21125515.68349
 -20430140.88149 -15919570.47447         0.00041  21211685.93547  21211681.42749
  -3650039.02948  -2844180.86244         0.00041  24077830.01344  24077827.76348
 02 07 01 19 10 30.0000000  0  8 03 09 14 15 17 18 21 31
 -16430270.65149 -12802794.06546         0.00041  21779100.52446  21779095.76449
   -500622.92448   -390095.47545         0.00041  23485020.88345  23485014.15748
 -17572741.54049 -13693016.54646         0.00041  21853726.55646  21853722.52949
  -7917083.89249  -6169152.48946         0.00041  20825476.20146  20825471.88249
  -1491375.24549  -1162112.46046         0.00041  21387677.81446  21387672.75849
  -9812370.74249  -7645997.20746         0.00041  21133809.56346  21133807.21849
 -20439630.05049 -15926964.63247         0.00041  21209880.23547  21209875.83349
  -3729621.32448  -2906192.92144         0.00041  24062688.07644  24062683.36748
 02 07 01 19 11 00.0000000  0  8 03 09 14 15 17 18 21 31
 -16448379.54249 -12816904.89646         0.00041  21775654.27546  21775650.23649
   -535893.78148   -417579.24445         0.00041  23478307.38645  23478302.65948
 -17660671.22649 -13761533.11846         0.00041  21836994.07946  21836989.79249
  -7879750.41849  -6140061.50246         0.00041  20832580.32346  20832576.17849
  -1442208.74349  -1123800.94546         0.00041  21397033.48146  21397029.01049
  -9768618.83949  -7611904.83946         0.00041  21142135.24446  21142132.78449
 -20448947.09749 -15934224.66447         0.00041  21208107.32647  21208103.18049
  -3808821.83348  -2967907.50344         0.00041  24047616.20644  24047612.04348
 02 07 01 19 11 30.0000000  0  8 03 09 14 15 17 18 21 31
 -16465949.26949 -12830595.60846         0.00041  21772310.78446  21772306.58949
   -570718.47748   -444715.34345         0.00041  23471680.90645  23471675.56648
 -17748262.21049 -13829785.76346         0.00041  21820325.48646  21820321.33249
  -7842077.47749  -6110705.99746         0.00041  20839749.16246  20839745.15349
  -1392719.33049  -1085237.83246         0.00041  21406451.21046  21406446.38049
  -9724715.96949  -7577694.83446         0.00041  21150489.77746  21150487.09049
 -20458120.73949 -15941372.95547         0.00041  21206361.59147  21206357.17849
  -3887666.18448  -3029344.55444         0.00041  24032617.84144  24032607.41648
 02 07 01 19 12 00.0000000  0  8 03 09 14 15 17 18 21 31
 -16482963.27749 -12843853.28546         0.00041  21769073.26646  21769068.79649
   -605078.64748   -471489.45545         0.00041  23465141.76845  23465136.69048
 -17835496.51149 -13897760.47346         0.00041  21803725.48546  21803721.20749
  -7804048.84249  -6081073.33246         0.00041  20846985.63946  20846981.76549
  -1342890.64849  -1046410.36746         0.00041  21415933.37746  21415928.55649
  -9680647.10749  -7543355.48446         0.00041  21158875.87846  21158873.29949
 -20467136.53249 -15948398.24947         0.00041  21204645.72647  21204641.45649
  -3966136.08248  -3090489.84244         0.00041  24017680.94744  24017674.93248
 02 07 01 19 12 30.0000000  0  8 03 09 14 15 17 18 21 31
 -16499415.82649 -12856673.46946         0.00041  21765942.82646  21765938.10349
   -638966.73748   -497895.73045         0.00041  23458694.14945  23458688.00848
 -17922366.63149 -13965451.40846         0.00041  21787194.84246  21787190.44149
  -7765658.73649  -6051158.99946         0.00041  20854291.21646  20854287.21549
  -1292717.10749  -1007314.16846         0.00041  21425481.34746  21425476.41349
  -9636407.64649  -7508883.20446         0.00041  21167294.43746  21167291.84549
 -20475989.32249 -15955296.52547         0.00041  21202961.17847  21202957.19949
  -4044223.73948  -3151337.26744         0.00041  24002820.49344  24002814.09548
 02 07 01 19 13 00.0000000  0  8 03 09 14 15 17 18 21 31
 -16515321.97049 -12869067.87746         0.00041  21762915.89046  21762911.10049
   -672395.77848   -523944.28345         0.00041  23452332.49345  23452326.10248
 -18008885.83949 -14032868.90746         0.00041  21770730.75346  21770726.65149
  -7726921.99249  -6020974.55646         0.00041  20861662.59646  20861658.66549
  -1242213.90349   -967961.08946         0.00041  21435091.81446  21435086.88349
  -9592014.55149  -7474291.20946         0.00041  21175742.16146  21175739.63349
 -20484694.82749 -15962080.03047         0.00041  21201304.67447  21201300.56749
  -4121942.17448  -3211897.00044         0.00041  23988034.69844  23988024.02448
 02 07 01 19 13 30.0000000  0  8 03 09 14 15 17 18 21 31
 -16530707.82049 -12881056.86446         0.00041  21759988.01446  21759983.28349
   -705389.96848   -549654.00445         0.00041  23446055.00145  23446048.59348
 -18095078.72549 -14100032.12446         0.00041  21754328.82146  21754324.60849
  -7687865.04449  -5990540.60646         0.00041  20869095.07346  20869090.97749
  -1191407.25249   -928371.55346         0.00041  21444760.22246  21444755.25549
  -9547495.55649  -7439601.10846         0.00041  21184213.95246  21184211.27549
 -20493280.63749 -15968770.27347         0.00041  21199670.82847  21199666.54949
  -4199315.71048         0.00041         0.00041         0.00041  23973300.55148
 02 07 01 19 14 00.0000000  0  8 03 09 14 15 17 18 21 31
 -16545501.54749 -12892584.45946         0.00041  21757172.85546  21757168.01549
   -737875.60348   -574967.44545         0.00041  23439871.95545  23439866.56948
 -18180871.61349 -14166883.65846         0.00041  21738002.71846  21737998.49949
  -7648416.16049  -5959801.24746         0.00041  20876601.97346  20876597.74449
  -1140225.52049   -888489.74046         0.00041  21454499.89146  21454494.87449
  -9502780.11049  -7404757.92746         0.00041  21192723.00746  21192720.31549
 -20501675.28449 -15975311.55647         0.00041  21198073.51147  21198069.02949
  -4276270.32748  -3332152.48144         0.00041  23958665.10144  23958657.77048
 02 07 01 19 14 30.0000000  0  8 03 09 14 15 17 18 21 31
 -16559704.99749 -12903652.09646         0.00041  21754469.90046  21754465.46349
   -769852.54448   -599884.49745         0.00041  23433785.98645  23433781.29648
 -18266264.29949 -14233423.34846         0.00041  21721752.45946  21721748.68449
  -7608577.14149  -5928757.88746         0.00041  20884183.05246  20884178.94349
  -1088670.74749   -848317.25346         0.00041  21464310.31046  21464305.44449
  -9457871.40549  -7369764.15546         0.00041  21201268.71646  21201266.27349
 -20509882.57849 -15981706.85247         0.00041  21196511.55947  21196507.33649
  -4352805.86248  -3391790.47644         0.00041  23944099.98244  23944093.43348
 02 07 01 19 15 00.0000000  0  8 03 09 14 15 17 18 21 31
 -16573300.38149 -12914245.91846         0.00041  21751882.71646  21751878.55249
   -801300.96748   -624389.70545         0.00041  23427802.36845  23427796.83448
 -18351237.04649 -14299635.80946         0.00041  21705583.07046  21705579.38549
  -7568330.08949  -5897396.57946         0.00041  20891841.88346  20891837.76649
  -1036725.08449   -807840.17946         0.00041  21474195.60846  21474190.74049
  -9412752.70749  -7334606.75446         0.00041  21209854.58846  21209852.02749
 -20517885.46549 -15987942.86947         0.00041  21194988.65547  21194984.27249
  -4428902.33948  -3451086.36144         0.00041  23929619.23244  23929613.31448
 02 07 01 19 15 30.0000000  0  8 03 09 14 15 17 18 21 31
 -16586323.02049 -12924393.44746         0.00041  21749404.58446  21749400.56449
   -832254.43148   -648509.22445         0.00041  23421911.16745  23421906.77948
 -18435823.40749 -14365547.18846         0.00041  21689486.68846  21689482.81449
  -7527710.39749  -5865744.91046         0.00041  20899571.62046  20899567.35949
   -984423.92549   -767086.08646         0.00041  21484147.56046  21484143.13849
  -9367460.77449  -7299314.36146         0.00041  21218473.35046  21218470.78949
 -20525719.94949 -15994047.66547         0.00041  21193497.71647  21193493.47949
  -4504593.30448  -3510066.25344         0.00041  23915215.77244  23915209.86648
 02 07 01 19 16 00.0000000  0  8 03 09 14 15 17 18 21 31
 -16598807.20649 -12934121.39346         0.00041  21747028.86146  21747024.66749
   -862745.41948   -672268.39245         0.00041  23416110.42745  23416103.83548
 -18520056.07449 -14431182.96946         0.00041  21673457.55946  21673453.77149
  -7486752.29549  -5833829.54146         0.00041  20907365.67446  20907361.51849
   -931801.77549   -726081.87646         0.00041  21494161.85846  21494156.55449
  -9322031.25849  -7263914.76846         0.00041  21227118.66746  21227115.80149
 -20533421.30549 -16000048.72247         0.00041  21192032.17347  21192027.97549
  -4579910.89848  -3568755.18744         0.00041  23900883.86244  23900877.62548
